<?xml version="1.0" encoding="UTF-8" standalone="no" ?>
<gpx xmlns="http://www.topografix.com/GPX/1/1" xmlns:xsi="http://www.w3.org/2001/XMLSchema-instance" xsi:schemaLocation="http://www.topografix.com/GPX/1/1 http://www.topografix.com/GPX/1/1/gpx.xsd" version="1.1" creator="VisuGPX - https://www.visugpx.com">
  <metadata>
    <name>Larche_Roburent</name>
    <desc><![CDATA[Prépa Séjour Estival 2023]]></desc>
  </metadata>
  <trk>
    <name><![CDATA[04Larche_Italie35kmd+1800m UbayeJ4]]></name>
    <trkseg>
      <trkpt lat="44.45178" lon="6.84529">
        <ele>1694</ele>
        <time>2013-08-21T06:30:12Z</time>
      </trkpt>
      <trkpt lat="44.45178" lon="6.84529">
        <ele>1693</ele>
        <time>2013-08-21T06:30:17Z</time>
      </trkpt>
      <trkpt lat="44.45188" lon="6.84526">
        <ele>1693</ele>
        <time>2013-08-21T06:30:36Z</time>
      </trkpt>
      <trkpt lat="44.45207" lon="6.84532">
        <ele>1693</ele>
        <time>2013-08-21T06:30:47Z</time>
      </trkpt>
      <trkpt lat="44.45219" lon="6.84562">
        <ele>1694</ele>
        <time>2013-08-21T06:31:02Z</time>
      </trkpt>
      <trkpt lat="44.45225" lon="6.84585">
        <ele>1696</ele>
        <time>2013-08-21T06:31:17Z</time>
      </trkpt>
      <trkpt lat="44.45229" lon="6.84615">
        <ele>1698</ele>
        <time>2013-08-21T06:31:32Z</time>
      </trkpt>
      <trkpt lat="44.45232" lon="6.84646">
        <ele>1700</ele>
        <time>2013-08-21T06:31:46Z</time>
      </trkpt>
      <trkpt lat="44.45233" lon="6.84687">
        <ele>1703</ele>
        <time>2013-08-21T06:32:04Z</time>
      </trkpt>
      <trkpt lat="44.45226" lon="6.84729">
        <ele>1704</ele>
        <time>2013-08-21T06:32:20Z</time>
      </trkpt>
      <trkpt lat="44.45199" lon="6.84768">
        <ele>1704</ele>
        <time>2013-08-21T06:32:37Z</time>
      </trkpt>
      <trkpt lat="44.45203" lon="6.84788">
        <ele>1705</ele>
        <time>2013-08-21T06:32:47Z</time>
      </trkpt>
      <trkpt lat="44.45219" lon="6.84806">
        <ele>1707</ele>
        <time>2013-08-21T06:33:02Z</time>
      </trkpt>
      <trkpt lat="44.45236" lon="6.84826">
        <ele>1710</ele>
        <time>2013-08-21T06:33:19Z</time>
      </trkpt>
      <trkpt lat="44.45244" lon="6.84841">
        <ele>1711</ele>
        <time>2013-08-21T06:33:30Z</time>
      </trkpt>
      <trkpt lat="44.45254" lon="6.84859">
        <ele>1712</ele>
        <time>2013-08-21T06:33:44Z</time>
      </trkpt>
      <trkpt lat="44.45264" lon="6.84881">
        <ele>1714</ele>
        <time>2013-08-21T06:33:59Z</time>
      </trkpt>
      <trkpt lat="44.45269" lon="6.84909">
        <ele>1716</ele>
        <time>2013-08-21T06:34:15Z</time>
      </trkpt>
      <trkpt lat="44.45276" lon="6.84927">
        <ele>1718</ele>
        <time>2013-08-21T06:34:27Z</time>
      </trkpt>
      <trkpt lat="44.45289" lon="6.84959">
        <ele>1721</ele>
        <time>2013-08-21T06:34:47Z</time>
      </trkpt>
      <trkpt lat="44.45289" lon="6.84989">
        <ele>1723</ele>
        <time>2013-08-21T06:35:01Z</time>
      </trkpt>
      <trkpt lat="44.4529" lon="6.85015">
        <ele>1725</ele>
        <time>2013-08-21T06:35:15Z</time>
      </trkpt>
      <trkpt lat="44.45301" lon="6.85043">
        <ele>1726</ele>
        <time>2013-08-21T06:35:31Z</time>
      </trkpt>
      <trkpt lat="44.4532" lon="6.85074">
        <ele>1728</ele>
        <time>2013-08-21T06:35:49Z</time>
      </trkpt>
      <trkpt lat="44.45342" lon="6.85099">
        <ele>1729</ele>
        <time>2013-08-21T06:36:09Z</time>
      </trkpt>
      <trkpt lat="44.45364" lon="6.85108">
        <ele>1732</ele>
        <time>2013-08-21T06:36:27Z</time>
      </trkpt>
      <trkpt lat="44.45384" lon="6.85113">
        <ele>1735</ele>
        <time>2013-08-21T06:36:43Z</time>
      </trkpt>
      <trkpt lat="44.45404" lon="6.85118">
        <ele>1738</ele>
        <time>2013-08-21T06:37:00Z</time>
      </trkpt>
      <trkpt lat="44.45428" lon="6.85128">
        <ele>1741</ele>
        <time>2013-08-21T06:37:18Z</time>
      </trkpt>
      <trkpt lat="44.45445" lon="6.85139">
        <ele>1744</ele>
        <time>2013-08-21T06:37:34Z</time>
      </trkpt>
      <trkpt lat="44.45463" lon="6.85158">
        <ele>1746</ele>
        <time>2013-08-21T06:37:52Z</time>
      </trkpt>
      <trkpt lat="44.45477" lon="6.85179">
        <ele>1749</ele>
        <time>2013-08-21T06:38:07Z</time>
      </trkpt>
      <trkpt lat="44.45487" lon="6.85194">
        <ele>1750</ele>
        <time>2013-08-21T06:38:19Z</time>
      </trkpt>
      <trkpt lat="44.45496" lon="6.85209">
        <ele>1752</ele>
        <time>2013-08-21T06:38:31Z</time>
      </trkpt>
      <trkpt lat="44.45506" lon="6.85233">
        <ele>1755</ele>
        <time>2013-08-21T06:38:49Z</time>
      </trkpt>
      <trkpt lat="44.45515" lon="6.85254">
        <ele>1756</ele>
        <time>2013-08-21T06:39:03Z</time>
      </trkpt>
      <trkpt lat="44.45528" lon="6.85271">
        <ele>1758</ele>
        <time>2013-08-21T06:39:18Z</time>
      </trkpt>
      <trkpt lat="44.45548" lon="6.8529">
        <ele>1761</ele>
        <time>2013-08-21T06:39:38Z</time>
      </trkpt>
      <trkpt lat="44.45553" lon="6.85294">
        <ele>1761</ele>
        <time>2013-08-21T06:39:49Z</time>
      </trkpt>
      <trkpt lat="44.45556" lon="6.85295">
        <ele>1761</ele>
        <time>2013-08-21T06:40:05Z</time>
      </trkpt>
      <trkpt lat="44.45562" lon="6.85295">
        <ele>1762</ele>
        <time>2013-08-21T06:40:17Z</time>
      </trkpt>
      <trkpt lat="44.45565" lon="6.85298">
        <ele>1763</ele>
        <time>2013-08-21T06:40:28Z</time>
      </trkpt>
      <trkpt lat="44.45568" lon="6.85298">
        <ele>1766</ele>
        <time>2013-08-21T06:40:47Z</time>
      </trkpt>
      <trkpt lat="44.45574" lon="6.85292">
        <ele>1767</ele>
        <time>2013-08-21T06:41:09Z</time>
      </trkpt>
      <trkpt lat="44.45577" lon="6.85289">
        <ele>1768</ele>
        <time>2013-08-21T06:41:19Z</time>
      </trkpt>
      <trkpt lat="44.45584" lon="6.85289">
        <ele>1771</ele>
        <time>2013-08-21T06:41:32Z</time>
      </trkpt>
      <trkpt lat="44.45593" lon="6.85284">
        <ele>1773</ele>
        <time>2013-08-21T06:41:43Z</time>
      </trkpt>
      <trkpt lat="44.45602" lon="6.85284">
        <ele>1775</ele>
        <time>2013-08-21T06:41:58Z</time>
      </trkpt>
      <trkpt lat="44.45605" lon="6.85289">
        <ele>1777</ele>
        <time>2013-08-21T06:42:10Z</time>
      </trkpt>
      <trkpt lat="44.45612" lon="6.85297">
        <ele>1779</ele>
        <time>2013-08-21T06:42:28Z</time>
      </trkpt>
      <trkpt lat="44.4562" lon="6.85298">
        <ele>1781</ele>
        <time>2013-08-21T06:42:43Z</time>
      </trkpt>
      <trkpt lat="44.45626" lon="6.85301">
        <ele>1782</ele>
        <time>2013-08-21T06:42:54Z</time>
      </trkpt>
      <trkpt lat="44.45634" lon="6.85307">
        <ele>1785</ele>
        <time>2013-08-21T06:43:09Z</time>
      </trkpt>
      <trkpt lat="44.45643" lon="6.85309">
        <ele>1787</ele>
        <time>2013-08-21T06:43:23Z</time>
      </trkpt>
      <trkpt lat="44.45652" lon="6.85316">
        <ele>1789</ele>
        <time>2013-08-21T06:43:43Z</time>
      </trkpt>
      <trkpt lat="44.45658" lon="6.85323">
        <ele>1791</ele>
        <time>2013-08-21T06:43:59Z</time>
      </trkpt>
      <trkpt lat="44.45663" lon="6.85332">
        <ele>1793</ele>
        <time>2013-08-21T06:44:14Z</time>
      </trkpt>
      <trkpt lat="44.45678" lon="6.85334">
        <ele>1796</ele>
        <time>2013-08-21T06:44:36Z</time>
      </trkpt>
      <trkpt lat="44.45686" lon="6.85339">
        <ele>1797</ele>
        <time>2013-08-21T06:44:49Z</time>
      </trkpt>
      <trkpt lat="44.45689" lon="6.85346">
        <ele>1799</ele>
        <time>2013-08-21T06:45:00Z</time>
      </trkpt>
      <trkpt lat="44.45697" lon="6.85353">
        <ele>1800</ele>
        <time>2013-08-21T06:45:13Z</time>
      </trkpt>
      <trkpt lat="44.45707" lon="6.85354">
        <ele>1801</ele>
        <time>2013-08-21T06:45:24Z</time>
      </trkpt>
      <trkpt lat="44.45714" lon="6.85367">
        <ele>1802</ele>
        <time>2013-08-21T06:45:42Z</time>
      </trkpt>
      <trkpt lat="44.45709" lon="6.85363">
        <ele>1804</ele>
        <time>2013-08-21T06:45:57Z</time>
      </trkpt>
      <trkpt lat="44.4571" lon="6.8536">
        <ele>1805</ele>
        <time>2013-08-21T06:46:09Z</time>
      </trkpt>
      <trkpt lat="44.45719" lon="6.85365">
        <ele>1807</ele>
        <time>2013-08-21T06:46:25Z</time>
      </trkpt>
      <trkpt lat="44.45725" lon="6.85362">
        <ele>1809</ele>
        <time>2013-08-21T06:46:38Z</time>
      </trkpt>
      <trkpt lat="44.45732" lon="6.85359">
        <ele>1810</ele>
        <time>2013-08-21T06:46:53Z</time>
      </trkpt>
      <trkpt lat="44.45728" lon="6.85352">
        <ele>1812</ele>
        <time>2013-08-21T06:47:05Z</time>
      </trkpt>
      <trkpt lat="44.45732" lon="6.85348">
        <ele>1813</ele>
        <time>2013-08-21T06:47:18Z</time>
      </trkpt>
      <trkpt lat="44.45725" lon="6.85336">
        <ele>1815</ele>
        <time>2013-08-21T06:47:32Z</time>
      </trkpt>
      <trkpt lat="44.45729" lon="6.85335">
        <ele>1817</ele>
        <time>2013-08-21T06:47:42Z</time>
      </trkpt>
      <trkpt lat="44.45736" lon="6.85329">
        <ele>1819</ele>
        <time>2013-08-21T06:47:57Z</time>
      </trkpt>
      <trkpt lat="44.4574" lon="6.85325">
        <ele>1821</ele>
        <time>2013-08-21T06:48:09Z</time>
      </trkpt>
      <trkpt lat="44.45752" lon="6.85327">
        <ele>1823</ele>
        <time>2013-08-21T06:48:25Z</time>
      </trkpt>
      <trkpt lat="44.45752" lon="6.85319">
        <ele>1824</ele>
        <time>2013-08-21T06:48:34Z</time>
      </trkpt>
      <trkpt lat="44.4576" lon="6.85315">
        <ele>1827</ele>
        <time>2013-08-21T06:49:00Z</time>
      </trkpt>
      <trkpt lat="44.45759" lon="6.8531">
        <ele>1829</ele>
        <time>2013-08-21T06:49:14Z</time>
      </trkpt>
      <trkpt lat="44.45759" lon="6.85309">
        <ele>1830</ele>
        <time>2013-08-21T06:49:23Z</time>
      </trkpt>
      <trkpt lat="44.45764" lon="6.85307">
        <ele>1833</ele>
        <time>2013-08-21T06:49:40Z</time>
      </trkpt>
      <trkpt lat="44.45768" lon="6.85303">
        <ele>1834</ele>
        <time>2013-08-21T06:49:51Z</time>
      </trkpt>
      <trkpt lat="44.45777" lon="6.85299">
        <ele>1836</ele>
        <time>2013-08-21T06:50:05Z</time>
      </trkpt>
      <trkpt lat="44.45776" lon="6.8529">
        <ele>1839</ele>
        <time>2013-08-21T06:50:19Z</time>
      </trkpt>
      <trkpt lat="44.45766" lon="6.85289">
        <ele>1841</ele>
        <time>2013-08-21T06:50:33Z</time>
      </trkpt>
      <trkpt lat="44.45756" lon="6.8529">
        <ele>1843</ele>
        <time>2013-08-21T06:50:48Z</time>
      </trkpt>
      <trkpt lat="44.45762" lon="6.85288">
        <ele>1844</ele>
        <time>2013-08-21T06:51:00Z</time>
      </trkpt>
      <trkpt lat="44.45765" lon="6.8528">
        <ele>1846</ele>
        <time>2013-08-21T06:51:13Z</time>
      </trkpt>
      <trkpt lat="44.45769" lon="6.85271">
        <ele>1849</ele>
        <time>2013-08-21T06:51:31Z</time>
      </trkpt>
      <trkpt lat="44.45775" lon="6.85263">
        <ele>1851</ele>
        <time>2013-08-21T06:51:46Z</time>
      </trkpt>
      <trkpt lat="44.45769" lon="6.8526">
        <ele>1852</ele>
        <time>2013-08-21T06:51:58Z</time>
      </trkpt>
      <trkpt lat="44.45773" lon="6.85254">
        <ele>1854</ele>
        <time>2013-08-21T06:52:12Z</time>
      </trkpt>
      <trkpt lat="44.45767" lon="6.85249">
        <ele>1856</ele>
        <time>2013-08-21T06:52:26Z</time>
      </trkpt>
      <trkpt lat="44.45767" lon="6.85246">
        <ele>1857</ele>
        <time>2013-08-21T06:52:32Z</time>
      </trkpt>
      <trkpt lat="44.45774" lon="6.85238">
        <ele>1859</ele>
        <time>2013-08-21T06:52:49Z</time>
      </trkpt>
      <trkpt lat="44.45767" lon="6.85229">
        <ele>1861</ele>
        <time>2013-08-21T06:53:04Z</time>
      </trkpt>
      <trkpt lat="44.45765" lon="6.85222">
        <ele>1863</ele>
        <time>2013-08-21T06:53:14Z</time>
      </trkpt>
      <trkpt lat="44.45758" lon="6.85216">
        <ele>1864</ele>
        <time>2013-08-21T06:53:27Z</time>
      </trkpt>
      <trkpt lat="44.45752" lon="6.8521">
        <ele>1866</ele>
        <time>2013-08-21T06:53:40Z</time>
      </trkpt>
      <trkpt lat="44.45754" lon="6.85202">
        <ele>1868</ele>
        <time>2013-08-21T06:53:54Z</time>
      </trkpt>
      <trkpt lat="44.45758" lon="6.85203">
        <ele>1870</ele>
        <time>2013-08-21T07:01:42Z</time>
      </trkpt>
      <trkpt lat="44.45755" lon="6.852">
        <ele>1871</ele>
        <time>2013-08-21T07:03:08Z</time>
      </trkpt>
      <trkpt lat="44.45762" lon="6.85199">
        <ele>1874</ele>
        <time>2013-08-21T07:03:24Z</time>
      </trkpt>
      <trkpt lat="44.45762" lon="6.85193">
        <ele>1876</ele>
        <time>2013-08-21T07:03:35Z</time>
      </trkpt>
      <trkpt lat="44.45768" lon="6.8519">
        <ele>1877</ele>
        <time>2013-08-21T07:03:44Z</time>
      </trkpt>
      <trkpt lat="44.4577" lon="6.85184">
        <ele>1879</ele>
        <time>2013-08-21T07:04:00Z</time>
      </trkpt>
      <trkpt lat="44.45763" lon="6.85179">
        <ele>1882</ele>
        <time>2013-08-21T07:04:17Z</time>
      </trkpt>
      <trkpt lat="44.4576" lon="6.8516">
        <ele>1885</ele>
        <time>2013-08-21T07:04:34Z</time>
      </trkpt>
      <trkpt lat="44.45758" lon="6.85145">
        <ele>1887</ele>
        <time>2013-08-21T07:04:49Z</time>
      </trkpt>
      <trkpt lat="44.45756" lon="6.8513">
        <ele>1890</ele>
        <time>2013-08-21T07:05:06Z</time>
      </trkpt>
      <trkpt lat="44.45763" lon="6.85129">
        <ele>1891</ele>
        <time>2013-08-21T07:05:23Z</time>
      </trkpt>
      <trkpt lat="44.4577" lon="6.85134">
        <ele>1893</ele>
        <time>2013-08-21T07:05:38Z</time>
      </trkpt>
      <trkpt lat="44.45778" lon="6.85138">
        <ele>1896</ele>
        <time>2013-08-21T07:05:54Z</time>
      </trkpt>
      <trkpt lat="44.4579" lon="6.85136">
        <ele>1899</ele>
        <time>2013-08-21T07:06:13Z</time>
      </trkpt>
      <trkpt lat="44.45798" lon="6.85132">
        <ele>1901</ele>
        <time>2013-08-21T07:06:30Z</time>
      </trkpt>
      <trkpt lat="44.45805" lon="6.85127">
        <ele>1903</ele>
        <time>2013-08-21T07:06:45Z</time>
      </trkpt>
      <trkpt lat="44.45813" lon="6.85124">
        <ele>1905</ele>
        <time>2013-08-21T07:07:00Z</time>
      </trkpt>
      <trkpt lat="44.45822" lon="6.85122">
        <ele>1908</ele>
        <time>2013-08-21T07:07:18Z</time>
      </trkpt>
      <trkpt lat="44.45826" lon="6.85119">
        <ele>1910</ele>
        <time>2013-08-21T07:07:29Z</time>
      </trkpt>
      <trkpt lat="44.45831" lon="6.85113">
        <ele>1912</ele>
        <time>2013-08-21T07:07:43Z</time>
      </trkpt>
      <trkpt lat="44.45837" lon="6.85111">
        <ele>1914</ele>
        <time>2013-08-21T07:07:58Z</time>
      </trkpt>
      <trkpt lat="44.45841" lon="6.85109">
        <ele>1917</ele>
        <time>2013-08-21T07:08:12Z</time>
      </trkpt>
      <trkpt lat="44.45849" lon="6.85105">
        <ele>1919</ele>
        <time>2013-08-21T07:08:26Z</time>
      </trkpt>
      <trkpt lat="44.45859" lon="6.85104">
        <ele>1921</ele>
        <time>2013-08-21T07:08:49Z</time>
      </trkpt>
      <trkpt lat="44.45869" lon="6.85103">
        <ele>1924</ele>
        <time>2013-08-21T07:09:06Z</time>
      </trkpt>
      <trkpt lat="44.45873" lon="6.85103">
        <ele>1925</ele>
        <time>2013-08-21T07:09:14Z</time>
      </trkpt>
      <trkpt lat="44.45881" lon="6.85104">
        <ele>1927</ele>
        <time>2013-08-21T07:09:28Z</time>
      </trkpt>
      <trkpt lat="44.45893" lon="6.85104">
        <ele>1929</ele>
        <time>2013-08-21T07:09:46Z</time>
      </trkpt>
      <trkpt lat="44.45905" lon="6.85103">
        <ele>1932</ele>
        <time>2013-08-21T07:10:03Z</time>
      </trkpt>
      <trkpt lat="44.45913" lon="6.85108">
        <ele>1934</ele>
        <time>2013-08-21T07:10:16Z</time>
      </trkpt>
      <trkpt lat="44.45926" lon="6.85115">
        <ele>1935</ele>
        <time>2013-08-21T07:10:49Z</time>
      </trkpt>
      <trkpt lat="44.45943" lon="6.85121">
        <ele>1939</ele>
        <time>2013-08-21T07:11:04Z</time>
      </trkpt>
      <trkpt lat="44.45953" lon="6.85125">
        <ele>1942</ele>
        <time>2013-08-21T07:11:15Z</time>
      </trkpt>
      <trkpt lat="44.45961" lon="6.85135">
        <ele>1942</ele>
        <time>2013-08-21T07:11:44Z</time>
      </trkpt>
      <trkpt lat="44.45985" lon="6.85148">
        <ele>1946</ele>
        <time>2013-08-21T07:12:02Z</time>
      </trkpt>
      <trkpt lat="44.46012" lon="6.85166">
        <ele>1947</ele>
        <time>2013-08-21T07:12:20Z</time>
      </trkpt>
      <trkpt lat="44.46031" lon="6.85183">
        <ele>1949</ele>
        <time>2013-08-21T07:12:36Z</time>
      </trkpt>
      <trkpt lat="44.46051" lon="6.85202">
        <ele>1952</ele>
        <time>2013-08-21T07:12:55Z</time>
      </trkpt>
      <trkpt lat="44.4607" lon="6.85217">
        <ele>1956</ele>
        <time>2013-08-21T07:13:14Z</time>
      </trkpt>
      <trkpt lat="44.46086" lon="6.85228">
        <ele>1959</ele>
        <time>2013-08-21T07:13:31Z</time>
      </trkpt>
      <trkpt lat="44.46108" lon="6.85242">
        <ele>1964</ele>
        <time>2013-08-21T07:13:52Z</time>
      </trkpt>
      <trkpt lat="44.46127" lon="6.85259">
        <ele>1966</ele>
        <time>2013-08-21T07:14:09Z</time>
      </trkpt>
      <trkpt lat="44.46137" lon="6.85281">
        <ele>1968</ele>
        <time>2013-08-21T07:14:25Z</time>
      </trkpt>
      <trkpt lat="44.46147" lon="6.853">
        <ele>1972</ele>
        <time>2013-08-21T07:14:40Z</time>
      </trkpt>
      <trkpt lat="44.46164" lon="6.8532">
        <ele>1975</ele>
        <time>2013-08-21T07:14:56Z</time>
      </trkpt>
      <trkpt lat="44.46183" lon="6.85346">
        <ele>1976</ele>
        <time>2013-08-21T07:15:14Z</time>
      </trkpt>
      <trkpt lat="44.46193" lon="6.85381">
        <ele>1979</ele>
        <time>2013-08-21T07:15:33Z</time>
      </trkpt>
      <trkpt lat="44.46202" lon="6.85405">
        <ele>1982</ele>
        <time>2013-08-21T07:15:51Z</time>
      </trkpt>
      <trkpt lat="44.46217" lon="6.85429">
        <ele>1985</ele>
        <time>2013-08-21T07:16:11Z</time>
      </trkpt>
      <trkpt lat="44.46239" lon="6.85444">
        <ele>1990</ele>
        <time>2013-08-21T07:16:30Z</time>
      </trkpt>
      <trkpt lat="44.46249" lon="6.85466">
        <ele>1991</ele>
        <time>2013-08-21T07:16:44Z</time>
      </trkpt>
      <trkpt lat="44.46257" lon="6.85473">
        <ele>1993</ele>
        <time>2013-08-21T07:16:53Z</time>
      </trkpt>
      <trkpt lat="44.46261" lon="6.85492">
        <ele>1995</ele>
        <time>2013-08-21T07:17:07Z</time>
      </trkpt>
      <trkpt lat="44.46262" lon="6.85498">
        <ele>1995</ele>
        <time>2013-08-21T07:17:15Z</time>
      </trkpt>
      <trkpt lat="44.46264" lon="6.85513">
        <ele>1998</ele>
        <time>2013-08-21T07:17:34Z</time>
      </trkpt>
      <trkpt lat="44.46266" lon="6.85526">
        <ele>2000</ele>
        <time>2013-08-21T07:17:48Z</time>
      </trkpt>
      <trkpt lat="44.46268" lon="6.85537">
        <ele>2002</ele>
        <time>2013-08-21T07:18:02Z</time>
      </trkpt>
      <trkpt lat="44.46266" lon="6.85543">
        <ele>2002</ele>
        <time>2013-08-21T07:18:11Z</time>
      </trkpt>
      <trkpt lat="44.46276" lon="6.85538">
        <ele>2003</ele>
        <time>2013-08-21T07:18:38Z</time>
      </trkpt>
      <trkpt lat="44.46283" lon="6.8555">
        <ele>2006</ele>
        <time>2013-08-21T07:18:57Z</time>
      </trkpt>
      <trkpt lat="44.46284" lon="6.8556">
        <ele>2008</ele>
        <time>2013-08-21T07:19:07Z</time>
      </trkpt>
      <trkpt lat="44.4629" lon="6.85577">
        <ele>2010</ele>
        <time>2013-08-21T07:19:24Z</time>
      </trkpt>
      <trkpt lat="44.46289" lon="6.85598">
        <ele>2012</ele>
        <time>2013-08-21T07:19:44Z</time>
      </trkpt>
      <trkpt lat="44.46288" lon="6.85615">
        <ele>2015</ele>
        <time>2013-08-21T07:20:03Z</time>
      </trkpt>
      <trkpt lat="44.46287" lon="6.85631">
        <ele>2018</ele>
        <time>2013-08-21T07:20:20Z</time>
      </trkpt>
      <trkpt lat="44.46289" lon="6.85649">
        <ele>2020</ele>
        <time>2013-08-21T07:20:38Z</time>
      </trkpt>
      <trkpt lat="44.46291" lon="6.85662">
        <ele>2024</ele>
        <time>2013-08-21T07:20:58Z</time>
      </trkpt>
      <trkpt lat="44.46296" lon="6.85671">
        <ele>2025</ele>
        <time>2013-08-21T07:21:18Z</time>
      </trkpt>
      <trkpt lat="44.463" lon="6.85692">
        <ele>2029</ele>
        <time>2013-08-21T07:21:39Z</time>
      </trkpt>
      <trkpt lat="44.46301" lon="6.8571">
        <ele>2032</ele>
        <time>2013-08-21T07:21:58Z</time>
      </trkpt>
      <trkpt lat="44.46304" lon="6.85722">
        <ele>2034</ele>
        <time>2013-08-21T07:22:16Z</time>
      </trkpt>
      <trkpt lat="44.46309" lon="6.85733">
        <ele>2037</ele>
        <time>2013-08-21T07:22:32Z</time>
      </trkpt>
      <trkpt lat="44.46311" lon="6.85745">
        <ele>2040</ele>
        <time>2013-08-21T07:22:47Z</time>
      </trkpt>
      <trkpt lat="44.46314" lon="6.85754">
        <ele>2042</ele>
        <time>2013-08-21T07:23:01Z</time>
      </trkpt>
      <trkpt lat="44.46312" lon="6.85766">
        <ele>2045</ele>
        <time>2013-08-21T07:23:14Z</time>
      </trkpt>
      <trkpt lat="44.46316" lon="6.8578">
        <ele>2047</ele>
        <time>2013-08-21T07:23:30Z</time>
      </trkpt>
      <trkpt lat="44.46318" lon="6.85795">
        <ele>2049</ele>
        <time>2013-08-21T07:23:47Z</time>
      </trkpt>
      <trkpt lat="44.46316" lon="6.85809">
        <ele>2052</ele>
        <time>2013-08-21T07:24:04Z</time>
      </trkpt>
      <trkpt lat="44.46319" lon="6.85824">
        <ele>2054</ele>
        <time>2013-08-21T07:24:21Z</time>
      </trkpt>
      <trkpt lat="44.4632" lon="6.85828">
        <ele>2056</ele>
        <time>2013-08-21T07:24:31Z</time>
      </trkpt>
      <trkpt lat="44.46321" lon="6.85841">
        <ele>2057</ele>
        <time>2013-08-21T07:24:55Z</time>
      </trkpt>
      <trkpt lat="44.46325" lon="6.85851">
        <ele>2059</ele>
        <time>2013-08-21T07:25:09Z</time>
      </trkpt>
      <trkpt lat="44.46323" lon="6.85862">
        <ele>2060</ele>
        <time>2013-08-21T07:25:27Z</time>
      </trkpt>
      <trkpt lat="44.46322" lon="6.85895">
        <ele>2062</ele>
        <time>2013-08-21T07:26:04Z</time>
      </trkpt>
      <trkpt lat="44.46322" lon="6.85912">
        <ele>2065</ele>
        <time>2013-08-21T07:26:23Z</time>
      </trkpt>
      <trkpt lat="44.46324" lon="6.85924">
        <ele>2068</ele>
        <time>2013-08-21T07:26:36Z</time>
      </trkpt>
      <trkpt lat="44.46324" lon="6.85943">
        <ele>2071</ele>
        <time>2013-08-21T07:26:58Z</time>
      </trkpt>
      <trkpt lat="44.46328" lon="6.85961">
        <ele>2074</ele>
        <time>2013-08-21T07:27:17Z</time>
      </trkpt>
      <trkpt lat="44.46331" lon="6.85973">
        <ele>2075</ele>
        <time>2013-08-21T07:27:30Z</time>
      </trkpt>
      <trkpt lat="44.4633" lon="6.85982">
        <ele>2076</ele>
        <time>2013-08-21T07:27:45Z</time>
      </trkpt>
      <trkpt lat="44.46326" lon="6.86009">
        <ele>2078</ele>
        <time>2013-08-21T07:28:04Z</time>
      </trkpt>
      <trkpt lat="44.46328" lon="6.86036">
        <ele>2081</ele>
        <time>2013-08-21T07:28:21Z</time>
      </trkpt>
      <trkpt lat="44.46329" lon="6.86063">
        <ele>2082</ele>
        <time>2013-08-21T07:28:33Z</time>
      </trkpt>
      <trkpt lat="44.46332" lon="6.86101">
        <ele>2083</ele>
        <time>2013-08-21T07:28:49Z</time>
      </trkpt>
      <trkpt lat="44.46335" lon="6.86117">
        <ele>2084</ele>
        <time>2013-08-21T07:28:58Z</time>
      </trkpt>
      <trkpt lat="44.46337" lon="6.86152">
        <ele>2085</ele>
        <time>2013-08-21T07:29:12Z</time>
      </trkpt>
      <trkpt lat="44.46339" lon="6.86189">
        <ele>2085</ele>
        <time>2013-08-21T07:29:22Z</time>
      </trkpt>
      <trkpt lat="44.46347" lon="6.86211">
        <ele>2087</ele>
        <time>2013-08-21T07:29:32Z</time>
      </trkpt>
      <trkpt lat="44.4636" lon="6.86236">
        <ele>2088</ele>
        <time>2013-08-21T07:29:43Z</time>
      </trkpt>
      <trkpt lat="44.46373" lon="6.86263">
        <ele>2089</ele>
        <time>2013-08-21T07:29:55Z</time>
      </trkpt>
      <trkpt lat="44.46372" lon="6.86293">
        <ele>2089</ele>
        <time>2013-08-21T07:30:06Z</time>
      </trkpt>
      <trkpt lat="44.46378" lon="6.86312">
        <ele>2090</ele>
        <time>2013-08-21T07:30:28Z</time>
      </trkpt>
      <trkpt lat="44.4639" lon="6.86343">
        <ele>2090</ele>
        <time>2013-08-21T07:30:37Z</time>
      </trkpt>
      <trkpt lat="44.46392" lon="6.86375">
        <ele>2092</ele>
        <time>2013-08-21T07:30:50Z</time>
      </trkpt>
      <trkpt lat="44.46395" lon="6.86389">
        <ele>2094</ele>
        <time>2013-08-21T07:31:10Z</time>
      </trkpt>
      <trkpt lat="44.46397" lon="6.86406">
        <ele>2095</ele>
        <time>2013-08-21T07:31:20Z</time>
      </trkpt>
      <trkpt lat="44.46398" lon="6.86419">
        <ele>2095</ele>
        <time>2013-08-21T07:31:25Z</time>
      </trkpt>
      <trkpt lat="44.464" lon="6.86438">
        <ele>2098</ele>
        <time>2013-08-21T07:31:44Z</time>
      </trkpt>
      <trkpt lat="44.46403" lon="6.86455">
        <ele>2101</ele>
        <time>2013-08-21T07:32:02Z</time>
      </trkpt>
      <trkpt lat="44.46403" lon="6.86469">
        <ele>2104</ele>
        <time>2013-08-21T07:32:19Z</time>
      </trkpt>
      <trkpt lat="44.46401" lon="6.86476">
        <ele>2103</ele>
        <time>2013-08-21T07:32:27Z</time>
      </trkpt>
      <trkpt lat="44.46397" lon="6.86501">
        <ele>2104</ele>
        <time>2013-08-21T07:32:40Z</time>
      </trkpt>
      <trkpt lat="44.4639" lon="6.86526">
        <ele>2105</ele>
        <time>2013-08-21T07:32:53Z</time>
      </trkpt>
      <trkpt lat="44.46389" lon="6.86547">
        <ele>2107</ele>
        <time>2013-08-21T07:33:05Z</time>
      </trkpt>
      <trkpt lat="44.46383" lon="6.8657">
        <ele>2108</ele>
        <time>2013-08-21T07:33:19Z</time>
      </trkpt>
      <trkpt lat="44.4638" lon="6.86579">
        <ele>2108</ele>
        <time>2013-08-21T07:33:54Z</time>
      </trkpt>
      <trkpt lat="44.46373" lon="6.86585">
        <ele>2109</ele>
        <time>2013-08-21T07:34:06Z</time>
      </trkpt>
      <trkpt lat="44.46372" lon="6.8659">
        <ele>2109</ele>
        <time>2013-08-21T07:34:16Z</time>
      </trkpt>
      <trkpt lat="44.46369" lon="6.86594">
        <ele>2109</ele>
        <time>2013-08-21T07:34:23Z</time>
      </trkpt>
      <trkpt lat="44.46362" lon="6.86597">
        <ele>2110</ele>
        <time>2013-08-21T07:34:35Z</time>
      </trkpt>
      <trkpt lat="44.4636" lon="6.86604">
        <ele>2112</ele>
        <time>2013-08-21T07:37:53Z</time>
      </trkpt>
      <trkpt lat="44.46359" lon="6.86608">
        <ele>2113</ele>
        <time>2013-08-21T07:38:01Z</time>
      </trkpt>
      <trkpt lat="44.46358" lon="6.8662">
        <ele>2114</ele>
        <time>2013-08-21T07:38:18Z</time>
      </trkpt>
      <trkpt lat="44.46354" lon="6.86632">
        <ele>2116</ele>
        <time>2013-08-21T07:38:32Z</time>
      </trkpt>
      <trkpt lat="44.46346" lon="6.86644">
        <ele>2117</ele>
        <time>2013-08-21T07:38:41Z</time>
      </trkpt>
      <trkpt lat="44.4634" lon="6.86654">
        <ele>2117</ele>
        <time>2013-08-21T07:38:49Z</time>
      </trkpt>
      <trkpt lat="44.46332" lon="6.86656">
        <ele>2118</ele>
        <time>2013-08-21T07:39:08Z</time>
      </trkpt>
      <trkpt lat="44.4633" lon="6.86669">
        <ele>2119</ele>
        <time>2013-08-21T07:39:15Z</time>
      </trkpt>
      <trkpt lat="44.46323" lon="6.86683">
        <ele>2120</ele>
        <time>2013-08-21T07:39:24Z</time>
      </trkpt>
      <trkpt lat="44.46317" lon="6.86696">
        <ele>2121</ele>
        <time>2013-08-21T07:39:36Z</time>
      </trkpt>
      <trkpt lat="44.46312" lon="6.86701">
        <ele>2122</ele>
        <time>2013-08-21T07:39:46Z</time>
      </trkpt>
      <trkpt lat="44.46307" lon="6.86702">
        <ele>2123</ele>
        <time>2013-08-21T07:40:09Z</time>
      </trkpt>
      <trkpt lat="44.46299" lon="6.86703">
        <ele>2126</ele>
        <time>2013-08-21T07:40:21Z</time>
      </trkpt>
      <trkpt lat="44.46294" lon="6.86701">
        <ele>2128</ele>
        <time>2013-08-21T07:40:32Z</time>
      </trkpt>
      <trkpt lat="44.46289" lon="6.86697">
        <ele>2129</ele>
        <time>2013-08-21T07:40:41Z</time>
      </trkpt>
      <trkpt lat="44.46285" lon="6.86692">
        <ele>2131</ele>
        <time>2013-08-21T07:40:54Z</time>
      </trkpt>
      <trkpt lat="44.46283" lon="6.86688">
        <ele>2132</ele>
        <time>2013-08-21T07:41:03Z</time>
      </trkpt>
      <trkpt lat="44.46279" lon="6.86684">
        <ele>2133</ele>
        <time>2013-08-21T07:41:14Z</time>
      </trkpt>
      <trkpt lat="44.46278" lon="6.86694">
        <ele>2135</ele>
        <time>2013-08-21T07:41:26Z</time>
      </trkpt>
      <trkpt lat="44.4628" lon="6.86705">
        <ele>2136</ele>
        <time>2013-08-21T07:41:39Z</time>
      </trkpt>
      <trkpt lat="44.46274" lon="6.86714">
        <ele>2138</ele>
        <time>2013-08-21T07:41:58Z</time>
      </trkpt>
      <trkpt lat="44.46273" lon="6.86709">
        <ele>2140</ele>
        <time>2013-08-21T07:42:06Z</time>
      </trkpt>
      <trkpt lat="44.46267" lon="6.86712">
        <ele>2141</ele>
        <time>2013-08-21T07:42:20Z</time>
      </trkpt>
      <trkpt lat="44.46261" lon="6.86725">
        <ele>2143</ele>
        <time>2013-08-21T07:42:38Z</time>
      </trkpt>
      <trkpt lat="44.46252" lon="6.86735">
        <ele>2145</ele>
        <time>2013-08-21T07:42:54Z</time>
      </trkpt>
      <trkpt lat="44.46246" lon="6.86745">
        <ele>2147</ele>
        <time>2013-08-21T07:43:10Z</time>
      </trkpt>
      <trkpt lat="44.46238" lon="6.86755">
        <ele>2150</ele>
        <time>2013-08-21T07:43:28Z</time>
      </trkpt>
      <trkpt lat="44.46234" lon="6.86764">
        <ele>2152</ele>
        <time>2013-08-21T07:43:41Z</time>
      </trkpt>
      <trkpt lat="44.46231" lon="6.86774">
        <ele>2153</ele>
        <time>2013-08-21T07:43:52Z</time>
      </trkpt>
      <trkpt lat="44.46229" lon="6.86784">
        <ele>2155</ele>
        <time>2013-08-21T07:44:05Z</time>
      </trkpt>
      <trkpt lat="44.46229" lon="6.86799">
        <ele>2158</ele>
        <time>2013-08-21T07:44:21Z</time>
      </trkpt>
      <trkpt lat="44.46229" lon="6.86816">
        <ele>2159</ele>
        <time>2013-08-21T07:44:35Z</time>
      </trkpt>
      <trkpt lat="44.46232" lon="6.8684">
        <ele>2162</ele>
        <time>2013-08-21T07:44:52Z</time>
      </trkpt>
      <trkpt lat="44.46231" lon="6.86858">
        <ele>2163</ele>
        <time>2013-08-21T07:45:05Z</time>
      </trkpt>
      <trkpt lat="44.46231" lon="6.86872">
        <ele>2165</ele>
        <time>2013-08-21T07:45:14Z</time>
      </trkpt>
      <trkpt lat="44.46231" lon="6.86898">
        <ele>2167</ele>
        <time>2013-08-21T07:45:32Z</time>
      </trkpt>
      <trkpt lat="44.46237" lon="6.8692">
        <ele>2167</ele>
        <time>2013-08-21T07:45:46Z</time>
      </trkpt>
      <trkpt lat="44.46238" lon="6.86925">
        <ele>2168</ele>
        <time>2013-08-21T07:45:54Z</time>
      </trkpt>
      <trkpt lat="44.46236" lon="6.86929">
        <ele>2169</ele>
        <time>2013-08-21T07:46:09Z</time>
      </trkpt>
      <trkpt lat="44.46232" lon="6.86938">
        <ele>2170</ele>
        <time>2013-08-21T07:46:23Z</time>
      </trkpt>
      <trkpt lat="44.46225" lon="6.86947">
        <ele>2173</ele>
        <time>2013-08-21T07:46:40Z</time>
      </trkpt>
      <trkpt lat="44.46222" lon="6.86953">
        <ele>2175</ele>
        <time>2013-08-21T07:46:50Z</time>
      </trkpt>
      <trkpt lat="44.46217" lon="6.86957">
        <ele>2177</ele>
        <time>2013-08-21T07:47:04Z</time>
      </trkpt>
      <trkpt lat="44.46211" lon="6.86969">
        <ele>2179</ele>
        <time>2013-08-21T07:47:22Z</time>
      </trkpt>
      <trkpt lat="44.46204" lon="6.86979">
        <ele>2182</ele>
        <time>2013-08-21T07:47:40Z</time>
      </trkpt>
      <trkpt lat="44.46199" lon="6.86985">
        <ele>2184</ele>
        <time>2013-08-21T07:47:52Z</time>
      </trkpt>
      <trkpt lat="44.46197" lon="6.86994">
        <ele>2186</ele>
        <time>2013-08-21T07:48:05Z</time>
      </trkpt>
      <trkpt lat="44.46192" lon="6.87002">
        <ele>2187</ele>
        <time>2013-08-21T07:48:19Z</time>
      </trkpt>
      <trkpt lat="44.46186" lon="6.87004">
        <ele>2188</ele>
        <time>2013-08-21T07:48:35Z</time>
      </trkpt>
      <trkpt lat="44.46178" lon="6.8701">
        <ele>2190</ele>
        <time>2013-08-21T07:48:50Z</time>
      </trkpt>
      <trkpt lat="44.46179" lon="6.87021">
        <ele>2191</ele>
        <time>2013-08-21T07:49:03Z</time>
      </trkpt>
      <trkpt lat="44.46183" lon="6.87033">
        <ele>2193</ele>
        <time>2013-08-21T07:49:16Z</time>
      </trkpt>
      <trkpt lat="44.46189" lon="6.8704">
        <ele>2195</ele>
        <time>2013-08-21T07:49:32Z</time>
      </trkpt>
      <trkpt lat="44.46188" lon="6.87044">
        <ele>2196</ele>
        <time>2013-08-21T07:49:48Z</time>
      </trkpt>
      <trkpt lat="44.46183" lon="6.8705">
        <ele>2198</ele>
        <time>2013-08-21T07:50:05Z</time>
      </trkpt>
      <trkpt lat="44.46187" lon="6.87064">
        <ele>2200</ele>
        <time>2013-08-21T07:50:21Z</time>
      </trkpt>
      <trkpt lat="44.46193" lon="6.87067">
        <ele>2201</ele>
        <time>2013-08-21T07:50:30Z</time>
      </trkpt>
      <trkpt lat="44.46201" lon="6.8707">
        <ele>2202</ele>
        <time>2013-08-21T07:50:41Z</time>
      </trkpt>
      <trkpt lat="44.46211" lon="6.87079">
        <ele>2205</ele>
        <time>2013-08-21T07:51:05Z</time>
      </trkpt>
      <trkpt lat="44.4622" lon="6.87079">
        <ele>2206</ele>
        <time>2013-08-21T07:51:18Z</time>
      </trkpt>
      <trkpt lat="44.46232" lon="6.87078">
        <ele>2207</ele>
        <time>2013-08-21T07:51:33Z</time>
      </trkpt>
      <trkpt lat="44.46235" lon="6.87085">
        <ele>2208</ele>
        <time>2013-08-21T07:51:42Z</time>
      </trkpt>
      <trkpt lat="44.46245" lon="6.87096">
        <ele>2211</ele>
        <time>2013-08-21T07:51:59Z</time>
      </trkpt>
      <trkpt lat="44.46251" lon="6.87101">
        <ele>2212</ele>
        <time>2013-08-21T07:52:26Z</time>
      </trkpt>
      <trkpt lat="44.46262" lon="6.87115">
        <ele>2214</ele>
        <time>2013-08-21T07:52:39Z</time>
      </trkpt>
      <trkpt lat="44.4627" lon="6.87116">
        <ele>2215</ele>
        <time>2013-08-21T07:52:49Z</time>
      </trkpt>
      <trkpt lat="44.46275" lon="6.8712">
        <ele>2216</ele>
        <time>2013-08-21T07:53:25Z</time>
      </trkpt>
      <trkpt lat="44.46286" lon="6.87147">
        <ele>2218</ele>
        <time>2013-08-21T07:53:40Z</time>
      </trkpt>
      <trkpt lat="44.46297" lon="6.8717">
        <ele>2220</ele>
        <time>2013-08-21T07:53:55Z</time>
      </trkpt>
      <trkpt lat="44.46304" lon="6.87199">
        <ele>2221</ele>
        <time>2013-08-21T07:54:13Z</time>
      </trkpt>
      <trkpt lat="44.46315" lon="6.8722">
        <ele>2223</ele>
        <time>2013-08-21T07:54:27Z</time>
      </trkpt>
      <trkpt lat="44.46317" lon="6.87237">
        <ele>2226</ele>
        <time>2013-08-21T07:54:39Z</time>
      </trkpt>
      <trkpt lat="44.46317" lon="6.87247">
        <ele>2227</ele>
        <time>2013-08-21T07:54:46Z</time>
      </trkpt>
      <trkpt lat="44.46329" lon="6.87245">
        <ele>2229</ele>
        <time>2013-08-21T07:54:58Z</time>
      </trkpt>
      <trkpt lat="44.46345" lon="6.87236">
        <ele>2232</ele>
        <time>2013-08-21T07:55:16Z</time>
      </trkpt>
      <trkpt lat="44.46353" lon="6.8723">
        <ele>2233</ele>
        <time>2013-08-21T07:55:25Z</time>
      </trkpt>
      <trkpt lat="44.46354" lon="6.87237">
        <ele>2234</ele>
        <time>2013-08-21T07:55:32Z</time>
      </trkpt>
      <trkpt lat="44.46351" lon="6.87244">
        <ele>2235</ele>
        <time>2013-08-21T07:55:39Z</time>
      </trkpt>
      <trkpt lat="44.46342" lon="6.87261">
        <ele>2238</ele>
        <time>2013-08-21T07:55:53Z</time>
      </trkpt>
      <trkpt lat="44.46342" lon="6.87277">
        <ele>2240</ele>
        <time>2013-08-21T07:56:04Z</time>
      </trkpt>
      <trkpt lat="44.46344" lon="6.87302">
        <ele>2243</ele>
        <time>2013-08-21T07:56:21Z</time>
      </trkpt>
      <trkpt lat="44.46347" lon="6.87316">
        <ele>2245</ele>
        <time>2013-08-21T07:56:32Z</time>
      </trkpt>
      <trkpt lat="44.46348" lon="6.87327">
        <ele>2246</ele>
        <time>2013-08-21T07:56:42Z</time>
      </trkpt>
      <trkpt lat="44.46343" lon="6.87342">
        <ele>2249</ele>
        <time>2013-08-21T07:56:57Z</time>
      </trkpt>
      <trkpt lat="44.46349" lon="6.87358">
        <ele>2250</ele>
        <time>2013-08-21T07:57:12Z</time>
      </trkpt>
      <trkpt lat="44.46352" lon="6.87369">
        <ele>2253</ele>
        <time>2013-08-21T07:57:28Z</time>
      </trkpt>
      <trkpt lat="44.46352" lon="6.87377">
        <ele>2254</ele>
        <time>2013-08-21T07:57:39Z</time>
      </trkpt>
      <trkpt lat="44.46352" lon="6.87391">
        <ele>2255</ele>
        <time>2013-08-21T07:57:49Z</time>
      </trkpt>
      <trkpt lat="44.46356" lon="6.87407">
        <ele>2255</ele>
        <time>2013-08-21T07:58:01Z</time>
      </trkpt>
      <trkpt lat="44.46357" lon="6.87417">
        <ele>2256</ele>
        <time>2013-08-21T07:58:09Z</time>
      </trkpt>
      <trkpt lat="44.46356" lon="6.87424">
        <ele>2257</ele>
        <time>2013-08-21T07:58:17Z</time>
      </trkpt>
      <trkpt lat="44.46361" lon="6.87433">
        <ele>2261</ele>
        <time>2013-08-21T08:07:46Z</time>
      </trkpt>
      <trkpt lat="44.46363" lon="6.87451">
        <ele>2260</ele>
        <time>2013-08-21T08:07:56Z</time>
      </trkpt>
      <trkpt lat="44.46361" lon="6.87496">
        <ele>2259</ele>
        <time>2013-08-21T08:08:10Z</time>
      </trkpt>
      <trkpt lat="44.4636" lon="6.87504">
        <ele>2259</ele>
        <time>2013-08-21T08:08:30Z</time>
      </trkpt>
      <trkpt lat="44.46359" lon="6.87516">
        <ele>2259</ele>
        <time>2013-08-21T08:08:37Z</time>
      </trkpt>
      <trkpt lat="44.46349" lon="6.87551">
        <ele>2259</ele>
        <time>2013-08-21T08:09:17Z</time>
      </trkpt>
      <trkpt lat="44.46347" lon="6.87588">
        <ele>2259</ele>
        <time>2013-08-21T08:09:28Z</time>
      </trkpt>
      <trkpt lat="44.46345" lon="6.87603">
        <ele>2260</ele>
        <time>2013-08-21T08:09:39Z</time>
      </trkpt>
      <trkpt lat="44.46337" lon="6.87636">
        <ele>2262</ele>
        <time>2013-08-21T08:09:51Z</time>
      </trkpt>
      <trkpt lat="44.4632" lon="6.87682">
        <ele>2262</ele>
        <time>2013-08-21T08:10:07Z</time>
      </trkpt>
      <trkpt lat="44.46306" lon="6.87715">
        <ele>2263</ele>
        <time>2013-08-21T08:10:20Z</time>
      </trkpt>
      <trkpt lat="44.46291" lon="6.87751">
        <ele>2265</ele>
        <time>2013-08-21T08:10:34Z</time>
      </trkpt>
      <trkpt lat="44.46283" lon="6.87769">
        <ele>2265</ele>
        <time>2013-08-21T08:10:42Z</time>
      </trkpt>
      <trkpt lat="44.46288" lon="6.87807">
        <ele>2266</ele>
        <time>2013-08-21T08:10:56Z</time>
      </trkpt>
      <trkpt lat="44.46282" lon="6.8783">
        <ele>2266</ele>
        <time>2013-08-21T08:11:09Z</time>
      </trkpt>
      <trkpt lat="44.46267" lon="6.87869">
        <ele>2268</ele>
        <time>2013-08-21T08:11:26Z</time>
      </trkpt>
      <trkpt lat="44.46261" lon="6.87889">
        <ele>2270</ele>
        <time>2013-08-21T08:11:36Z</time>
      </trkpt>
      <trkpt lat="44.4626" lon="6.87923">
        <ele>2271</ele>
        <time>2013-08-21T08:11:50Z</time>
      </trkpt>
      <trkpt lat="44.46259" lon="6.87962">
        <ele>2272</ele>
        <time>2013-08-21T08:12:05Z</time>
      </trkpt>
      <trkpt lat="44.46256" lon="6.88009">
        <ele>2273</ele>
        <time>2013-08-21T08:12:23Z</time>
      </trkpt>
      <trkpt lat="44.46252" lon="6.88028">
        <ele>2274</ele>
        <time>2013-08-21T08:12:38Z</time>
      </trkpt>
      <trkpt lat="44.46251" lon="6.88046">
        <ele>2275</ele>
        <time>2013-08-21T08:12:51Z</time>
      </trkpt>
      <trkpt lat="44.46242" lon="6.88085">
        <ele>2275</ele>
        <time>2013-08-21T08:13:06Z</time>
      </trkpt>
      <trkpt lat="44.46234" lon="6.88099">
        <ele>2275</ele>
        <time>2013-08-21T08:13:13Z</time>
      </trkpt>
      <trkpt lat="44.46231" lon="6.88107">
        <ele>2277</ele>
        <time>2013-08-21T08:13:21Z</time>
      </trkpt>
      <trkpt lat="44.4623" lon="6.88122">
        <ele>2278</ele>
        <time>2013-08-21T08:13:34Z</time>
      </trkpt>
      <trkpt lat="44.4623" lon="6.88146">
        <ele>2277</ele>
        <time>2013-08-21T08:13:44Z</time>
      </trkpt>
      <trkpt lat="44.46224" lon="6.88173">
        <ele>2278</ele>
        <time>2013-08-21T08:13:56Z</time>
      </trkpt>
      <trkpt lat="44.46219" lon="6.88182">
        <ele>2279</ele>
        <time>2013-08-21T08:14:08Z</time>
      </trkpt>
      <trkpt lat="44.46208" lon="6.88197">
        <ele>2279</ele>
        <time>2013-08-21T08:16:05Z</time>
      </trkpt>
      <trkpt lat="44.46187" lon="6.88222">
        <ele>2281</ele>
        <time>2013-08-21T08:16:19Z</time>
      </trkpt>
      <trkpt lat="44.46171" lon="6.88245">
        <ele>2283</ele>
        <time>2013-08-21T08:16:33Z</time>
      </trkpt>
      <trkpt lat="44.46152" lon="6.88268">
        <ele>2284</ele>
        <time>2013-08-21T08:16:48Z</time>
      </trkpt>
      <trkpt lat="44.46137" lon="6.88283">
        <ele>2285</ele>
        <time>2013-08-21T08:17:03Z</time>
      </trkpt>
      <trkpt lat="44.46117" lon="6.883">
        <ele>2286</ele>
        <time>2013-08-21T08:17:19Z</time>
      </trkpt>
      <trkpt lat="44.46105" lon="6.8831">
        <ele>2287</ele>
        <time>2013-08-21T08:17:29Z</time>
      </trkpt>
      <trkpt lat="44.46097" lon="6.88319">
        <ele>2288</ele>
        <time>2013-08-21T08:17:39Z</time>
      </trkpt>
      <trkpt lat="44.46092" lon="6.88327">
        <ele>2290</ele>
        <time>2013-08-21T08:17:52Z</time>
      </trkpt>
      <trkpt lat="44.46088" lon="6.88334">
        <ele>2291</ele>
        <time>2013-08-21T08:18:11Z</time>
      </trkpt>
      <trkpt lat="44.46085" lon="6.88342">
        <ele>2292</ele>
        <time>2013-08-21T08:18:22Z</time>
      </trkpt>
      <trkpt lat="44.46078" lon="6.88352">
        <ele>2295</ele>
        <time>2013-08-21T08:18:38Z</time>
      </trkpt>
      <trkpt lat="44.46069" lon="6.88362">
        <ele>2297</ele>
        <time>2013-08-21T08:18:53Z</time>
      </trkpt>
      <trkpt lat="44.46062" lon="6.88369">
        <ele>2299</ele>
        <time>2013-08-21T08:19:07Z</time>
      </trkpt>
      <trkpt lat="44.46055" lon="6.88376">
        <ele>2302</ele>
        <time>2013-08-21T08:19:23Z</time>
      </trkpt>
      <trkpt lat="44.46051" lon="6.88386">
        <ele>2304</ele>
        <time>2013-08-21T08:19:37Z</time>
      </trkpt>
      <trkpt lat="44.46053" lon="6.88395">
        <ele>2306</ele>
        <time>2013-08-21T08:19:49Z</time>
      </trkpt>
      <trkpt lat="44.46044" lon="6.88398">
        <ele>2308</ele>
        <time>2013-08-21T08:20:03Z</time>
      </trkpt>
      <trkpt lat="44.4604" lon="6.88407">
        <ele>2310</ele>
        <time>2013-08-21T08:20:17Z</time>
      </trkpt>
      <trkpt lat="44.4604" lon="6.88418">
        <ele>2312</ele>
        <time>2013-08-21T08:20:29Z</time>
      </trkpt>
      <trkpt lat="44.46027" lon="6.88421">
        <ele>2314</ele>
        <time>2013-08-21T08:20:46Z</time>
      </trkpt>
      <trkpt lat="44.46019" lon="6.88424">
        <ele>2316</ele>
        <time>2013-08-21T08:20:59Z</time>
      </trkpt>
      <trkpt lat="44.46017" lon="6.88424">
        <ele>2318</ele>
        <time>2013-08-21T08:21:09Z</time>
      </trkpt>
      <trkpt lat="44.46009" lon="6.88425">
        <ele>2319</ele>
        <time>2013-08-21T08:21:23Z</time>
      </trkpt>
      <trkpt lat="44.46001" lon="6.88436">
        <ele>2321</ele>
        <time>2013-08-21T08:21:36Z</time>
      </trkpt>
      <trkpt lat="44.45985" lon="6.88448">
        <ele>2322</ele>
        <time>2013-08-21T08:21:53Z</time>
      </trkpt>
      <trkpt lat="44.45973" lon="6.88455">
        <ele>2325</ele>
        <time>2013-08-21T08:22:11Z</time>
      </trkpt>
      <trkpt lat="44.45968" lon="6.88466">
        <ele>2327</ele>
        <time>2013-08-21T08:22:24Z</time>
      </trkpt>
      <trkpt lat="44.45965" lon="6.88469">
        <ele>2328</ele>
        <time>2013-08-21T08:22:32Z</time>
      </trkpt>
      <trkpt lat="44.45956" lon="6.88475">
        <ele>2331</ele>
        <time>2013-08-21T08:22:48Z</time>
      </trkpt>
      <trkpt lat="44.45946" lon="6.88489">
        <ele>2333</ele>
        <time>2013-08-21T08:23:04Z</time>
      </trkpt>
      <trkpt lat="44.4594" lon="6.88501">
        <ele>2335</ele>
        <time>2013-08-21T08:23:14Z</time>
      </trkpt>
      <trkpt lat="44.45922" lon="6.88513">
        <ele>2337</ele>
        <time>2013-08-21T08:23:27Z</time>
      </trkpt>
      <trkpt lat="44.45913" lon="6.88534">
        <ele>2338</ele>
        <time>2013-08-21T08:23:43Z</time>
      </trkpt>
      <trkpt lat="44.45904" lon="6.88551">
        <ele>2338</ele>
        <time>2013-08-21T08:24:07Z</time>
      </trkpt>
      <trkpt lat="44.45892" lon="6.88553">
        <ele>2338</ele>
        <time>2013-08-21T08:24:15Z</time>
      </trkpt>
      <trkpt lat="44.45875" lon="6.88566">
        <ele>2340</ele>
        <time>2013-08-21T08:24:30Z</time>
      </trkpt>
      <trkpt lat="44.45856" lon="6.8858">
        <ele>2340</ele>
        <time>2013-08-21T08:24:42Z</time>
      </trkpt>
      <trkpt lat="44.45848" lon="6.88586">
        <ele>2340</ele>
        <time>2013-08-21T08:24:48Z</time>
      </trkpt>
      <trkpt lat="44.45829" lon="6.88604">
        <ele>2342</ele>
        <time>2013-08-21T08:25:01Z</time>
      </trkpt>
      <trkpt lat="44.45815" lon="6.88629">
        <ele>2342</ele>
        <time>2013-08-21T08:25:14Z</time>
      </trkpt>
      <trkpt lat="44.45817" lon="6.88634">
        <ele>2342</ele>
        <time>2013-08-21T08:25:52Z</time>
      </trkpt>
      <trkpt lat="44.45796" lon="6.88655">
        <ele>2343</ele>
        <time>2013-08-21T08:26:07Z</time>
      </trkpt>
      <trkpt lat="44.45791" lon="6.88666">
        <ele>2344</ele>
        <time>2013-08-21T08:26:14Z</time>
      </trkpt>
      <trkpt lat="44.45773" lon="6.88688">
        <ele>2345</ele>
        <time>2013-08-21T08:26:29Z</time>
      </trkpt>
      <trkpt lat="44.45759" lon="6.8871">
        <ele>2348</ele>
        <time>2013-08-21T08:26:44Z</time>
      </trkpt>
      <trkpt lat="44.45749" lon="6.88721">
        <ele>2349</ele>
        <time>2013-08-21T08:26:54Z</time>
      </trkpt>
      <trkpt lat="44.4574" lon="6.88747">
        <ele>2351</ele>
        <time>2013-08-21T08:27:11Z</time>
      </trkpt>
      <trkpt lat="44.4573" lon="6.88773">
        <ele>2353</ele>
        <time>2013-08-21T08:27:27Z</time>
      </trkpt>
      <trkpt lat="44.45721" lon="6.88802">
        <ele>2354</ele>
        <time>2013-08-21T08:27:42Z</time>
      </trkpt>
      <trkpt lat="44.4571" lon="6.88831">
        <ele>2353</ele>
        <time>2013-08-21T08:27:55Z</time>
      </trkpt>
      <trkpt lat="44.45704" lon="6.88849">
        <ele>2354</ele>
        <time>2013-08-21T08:28:06Z</time>
      </trkpt>
      <trkpt lat="44.45701" lon="6.88859">
        <ele>2356</ele>
        <time>2013-08-21T08:28:12Z</time>
      </trkpt>
      <trkpt lat="44.45695" lon="6.88879">
        <ele>2357</ele>
        <time>2013-08-21T08:28:23Z</time>
      </trkpt>
      <trkpt lat="44.45688" lon="6.88886">
        <ele>2358</ele>
        <time>2013-08-21T08:28:32Z</time>
      </trkpt>
      <trkpt lat="44.45687" lon="6.88893">
        <ele>2359</ele>
        <time>2013-08-21T08:28:53Z</time>
      </trkpt>
      <trkpt lat="44.45685" lon="6.88897">
        <ele>2360</ele>
        <time>2013-08-21T08:29:02Z</time>
      </trkpt>
      <trkpt lat="44.4568" lon="6.8891">
        <ele>2361</ele>
        <time>2013-08-21T08:29:16Z</time>
      </trkpt>
      <trkpt lat="44.45675" lon="6.88924">
        <ele>2363</ele>
        <time>2013-08-21T08:29:30Z</time>
      </trkpt>
      <trkpt lat="44.45668" lon="6.88936">
        <ele>2365</ele>
        <time>2013-08-21T08:29:47Z</time>
      </trkpt>
      <trkpt lat="44.45663" lon="6.88943">
        <ele>2366</ele>
        <time>2013-08-21T08:29:58Z</time>
      </trkpt>
      <trkpt lat="44.45658" lon="6.88948">
        <ele>2368</ele>
        <time>2013-08-21T08:30:10Z</time>
      </trkpt>
      <trkpt lat="44.45653" lon="6.88956">
        <ele>2371</ele>
        <time>2013-08-21T08:30:23Z</time>
      </trkpt>
      <trkpt lat="44.45646" lon="6.88963">
        <ele>2373</ele>
        <time>2013-08-21T08:30:38Z</time>
      </trkpt>
      <trkpt lat="44.4564" lon="6.88973">
        <ele>2375</ele>
        <time>2013-08-21T08:30:53Z</time>
      </trkpt>
      <trkpt lat="44.45634" lon="6.88975">
        <ele>2377</ele>
        <time>2013-08-21T08:31:06Z</time>
      </trkpt>
      <trkpt lat="44.45628" lon="6.88982">
        <ele>2379</ele>
        <time>2013-08-21T08:31:21Z</time>
      </trkpt>
      <trkpt lat="44.45621" lon="6.88988">
        <ele>2382</ele>
        <time>2013-08-21T08:31:36Z</time>
      </trkpt>
      <trkpt lat="44.45613" lon="6.89">
        <ele>2384</ele>
        <time>2013-08-21T08:31:52Z</time>
      </trkpt>
      <trkpt lat="44.45606" lon="6.89013">
        <ele>2387</ele>
        <time>2013-08-21T08:32:09Z</time>
      </trkpt>
      <trkpt lat="44.45601" lon="6.89026">
        <ele>2389</ele>
        <time>2013-08-21T08:32:26Z</time>
      </trkpt>
      <trkpt lat="44.45592" lon="6.89035">
        <ele>2392</ele>
        <time>2013-08-21T08:32:43Z</time>
      </trkpt>
      <trkpt lat="44.45585" lon="6.89046">
        <ele>2394</ele>
        <time>2013-08-21T08:32:58Z</time>
      </trkpt>
      <trkpt lat="44.45581" lon="6.89051">
        <ele>2395</ele>
        <time>2013-08-21T08:33:08Z</time>
      </trkpt>
      <trkpt lat="44.45578" lon="6.89056">
        <ele>2395</ele>
        <time>2013-08-21T08:33:16Z</time>
      </trkpt>
      <trkpt lat="44.45573" lon="6.89066">
        <ele>2395</ele>
        <time>2013-08-21T08:33:25Z</time>
      </trkpt>
      <trkpt lat="44.45565" lon="6.89084">
        <ele>2397</ele>
        <time>2013-08-21T08:33:40Z</time>
      </trkpt>
      <trkpt lat="44.45562" lon="6.89094">
        <ele>2398</ele>
        <time>2013-08-21T08:33:47Z</time>
      </trkpt>
      <trkpt lat="44.45557" lon="6.89117">
        <ele>2400</ele>
        <time>2013-08-21T08:34:02Z</time>
      </trkpt>
      <trkpt lat="44.45549" lon="6.89146">
        <ele>2402</ele>
        <time>2013-08-21T08:34:19Z</time>
      </trkpt>
      <trkpt lat="44.45546" lon="6.89176">
        <ele>2404</ele>
        <time>2013-08-21T08:34:34Z</time>
      </trkpt>
      <trkpt lat="44.45538" lon="6.892">
        <ele>2404</ele>
        <time>2013-08-21T08:34:47Z</time>
      </trkpt>
      <trkpt lat="44.45519" lon="6.89221">
        <ele>2405</ele>
        <time>2013-08-21T08:35:03Z</time>
      </trkpt>
      <trkpt lat="44.45502" lon="6.8924">
        <ele>2408</ele>
        <time>2013-08-21T08:35:17Z</time>
      </trkpt>
      <trkpt lat="44.4549" lon="6.89257">
        <ele>2408</ele>
        <time>2013-08-21T08:35:30Z</time>
      </trkpt>
      <trkpt lat="44.45471" lon="6.89277">
        <ele>2409</ele>
        <time>2013-08-21T08:35:43Z</time>
      </trkpt>
      <trkpt lat="44.45449" lon="6.89298">
        <ele>2410</ele>
        <time>2013-08-21T08:35:58Z</time>
      </trkpt>
      <trkpt lat="44.45431" lon="6.89314">
        <ele>2410</ele>
        <time>2013-08-21T08:36:07Z</time>
      </trkpt>
      <trkpt lat="44.45418" lon="6.89325">
        <ele>2411</ele>
        <time>2013-08-21T08:36:19Z</time>
      </trkpt>
      <trkpt lat="44.45406" lon="6.89333">
        <ele>2411</ele>
        <time>2013-08-21T08:36:29Z</time>
      </trkpt>
      <trkpt lat="44.45384" lon="6.89347">
        <ele>2412</ele>
        <time>2013-08-21T08:36:41Z</time>
      </trkpt>
      <trkpt lat="44.45366" lon="6.89365">
        <ele>2412</ele>
        <time>2013-08-21T08:36:54Z</time>
      </trkpt>
      <trkpt lat="44.45349" lon="6.89389">
        <ele>2412</ele>
        <time>2013-08-21T08:37:04Z</time>
      </trkpt>
      <trkpt lat="44.45341" lon="6.89406">
        <ele>2411</ele>
        <time>2013-08-21T08:37:20Z</time>
      </trkpt>
      <trkpt lat="44.45335" lon="6.8942">
        <ele>2411</ele>
        <time>2013-08-21T08:37:56Z</time>
      </trkpt>
      <trkpt lat="44.45327" lon="6.89436">
        <ele>2412</ele>
        <time>2013-08-21T08:38:12Z</time>
      </trkpt>
      <trkpt lat="44.45305" lon="6.89467">
        <ele>2413</ele>
        <time>2013-08-21T08:38:28Z</time>
      </trkpt>
      <trkpt lat="44.45287" lon="6.89487">
        <ele>2415</ele>
        <time>2013-08-21T08:38:43Z</time>
      </trkpt>
      <trkpt lat="44.4527" lon="6.89507">
        <ele>2418</ele>
        <time>2013-08-21T08:38:59Z</time>
      </trkpt>
      <trkpt lat="44.45255" lon="6.89527">
        <ele>2422</ele>
        <time>2013-08-21T08:39:16Z</time>
      </trkpt>
      <trkpt lat="44.45242" lon="6.89546">
        <ele>2425</ele>
        <time>2013-08-21T08:39:32Z</time>
      </trkpt>
      <trkpt lat="44.45238" lon="6.89555">
        <ele>2427</ele>
        <time>2013-08-21T08:39:40Z</time>
      </trkpt>
      <trkpt lat="44.45229" lon="6.89569">
        <ele>2429</ele>
        <time>2013-08-21T08:39:54Z</time>
      </trkpt>
      <trkpt lat="44.45217" lon="6.89582">
        <ele>2431</ele>
        <time>2013-08-21T08:40:10Z</time>
      </trkpt>
      <trkpt lat="44.45213" lon="6.89587">
        <ele>2432</ele>
        <time>2013-08-21T08:40:20Z</time>
      </trkpt>
      <trkpt lat="44.45208" lon="6.89592">
        <ele>2435</ele>
        <time>2013-08-21T08:40:35Z</time>
      </trkpt>
      <trkpt lat="44.45204" lon="6.89602">
        <ele>2437</ele>
        <time>2013-08-21T08:40:49Z</time>
      </trkpt>
      <trkpt lat="44.45198" lon="6.89614">
        <ele>2439</ele>
        <time>2013-08-21T08:41:07Z</time>
      </trkpt>
      <trkpt lat="44.45192" lon="6.89627">
        <ele>2442</ele>
        <time>2013-08-21T08:41:26Z</time>
      </trkpt>
      <trkpt lat="44.45183" lon="6.89637">
        <ele>2444</ele>
        <time>2013-08-21T08:41:39Z</time>
      </trkpt>
      <trkpt lat="44.4517" lon="6.8965">
        <ele>2446</ele>
        <time>2013-08-21T08:41:53Z</time>
      </trkpt>
      <trkpt lat="44.45156" lon="6.89664">
        <ele>2448</ele>
        <time>2013-08-21T08:42:08Z</time>
      </trkpt>
      <trkpt lat="44.45149" lon="6.8967">
        <ele>2450</ele>
        <time>2013-08-21T08:42:16Z</time>
      </trkpt>
      <trkpt lat="44.45139" lon="6.89683">
        <ele>2452</ele>
        <time>2013-08-21T08:42:30Z</time>
      </trkpt>
      <trkpt lat="44.45129" lon="6.89694">
        <ele>2454</ele>
        <time>2013-08-21T08:42:48Z</time>
      </trkpt>
      <trkpt lat="44.45121" lon="6.89706">
        <ele>2457</ele>
        <time>2013-08-21T08:43:06Z</time>
      </trkpt>
      <trkpt lat="44.45114" lon="6.89718">
        <ele>2459</ele>
        <time>2013-08-21T08:43:26Z</time>
      </trkpt>
      <trkpt lat="44.45108" lon="6.89726">
        <ele>2461</ele>
        <time>2013-08-21T08:43:40Z</time>
      </trkpt>
      <trkpt lat="44.451" lon="6.89722">
        <ele>2462</ele>
        <time>2013-08-21T08:43:53Z</time>
      </trkpt>
      <trkpt lat="44.4509" lon="6.89722">
        <ele>2466</ele>
        <time>2013-08-21T08:44:10Z</time>
      </trkpt>
      <trkpt lat="44.45078" lon="6.8973">
        <ele>2469</ele>
        <time>2013-08-21T08:44:29Z</time>
      </trkpt>
      <trkpt lat="44.4507" lon="6.89733">
        <ele>2471</ele>
        <time>2013-08-21T08:44:44Z</time>
      </trkpt>
      <trkpt lat="44.45062" lon="6.89737">
        <ele>2473</ele>
        <time>2013-08-21T08:44:55Z</time>
      </trkpt>
      <trkpt lat="44.45052" lon="6.89751">
        <ele>2475</ele>
        <time>2013-08-21T08:45:14Z</time>
      </trkpt>
      <trkpt lat="44.45049" lon="6.89757">
        <ele>2475</ele>
        <time>2013-08-21T08:45:32Z</time>
      </trkpt>
      <trkpt lat="44.45038" lon="6.89772">
        <ele>2477</ele>
        <time>2013-08-21T08:45:51Z</time>
      </trkpt>
      <trkpt lat="44.45029" lon="6.8978">
        <ele>2478</ele>
        <time>2013-08-21T08:46:05Z</time>
      </trkpt>
      <trkpt lat="44.4502" lon="6.89781">
        <ele>2480</ele>
        <time>2013-08-21T08:46:18Z</time>
      </trkpt>
      <trkpt lat="44.45017" lon="6.89787">
        <ele>2480</ele>
        <time>2013-08-21T08:46:25Z</time>
      </trkpt>
      <trkpt lat="44.45008" lon="6.89798">
        <ele>2479</ele>
        <time>2013-08-21T08:46:31Z</time>
      </trkpt>
      <trkpt lat="44.44994" lon="6.89802">
        <ele>2481</ele>
        <time>2013-08-21T08:46:43Z</time>
      </trkpt>
      <trkpt lat="44.44988" lon="6.89808">
        <ele>2482</ele>
        <time>2013-08-21T08:46:51Z</time>
      </trkpt>
      <trkpt lat="44.44977" lon="6.89821">
        <ele>2482</ele>
        <time>2013-08-21T08:47:12Z</time>
      </trkpt>
      <trkpt lat="44.44964" lon="6.89843">
        <ele>2485</ele>
        <time>2013-08-21T08:47:27Z</time>
      </trkpt>
      <trkpt lat="44.44953" lon="6.89857">
        <ele>2486</ele>
        <time>2013-08-21T08:47:41Z</time>
      </trkpt>
      <trkpt lat="44.4494" lon="6.89874">
        <ele>2487</ele>
        <time>2013-08-21T08:47:55Z</time>
      </trkpt>
      <trkpt lat="44.44937" lon="6.89874">
        <ele>2487</ele>
        <time>2013-08-21T08:47:59Z</time>
      </trkpt>
      <trkpt lat="44.4493" lon="6.89893">
        <ele>2487</ele>
        <time>2013-08-21T08:51:58Z</time>
      </trkpt>
      <trkpt lat="44.44907" lon="6.89929">
        <ele>2485</ele>
        <time>2013-08-21T08:52:04Z</time>
      </trkpt>
      <trkpt lat="44.44855" lon="6.90007">
        <ele>2476</ele>
        <time>2013-08-21T08:52:14Z</time>
      </trkpt>
      <trkpt lat="44.44811" lon="6.90079">
        <ele>2469</ele>
        <time>2013-08-21T08:52:22Z</time>
      </trkpt>
      <trkpt lat="44.44759" lon="6.90167">
        <ele>2458</ele>
        <time>2013-08-21T08:52:30Z</time>
      </trkpt>
      <trkpt lat="44.447" lon="6.90243">
        <ele>2445</ele>
        <time>2013-08-21T08:52:39Z</time>
      </trkpt>
      <trkpt lat="44.44678" lon="6.9028">
        <ele>2438</ele>
        <time>2013-08-21T08:52:44Z</time>
      </trkpt>
      <trkpt lat="44.44647" lon="6.90312">
        <ele>2426</ele>
        <time>2013-08-21T08:52:53Z</time>
      </trkpt>
      <trkpt lat="44.44605" lon="6.90338">
        <ele>2413</ele>
        <time>2013-08-21T08:53:05Z</time>
      </trkpt>
      <trkpt lat="44.44576" lon="6.90371">
        <ele>2407</ele>
        <time>2013-08-21T08:53:14Z</time>
      </trkpt>
      <trkpt lat="44.44534" lon="6.90415">
        <ele>2397</ele>
        <time>2013-08-21T08:53:23Z</time>
      </trkpt>
      <trkpt lat="44.44514" lon="6.90433">
        <ele>2391</ele>
        <time>2013-08-21T08:53:28Z</time>
      </trkpt>
      <trkpt lat="44.44489" lon="6.90451">
        <ele>2386</ele>
        <time>2013-08-21T08:53:34Z</time>
      </trkpt>
      <trkpt lat="44.44475" lon="6.90457">
        <ele>2382</ele>
        <time>2013-08-21T08:53:39Z</time>
      </trkpt>
      <trkpt lat="44.44466" lon="6.90476">
        <ele>2378</ele>
        <time>2013-08-21T08:53:46Z</time>
      </trkpt>
      <trkpt lat="44.44463" lon="6.90481">
        <ele>2376</ele>
        <time>2013-08-21T08:53:56Z</time>
      </trkpt>
      <trkpt lat="44.44446" lon="6.90515">
        <ele>2374</ele>
        <time>2013-08-21T08:54:05Z</time>
      </trkpt>
      <trkpt lat="44.44437" lon="6.90535">
        <ele>2370</ele>
        <time>2013-08-21T08:54:11Z</time>
      </trkpt>
      <trkpt lat="44.44429" lon="6.90542">
        <ele>2367</ele>
        <time>2013-08-21T08:54:41Z</time>
      </trkpt>
      <trkpt lat="44.44409" lon="6.90581">
        <ele>2361</ele>
        <time>2013-08-21T08:54:50Z</time>
      </trkpt>
      <trkpt lat="44.44404" lon="6.90591">
        <ele>2357</ele>
        <time>2013-08-21T08:54:55Z</time>
      </trkpt>
      <trkpt lat="44.44396" lon="6.90595">
        <ele>2354</ele>
        <time>2013-08-21T08:55:10Z</time>
      </trkpt>
      <trkpt lat="44.44371" lon="6.90611">
        <ele>2349</ele>
        <time>2013-08-21T08:55:19Z</time>
      </trkpt>
      <trkpt lat="44.44359" lon="6.90618">
        <ele>2346</ele>
        <time>2013-08-21T08:55:22Z</time>
      </trkpt>
      <trkpt lat="44.44335" lon="6.90652">
        <ele>2340</ele>
        <time>2013-08-21T08:55:29Z</time>
      </trkpt>
      <trkpt lat="44.44288" lon="6.90682">
        <ele>2336</ele>
        <time>2013-08-21T08:55:38Z</time>
      </trkpt>
      <trkpt lat="44.4428" lon="6.90686">
        <ele>2335</ele>
        <time>2013-08-21T08:55:43Z</time>
      </trkpt>
      <trkpt lat="44.44273" lon="6.90689">
        <ele>2333</ele>
        <time>2013-08-21T08:56:50Z</time>
      </trkpt>
      <trkpt lat="44.44271" lon="6.9071">
        <ele>2333</ele>
        <time>2013-08-21T08:57:46Z</time>
      </trkpt>
      <trkpt lat="44.4426" lon="6.90734">
        <ele>2332</ele>
        <time>2013-08-21T08:57:53Z</time>
      </trkpt>
      <trkpt lat="44.44257" lon="6.90753">
        <ele>2333</ele>
        <time>2013-08-21T08:58:11Z</time>
      </trkpt>
      <trkpt lat="44.4425" lon="6.90803">
        <ele>2331</ele>
        <time>2013-08-21T08:58:21Z</time>
      </trkpt>
      <trkpt lat="44.44234" lon="6.90851">
        <ele>2330</ele>
        <time>2013-08-21T08:58:32Z</time>
      </trkpt>
      <trkpt lat="44.44225" lon="6.90889">
        <ele>2329</ele>
        <time>2013-08-21T08:58:43Z</time>
      </trkpt>
      <trkpt lat="44.44215" lon="6.90908">
        <ele>2329</ele>
        <time>2013-08-21T08:58:51Z</time>
      </trkpt>
      <trkpt lat="44.44203" lon="6.90939">
        <ele>2330</ele>
        <time>2013-08-21T08:59:05Z</time>
      </trkpt>
      <trkpt lat="44.44195" lon="6.90984">
        <ele>2332</ele>
        <time>2013-08-21T08:59:19Z</time>
      </trkpt>
      <trkpt lat="44.44181" lon="6.91022">
        <ele>2334</ele>
        <time>2013-08-21T08:59:35Z</time>
      </trkpt>
      <trkpt lat="44.4417" lon="6.91047">
        <ele>2336</ele>
        <time>2013-08-21T08:59:48Z</time>
      </trkpt>
      <trkpt lat="44.44153" lon="6.91077">
        <ele>2338</ele>
        <time>2013-08-21T09:00:02Z</time>
      </trkpt>
      <trkpt lat="44.44141" lon="6.91093">
        <ele>2339</ele>
        <time>2013-08-21T09:00:11Z</time>
      </trkpt>
      <trkpt lat="44.44127" lon="6.91121">
        <ele>2341</ele>
        <time>2013-08-21T09:00:23Z</time>
      </trkpt>
      <trkpt lat="44.44111" lon="6.91155">
        <ele>2343</ele>
        <time>2013-08-21T09:00:36Z</time>
      </trkpt>
      <trkpt lat="44.44095" lon="6.91195">
        <ele>2342</ele>
        <time>2013-08-21T09:00:43Z</time>
      </trkpt>
      <trkpt lat="44.44079" lon="6.91215">
        <ele>2341</ele>
        <time>2013-08-21T09:00:48Z</time>
      </trkpt>
      <trkpt lat="44.44042" lon="6.91243">
        <ele>2340</ele>
        <time>2013-08-21T09:01:02Z</time>
      </trkpt>
      <trkpt lat="44.44024" lon="6.9127">
        <ele>2341</ele>
        <time>2013-08-21T09:01:13Z</time>
      </trkpt>
      <trkpt lat="44.4401" lon="6.91281">
        <ele>2342</ele>
        <time>2013-08-21T09:01:20Z</time>
      </trkpt>
      <trkpt lat="44.43989" lon="6.91302">
        <ele>2344</ele>
        <time>2013-08-21T09:01:35Z</time>
      </trkpt>
      <trkpt lat="44.43972" lon="6.91315">
        <ele>2346</ele>
        <time>2013-08-21T09:01:48Z</time>
      </trkpt>
      <trkpt lat="44.4395" lon="6.91342">
        <ele>2347</ele>
        <time>2013-08-21T09:02:00Z</time>
      </trkpt>
      <trkpt lat="44.43931" lon="6.91366">
        <ele>2349</ele>
        <time>2013-08-21T09:02:11Z</time>
      </trkpt>
      <trkpt lat="44.43924" lon="6.91399">
        <ele>2351</ele>
        <time>2013-08-21T09:02:24Z</time>
      </trkpt>
      <trkpt lat="44.43913" lon="6.91425">
        <ele>2352</ele>
        <time>2013-08-21T09:02:33Z</time>
      </trkpt>
      <trkpt lat="44.43894" lon="6.91441">
        <ele>2356</ele>
        <time>2013-08-21T09:02:45Z</time>
      </trkpt>
      <trkpt lat="44.43881" lon="6.91461">
        <ele>2358</ele>
        <time>2013-08-21T09:03:00Z</time>
      </trkpt>
      <trkpt lat="44.43871" lon="6.91484">
        <ele>2361</ele>
        <time>2013-08-21T09:03:17Z</time>
      </trkpt>
      <trkpt lat="44.4386" lon="6.91507">
        <ele>2365</ele>
        <time>2013-08-21T09:03:35Z</time>
      </trkpt>
      <trkpt lat="44.43848" lon="6.91524">
        <ele>2368</ele>
        <time>2013-08-21T09:03:49Z</time>
      </trkpt>
      <trkpt lat="44.43836" lon="6.91544">
        <ele>2371</ele>
        <time>2013-08-21T09:04:04Z</time>
      </trkpt>
      <trkpt lat="44.4383" lon="6.91571">
        <ele>2372</ele>
        <time>2013-08-21T09:04:14Z</time>
      </trkpt>
      <trkpt lat="44.43825" lon="6.91585">
        <ele>2372</ele>
        <time>2013-08-21T09:04:20Z</time>
      </trkpt>
      <trkpt lat="44.43811" lon="6.91608">
        <ele>2374</ele>
        <time>2013-08-21T09:04:32Z</time>
      </trkpt>
      <trkpt lat="44.43796" lon="6.91621">
        <ele>2376</ele>
        <time>2013-08-21T09:04:44Z</time>
      </trkpt>
      <trkpt lat="44.43776" lon="6.91648">
        <ele>2378</ele>
        <time>2013-08-21T09:04:59Z</time>
      </trkpt>
      <trkpt lat="44.43755" lon="6.91675">
        <ele>2380</ele>
        <time>2013-08-21T09:05:14Z</time>
      </trkpt>
      <trkpt lat="44.43731" lon="6.91701">
        <ele>2383</ele>
        <time>2013-08-21T09:05:33Z</time>
      </trkpt>
      <trkpt lat="44.43719" lon="6.91706">
        <ele>2384</ele>
        <time>2013-08-21T09:05:42Z</time>
      </trkpt>
      <trkpt lat="44.43694" lon="6.91723">
        <ele>2386</ele>
        <time>2013-08-21T09:05:58Z</time>
      </trkpt>
      <trkpt lat="44.4368" lon="6.91734">
        <ele>2386</ele>
        <time>2013-08-21T09:06:05Z</time>
      </trkpt>
      <trkpt lat="44.43667" lon="6.91739">
        <ele>2388</ele>
        <time>2013-08-21T09:06:25Z</time>
      </trkpt>
      <trkpt lat="44.43658" lon="6.91746">
        <ele>2390</ele>
        <time>2013-08-21T09:06:39Z</time>
      </trkpt>
      <trkpt lat="44.43641" lon="6.91759">
        <ele>2391</ele>
        <time>2013-08-21T09:07:01Z</time>
      </trkpt>
      <trkpt lat="44.43619" lon="6.91768">
        <ele>2394</ele>
        <time>2013-08-21T09:07:16Z</time>
      </trkpt>
      <trkpt lat="44.43607" lon="6.91775">
        <ele>2396</ele>
        <time>2013-08-21T09:07:25Z</time>
      </trkpt>
      <trkpt lat="44.43594" lon="6.91784">
        <ele>2398</ele>
        <time>2013-08-21T09:07:34Z</time>
      </trkpt>
      <trkpt lat="44.43568" lon="6.918">
        <ele>2400</ele>
        <time>2013-08-21T09:07:52Z</time>
      </trkpt>
      <trkpt lat="44.43553" lon="6.9181">
        <ele>2402</ele>
        <time>2013-08-21T09:08:03Z</time>
      </trkpt>
      <trkpt lat="44.43537" lon="6.91819">
        <ele>2406</ele>
        <time>2013-08-21T09:08:16Z</time>
      </trkpt>
      <trkpt lat="44.43518" lon="6.91835">
        <ele>2407</ele>
        <time>2013-08-21T09:08:30Z</time>
      </trkpt>
      <trkpt lat="44.43493" lon="6.91866">
        <ele>2410</ele>
        <time>2013-08-21T09:08:49Z</time>
      </trkpt>
      <trkpt lat="44.43475" lon="6.91889">
        <ele>2411</ele>
        <time>2013-08-21T09:09:02Z</time>
      </trkpt>
      <trkpt lat="44.43465" lon="6.91915">
        <ele>2413</ele>
        <time>2013-08-21T09:09:16Z</time>
      </trkpt>
      <trkpt lat="44.43448" lon="6.91946">
        <ele>2415</ele>
        <time>2013-08-21T09:09:33Z</time>
      </trkpt>
      <trkpt lat="44.43437" lon="6.91968">
        <ele>2417</ele>
        <time>2013-08-21T09:09:45Z</time>
      </trkpt>
      <trkpt lat="44.43428" lon="6.91991">
        <ele>2418</ele>
        <time>2013-08-21T09:09:57Z</time>
      </trkpt>
      <trkpt lat="44.43421" lon="6.92005">
        <ele>2419</ele>
        <time>2013-08-21T09:10:06Z</time>
      </trkpt>
      <trkpt lat="44.4341" lon="6.92038">
        <ele>2421</ele>
        <time>2013-08-21T09:10:22Z</time>
      </trkpt>
      <trkpt lat="44.43398" lon="6.92073">
        <ele>2422</ele>
        <time>2013-08-21T09:10:35Z</time>
      </trkpt>
      <trkpt lat="44.43373" lon="6.92094">
        <ele>2422</ele>
        <time>2013-08-21T09:10:47Z</time>
      </trkpt>
      <trkpt lat="44.4335" lon="6.92127">
        <ele>2421</ele>
        <time>2013-08-21T09:10:54Z</time>
      </trkpt>
      <trkpt lat="44.43336" lon="6.92145">
        <ele>2421</ele>
        <time>2013-08-21T09:10:57Z</time>
      </trkpt>
      <trkpt lat="44.4332" lon="6.92176">
        <ele>2419</ele>
        <time>2013-08-21T09:11:03Z</time>
      </trkpt>
      <trkpt lat="44.43305" lon="6.92207">
        <ele>2418</ele>
        <time>2013-08-21T09:11:17Z</time>
      </trkpt>
      <trkpt lat="44.43293" lon="6.92228">
        <ele>2418</ele>
        <time>2013-08-21T09:11:30Z</time>
      </trkpt>
      <trkpt lat="44.43286" lon="6.92238">
        <ele>2418</ele>
        <time>2013-08-21T09:11:38Z</time>
      </trkpt>
      <trkpt lat="44.43272" lon="6.92254">
        <ele>2418</ele>
        <time>2013-08-21T09:11:51Z</time>
      </trkpt>
      <trkpt lat="44.4326" lon="6.92265">
        <ele>2419</ele>
        <time>2013-08-21T09:12:01Z</time>
      </trkpt>
      <trkpt lat="44.43233" lon="6.92289">
        <ele>2419</ele>
        <time>2013-08-21T09:12:17Z</time>
      </trkpt>
      <trkpt lat="44.43216" lon="6.92314">
        <ele>2420</ele>
        <time>2013-08-21T09:12:30Z</time>
      </trkpt>
      <trkpt lat="44.43195" lon="6.92327">
        <ele>2421</ele>
        <time>2013-08-21T09:12:41Z</time>
      </trkpt>
      <trkpt lat="44.43178" lon="6.92352">
        <ele>2420</ele>
        <time>2013-08-21T09:12:53Z</time>
      </trkpt>
      <trkpt lat="44.43167" lon="6.92362">
        <ele>2420</ele>
        <time>2013-08-21T09:13:00Z</time>
      </trkpt>
      <trkpt lat="44.43155" lon="6.92381">
        <ele>2421</ele>
        <time>2013-08-21T09:13:07Z</time>
      </trkpt>
      <trkpt lat="44.43135" lon="6.92408">
        <ele>2419</ele>
        <time>2013-08-21T09:13:20Z</time>
      </trkpt>
      <trkpt lat="44.43112" lon="6.92427">
        <ele>2420</ele>
        <time>2013-08-21T09:13:33Z</time>
      </trkpt>
      <trkpt lat="44.43101" lon="6.92435">
        <ele>2420</ele>
        <time>2013-08-21T09:13:52Z</time>
      </trkpt>
      <trkpt lat="44.43083" lon="6.92458">
        <ele>2420</ele>
        <time>2013-08-21T09:13:57Z</time>
      </trkpt>
      <trkpt lat="44.43043" lon="6.92475">
        <ele>2418</ele>
        <time>2013-08-21T09:14:09Z</time>
      </trkpt>
      <trkpt lat="44.43005" lon="6.92485">
        <ele>2418</ele>
        <time>2013-08-21T09:14:24Z</time>
      </trkpt>
      <trkpt lat="44.42963" lon="6.92508">
        <ele>2420</ele>
        <time>2013-08-21T09:14:41Z</time>
      </trkpt>
      <trkpt lat="44.42932" lon="6.92526">
        <ele>2421</ele>
        <time>2013-08-21T09:14:58Z</time>
      </trkpt>
      <trkpt lat="44.42902" lon="6.92544">
        <ele>2423</ele>
        <time>2013-08-21T09:15:15Z</time>
      </trkpt>
      <trkpt lat="44.42872" lon="6.9256">
        <ele>2424</ele>
        <time>2013-08-21T09:15:31Z</time>
      </trkpt>
      <trkpt lat="44.4285" lon="6.92575">
        <ele>2426</ele>
        <time>2013-08-21T09:15:47Z</time>
      </trkpt>
      <trkpt lat="44.42839" lon="6.9258">
        <ele>2427</ele>
        <time>2013-08-21T09:15:58Z</time>
      </trkpt>
      <trkpt lat="44.42829" lon="6.92585">
        <ele>2429</ele>
        <time>2013-08-21T09:16:12Z</time>
      </trkpt>
      <trkpt lat="44.42823" lon="6.92585">
        <ele>2431</ele>
        <time>2013-08-21T09:16:21Z</time>
      </trkpt>
      <trkpt lat="44.42813" lon="6.92593">
        <ele>2433</ele>
        <time>2013-08-21T09:16:38Z</time>
      </trkpt>
      <trkpt lat="44.42808" lon="6.92603">
        <ele>2436</ele>
        <time>2013-08-21T09:16:53Z</time>
      </trkpt>
      <trkpt lat="44.42804" lon="6.92608">
        <ele>2437</ele>
        <time>2013-08-21T09:17:00Z</time>
      </trkpt>
      <trkpt lat="44.42795" lon="6.92617">
        <ele>2441</ele>
        <time>2013-08-21T09:17:16Z</time>
      </trkpt>
      <trkpt lat="44.42786" lon="6.92625">
        <ele>2443</ele>
        <time>2013-08-21T09:17:32Z</time>
      </trkpt>
      <trkpt lat="44.42776" lon="6.92633">
        <ele>2446</ele>
        <time>2013-08-21T09:17:50Z</time>
      </trkpt>
      <trkpt lat="44.42771" lon="6.92641">
        <ele>2448</ele>
        <time>2013-08-21T09:18:01Z</time>
      </trkpt>
      <trkpt lat="44.42767" lon="6.92657">
        <ele>2451</ele>
        <time>2013-08-21T09:18:19Z</time>
      </trkpt>
      <trkpt lat="44.42765" lon="6.92671">
        <ele>2453</ele>
        <time>2013-08-21T09:18:34Z</time>
      </trkpt>
      <trkpt lat="44.42763" lon="6.92678">
        <ele>2455</ele>
        <time>2013-08-21T09:18:45Z</time>
      </trkpt>
      <trkpt lat="44.42756" lon="6.9268">
        <ele>2458</ele>
        <time>2013-08-21T09:19:00Z</time>
      </trkpt>
      <trkpt lat="44.42752" lon="6.9268">
        <ele>2459</ele>
        <time>2013-08-21T09:19:10Z</time>
      </trkpt>
      <trkpt lat="44.42751" lon="6.92695">
        <ele>2460</ele>
        <time>2013-08-21T09:19:26Z</time>
      </trkpt>
      <trkpt lat="44.42749" lon="6.92715">
        <ele>2463</ele>
        <time>2013-08-21T09:19:46Z</time>
      </trkpt>
      <trkpt lat="44.42748" lon="6.92729">
        <ele>2465</ele>
        <time>2013-08-21T09:20:01Z</time>
      </trkpt>
      <trkpt lat="44.42753" lon="6.92742">
        <ele>2468</ele>
        <time>2013-08-21T09:20:18Z</time>
      </trkpt>
      <trkpt lat="44.42756" lon="6.9275">
        <ele>2469</ele>
        <time>2013-08-21T09:20:31Z</time>
      </trkpt>
      <trkpt lat="44.42761" lon="6.92772">
        <ele>2471</ele>
        <time>2013-08-21T09:20:44Z</time>
      </trkpt>
      <trkpt lat="44.42761" lon="6.92799">
        <ele>2473</ele>
        <time>2013-08-21T09:20:59Z</time>
      </trkpt>
      <trkpt lat="44.4275" lon="6.9283">
        <ele>2474</ele>
        <time>2013-08-21T09:21:16Z</time>
      </trkpt>
      <trkpt lat="44.42736" lon="6.92862">
        <ele>2476</ele>
        <time>2013-08-21T09:21:34Z</time>
      </trkpt>
      <trkpt lat="44.42721" lon="6.92898">
        <ele>2478</ele>
        <time>2013-08-21T09:21:53Z</time>
      </trkpt>
      <trkpt lat="44.42707" lon="6.92938">
        <ele>2479</ele>
        <time>2013-08-21T09:22:10Z</time>
      </trkpt>
      <trkpt lat="44.42689" lon="6.92982">
        <ele>2481</ele>
        <time>2013-08-21T09:22:29Z</time>
      </trkpt>
      <trkpt lat="44.42672" lon="6.93021">
        <ele>2484</ele>
        <time>2013-08-21T09:22:48Z</time>
      </trkpt>
      <trkpt lat="44.42655" lon="6.93056">
        <ele>2488</ele>
        <time>2013-08-21T09:23:07Z</time>
      </trkpt>
      <trkpt lat="44.42642" lon="6.93087">
        <ele>2491</ele>
        <time>2013-08-21T09:23:25Z</time>
      </trkpt>
      <trkpt lat="44.42628" lon="6.93114">
        <ele>2494</ele>
        <time>2013-08-21T09:23:38Z</time>
      </trkpt>
      <trkpt lat="44.42618" lon="6.9315">
        <ele>2496</ele>
        <time>2013-08-21T09:23:49Z</time>
      </trkpt>
      <trkpt lat="44.42612" lon="6.93185">
        <ele>2498</ele>
        <time>2013-08-21T09:24:02Z</time>
      </trkpt>
      <trkpt lat="44.42602" lon="6.93227">
        <ele>2500</ele>
        <time>2013-08-21T09:24:18Z</time>
      </trkpt>
      <trkpt lat="44.42609" lon="6.93274">
        <ele>2500</ele>
        <time>2013-08-21T09:24:33Z</time>
      </trkpt>
      <trkpt lat="44.42623" lon="6.93302">
        <ele>2502</ele>
        <time>2013-08-21T09:24:46Z</time>
      </trkpt>
      <trkpt lat="44.42633" lon="6.93333">
        <ele>2502</ele>
        <time>2013-08-21T09:24:56Z</time>
      </trkpt>
      <trkpt lat="44.42629" lon="6.93353">
        <ele>2503</ele>
        <time>2013-08-21T09:25:05Z</time>
      </trkpt>
      <trkpt lat="44.42614" lon="6.93362">
        <ele>2503</ele>
        <time>2013-08-21T09:25:12Z</time>
      </trkpt>
      <trkpt lat="44.42583" lon="6.93357">
        <ele>2502</ele>
        <time>2013-08-21T09:25:25Z</time>
      </trkpt>
      <trkpt lat="44.42575" lon="6.93352">
        <ele>2504</ele>
        <time>2013-08-21T09:25:32Z</time>
      </trkpt>
      <trkpt lat="44.42547" lon="6.93384">
        <ele>2505</ele>
        <time>2013-08-21T09:25:47Z</time>
      </trkpt>
      <trkpt lat="44.42531" lon="6.93408">
        <ele>2506</ele>
        <time>2013-08-21T09:26:02Z</time>
      </trkpt>
      <trkpt lat="44.4252" lon="6.93428">
        <ele>2507</ele>
        <time>2013-08-21T09:26:14Z</time>
      </trkpt>
      <trkpt lat="44.42519" lon="6.93436">
        <ele>2506</ele>
        <time>2013-08-21T09:26:20Z</time>
      </trkpt>
      <trkpt lat="44.42511" lon="6.93433">
        <ele>2504</ele>
        <time>2013-08-21T09:31:08Z</time>
      </trkpt>
      <trkpt lat="44.42522" lon="6.93438">
        <ele>2505</ele>
        <time>2013-08-21T09:31:36Z</time>
      </trkpt>
      <trkpt lat="44.42531" lon="6.93439">
        <ele>2506</ele>
        <time>2013-08-21T09:31:46Z</time>
      </trkpt>
      <trkpt lat="44.4256" lon="6.93475">
        <ele>2500</ele>
        <time>2013-08-21T09:31:56Z</time>
      </trkpt>
      <trkpt lat="44.42587" lon="6.93494">
        <ele>2495</ele>
        <time>2013-08-21T09:32:06Z</time>
      </trkpt>
      <trkpt lat="44.4259" lon="6.93515">
        <ele>2494</ele>
        <time>2013-08-21T09:32:14Z</time>
      </trkpt>
      <trkpt lat="44.42576" lon="6.93527">
        <ele>2492</ele>
        <time>2013-08-21T09:32:24Z</time>
      </trkpt>
      <trkpt lat="44.42565" lon="6.93532">
        <ele>2491</ele>
        <time>2013-08-21T09:32:29Z</time>
      </trkpt>
      <trkpt lat="44.42546" lon="6.93545">
        <ele>2487</ele>
        <time>2013-08-21T09:32:39Z</time>
      </trkpt>
      <trkpt lat="44.42534" lon="6.9356">
        <ele>2485</ele>
        <time>2013-08-21T09:32:45Z</time>
      </trkpt>
      <trkpt lat="44.42525" lon="6.93572">
        <ele>2482</ele>
        <time>2013-08-21T09:32:48Z</time>
      </trkpt>
      <trkpt lat="44.42506" lon="6.936">
        <ele>2477</ele>
        <time>2013-08-21T09:32:54Z</time>
      </trkpt>
      <trkpt lat="44.42517" lon="6.93605">
        <ele>2472</ele>
        <time>2013-08-21T09:32:59Z</time>
      </trkpt>
      <trkpt lat="44.4252" lon="6.93617">
        <ele>2467</ele>
        <time>2013-08-21T09:33:06Z</time>
      </trkpt>
      <trkpt lat="44.42503" lon="6.93636">
        <ele>2464</ele>
        <time>2013-08-21T09:34:25Z</time>
      </trkpt>
      <trkpt lat="44.42481" lon="6.93651">
        <ele>2461</ele>
        <time>2013-08-21T09:34:32Z</time>
      </trkpt>
      <trkpt lat="44.42459" lon="6.93659">
        <ele>2454</ele>
        <time>2013-08-21T09:34:41Z</time>
      </trkpt>
      <trkpt lat="44.42453" lon="6.93669">
        <ele>2450</ele>
        <time>2013-08-21T09:34:46Z</time>
      </trkpt>
      <trkpt lat="44.42425" lon="6.93706">
        <ele>2438</ele>
        <time>2013-08-21T09:34:57Z</time>
      </trkpt>
      <trkpt lat="44.42418" lon="6.93712">
        <ele>2436</ele>
        <time>2013-08-21T09:35:00Z</time>
      </trkpt>
      <trkpt lat="44.424" lon="6.93692">
        <ele>2433</ele>
        <time>2013-08-21T09:35:08Z</time>
      </trkpt>
      <trkpt lat="44.42395" lon="6.93681">
        <ele>2433</ele>
        <time>2013-08-21T09:35:15Z</time>
      </trkpt>
      <trkpt lat="44.42383" lon="6.93662">
        <ele>2432</ele>
        <time>2013-08-21T09:35:41Z</time>
      </trkpt>
      <trkpt lat="44.42365" lon="6.93625">
        <ele>2432</ele>
        <time>2013-08-21T09:35:55Z</time>
      </trkpt>
      <trkpt lat="44.42356" lon="6.93612">
        <ele>2432</ele>
        <time>2013-08-21T09:36:02Z</time>
      </trkpt>
      <trkpt lat="44.42335" lon="6.93604">
        <ele>2432</ele>
        <time>2013-08-21T09:36:14Z</time>
      </trkpt>
      <trkpt lat="44.42325" lon="6.93604">
        <ele>2432</ele>
        <time>2013-08-21T09:36:21Z</time>
      </trkpt>
      <trkpt lat="44.42325" lon="6.93595">
        <ele>2434</ele>
        <time>2013-08-21T10:03:03Z</time>
      </trkpt>
      <trkpt lat="44.42307" lon="6.93585">
        <ele>2436</ele>
        <time>2013-08-21T10:03:12Z</time>
      </trkpt>
      <trkpt lat="44.4227" lon="6.93601">
        <ele>2435</ele>
        <time>2013-08-21T10:03:25Z</time>
      </trkpt>
      <trkpt lat="44.42231" lon="6.93623">
        <ele>2435</ele>
        <time>2013-08-21T10:03:38Z</time>
      </trkpt>
      <trkpt lat="44.42209" lon="6.93633">
        <ele>2437</ele>
        <time>2013-08-21T10:03:47Z</time>
      </trkpt>
      <trkpt lat="44.42182" lon="6.93651">
        <ele>2438</ele>
        <time>2013-08-21T10:03:58Z</time>
      </trkpt>
      <trkpt lat="44.42164" lon="6.93667">
        <ele>2439</ele>
        <time>2013-08-21T10:04:09Z</time>
      </trkpt>
      <trkpt lat="44.42133" lon="6.93685">
        <ele>2440</ele>
        <time>2013-08-21T10:04:22Z</time>
      </trkpt>
      <trkpt lat="44.42104" lon="6.93704">
        <ele>2441</ele>
        <time>2013-08-21T10:04:34Z</time>
      </trkpt>
      <trkpt lat="44.42078" lon="6.93724">
        <ele>2439</ele>
        <time>2013-08-21T10:04:42Z</time>
      </trkpt>
      <trkpt lat="44.42042" lon="6.93757">
        <ele>2438</ele>
        <time>2013-08-21T10:04:54Z</time>
      </trkpt>
      <trkpt lat="44.42022" lon="6.93777">
        <ele>2437</ele>
        <time>2013-08-21T10:05:04Z</time>
      </trkpt>
      <trkpt lat="44.42028" lon="6.93779">
        <ele>2435</ele>
        <time>2013-08-21T10:09:21Z</time>
      </trkpt>
      <trkpt lat="44.42035" lon="6.93775">
        <ele>2435</ele>
        <time>2013-08-21T10:09:30Z</time>
      </trkpt>
      <trkpt lat="44.42048" lon="6.93771">
        <ele>2435</ele>
        <time>2013-08-21T10:09:55Z</time>
      </trkpt>
      <trkpt lat="44.42055" lon="6.93778">
        <ele>2437</ele>
        <time>2013-08-21T10:10:07Z</time>
      </trkpt>
      <trkpt lat="44.42054" lon="6.93778">
        <ele>2437</ele>
        <time>2013-08-21T10:10:26Z</time>
      </trkpt>
      <trkpt lat="44.42055" lon="6.93752">
        <ele>2436</ele>
        <time>2013-08-21T10:10:46Z</time>
      </trkpt>
      <trkpt lat="44.4207" lon="6.93738">
        <ele>2436</ele>
        <time>2013-08-21T10:10:54Z</time>
      </trkpt>
      <trkpt lat="44.42095" lon="6.9371">
        <ele>2438</ele>
        <time>2013-08-21T10:11:08Z</time>
      </trkpt>
      <trkpt lat="44.42122" lon="6.93695">
        <ele>2440</ele>
        <time>2013-08-21T10:11:21Z</time>
      </trkpt>
      <trkpt lat="44.42149" lon="6.93675">
        <ele>2439</ele>
        <time>2013-08-21T10:11:33Z</time>
      </trkpt>
      <trkpt lat="44.42183" lon="6.9365">
        <ele>2440</ele>
        <time>2013-08-21T10:11:45Z</time>
      </trkpt>
      <trkpt lat="44.42215" lon="6.9363">
        <ele>2437</ele>
        <time>2013-08-21T10:11:56Z</time>
      </trkpt>
      <trkpt lat="44.42236" lon="6.93615">
        <ele>2436</ele>
        <time>2013-08-21T10:12:03Z</time>
      </trkpt>
      <trkpt lat="44.4228" lon="6.93592">
        <ele>2434</ele>
        <time>2013-08-21T10:12:15Z</time>
      </trkpt>
      <trkpt lat="44.42309" lon="6.93583">
        <ele>2435</ele>
        <time>2013-08-21T10:12:26Z</time>
      </trkpt>
      <trkpt lat="44.42343" lon="6.93604">
        <ele>2434</ele>
        <time>2013-08-21T10:12:38Z</time>
      </trkpt>
      <trkpt lat="44.42361" lon="6.93616">
        <ele>2434</ele>
        <time>2013-08-21T10:12:45Z</time>
      </trkpt>
      <trkpt lat="44.42368" lon="6.93636">
        <ele>2434</ele>
        <time>2013-08-21T10:12:52Z</time>
      </trkpt>
      <trkpt lat="44.4239" lon="6.93675">
        <ele>2434</ele>
        <time>2013-08-21T10:13:07Z</time>
      </trkpt>
      <trkpt lat="44.42407" lon="6.937">
        <ele>2434</ele>
        <time>2013-08-21T10:13:17Z</time>
      </trkpt>
      <trkpt lat="44.4241" lon="6.93725">
        <ele>2433</ele>
        <time>2013-08-21T10:13:25Z</time>
      </trkpt>
      <trkpt lat="44.42418" lon="6.93757">
        <ele>2434</ele>
        <time>2013-08-21T10:13:36Z</time>
      </trkpt>
      <trkpt lat="44.42419" lon="6.93793">
        <ele>2433</ele>
        <time>2013-08-21T10:13:47Z</time>
      </trkpt>
      <trkpt lat="44.42406" lon="6.93802">
        <ele>2434</ele>
        <time>2013-08-21T10:13:54Z</time>
      </trkpt>
      <trkpt lat="44.42386" lon="6.93813">
        <ele>2434</ele>
        <time>2013-08-21T10:14:00Z</time>
      </trkpt>
      <trkpt lat="44.42366" lon="6.93819">
        <ele>2435</ele>
        <time>2013-08-21T10:14:07Z</time>
      </trkpt>
      <trkpt lat="44.42328" lon="6.93827">
        <ele>2437</ele>
        <time>2013-08-21T10:14:22Z</time>
      </trkpt>
      <trkpt lat="44.42288" lon="6.93826">
        <ele>2439</ele>
        <time>2013-08-21T10:14:37Z</time>
      </trkpt>
      <trkpt lat="44.42257" lon="6.9384">
        <ele>2440</ele>
        <time>2013-08-21T10:14:50Z</time>
      </trkpt>
      <trkpt lat="44.42242" lon="6.93869">
        <ele>2441</ele>
        <time>2013-08-21T10:15:02Z</time>
      </trkpt>
      <trkpt lat="44.4224" lon="6.93915">
        <ele>2441</ele>
        <time>2013-08-21T10:15:14Z</time>
      </trkpt>
      <trkpt lat="44.42259" lon="6.9395">
        <ele>2441</ele>
        <time>2013-08-21T10:15:26Z</time>
      </trkpt>
      <trkpt lat="44.42268" lon="6.9399">
        <ele>2441</ele>
        <time>2013-08-21T10:15:35Z</time>
      </trkpt>
      <trkpt lat="44.42266" lon="6.9403">
        <ele>2442</ele>
        <time>2013-08-21T10:15:43Z</time>
      </trkpt>
      <trkpt lat="44.42235" lon="6.94061">
        <ele>2441</ele>
        <time>2013-08-21T10:15:51Z</time>
      </trkpt>
      <trkpt lat="44.42196" lon="6.94083">
        <ele>2440</ele>
        <time>2013-08-21T10:16:01Z</time>
      </trkpt>
      <trkpt lat="44.42175" lon="6.94098">
        <ele>2440</ele>
        <time>2013-08-21T10:16:06Z</time>
      </trkpt>
      <trkpt lat="44.42137" lon="6.94114">
        <ele>2440</ele>
        <time>2013-08-21T10:16:17Z</time>
      </trkpt>
      <trkpt lat="44.42093" lon="6.94155">
        <ele>2439</ele>
        <time>2013-08-21T10:16:28Z</time>
      </trkpt>
      <trkpt lat="44.42077" lon="6.94157">
        <ele>2438</ele>
        <time>2013-08-21T10:16:31Z</time>
      </trkpt>
      <trkpt lat="44.42025" lon="6.94141">
        <ele>2437</ele>
        <time>2013-08-21T10:16:43Z</time>
      </trkpt>
      <trkpt lat="44.41982" lon="6.94141">
        <ele>2438</ele>
        <time>2013-08-21T10:16:53Z</time>
      </trkpt>
      <trkpt lat="44.41952" lon="6.94152">
        <ele>2442</ele>
        <time>2013-08-21T10:17:08Z</time>
      </trkpt>
      <trkpt lat="44.41941" lon="6.94157">
        <ele>2442</ele>
        <time>2013-08-21T10:17:17Z</time>
      </trkpt>
      <trkpt lat="44.41922" lon="6.94167">
        <ele>2442</ele>
        <time>2013-08-21T10:17:41Z</time>
      </trkpt>
      <trkpt lat="44.41907" lon="6.94179">
        <ele>2441</ele>
        <time>2013-08-21T10:17:50Z</time>
      </trkpt>
      <trkpt lat="44.41885" lon="6.9419">
        <ele>2440</ele>
        <time>2013-08-21T10:17:58Z</time>
      </trkpt>
      <trkpt lat="44.41863" lon="6.94201">
        <ele>2440</ele>
        <time>2013-08-21T10:18:02Z</time>
      </trkpt>
      <trkpt lat="44.41837" lon="6.9424">
        <ele>2437</ele>
        <time>2013-08-21T10:18:08Z</time>
      </trkpt>
      <trkpt lat="44.41822" lon="6.94276">
        <ele>2436</ele>
        <time>2013-08-21T10:18:17Z</time>
      </trkpt>
      <trkpt lat="44.41811" lon="6.9429">
        <ele>2436</ele>
        <time>2013-08-21T10:18:28Z</time>
      </trkpt>
      <trkpt lat="44.41807" lon="6.94294">
        <ele>2436</ele>
        <time>2013-08-21T10:18:36Z</time>
      </trkpt>
      <trkpt lat="44.41804" lon="6.94306">
        <ele>2437</ele>
        <time>2013-08-21T10:18:49Z</time>
      </trkpt>
      <trkpt lat="44.41793" lon="6.94317">
        <ele>2439</ele>
        <time>2013-08-21T10:19:05Z</time>
      </trkpt>
      <trkpt lat="44.41786" lon="6.94324">
        <ele>2439</ele>
        <time>2013-08-21T10:19:26Z</time>
      </trkpt>
      <trkpt lat="44.41775" lon="6.94341">
        <ele>2439</ele>
        <time>2013-08-21T10:19:33Z</time>
      </trkpt>
      <trkpt lat="44.41762" lon="6.94349">
        <ele>2440</ele>
        <time>2013-08-21T10:19:41Z</time>
      </trkpt>
      <trkpt lat="44.4175" lon="6.94359">
        <ele>2440</ele>
        <time>2013-08-21T10:19:48Z</time>
      </trkpt>
      <trkpt lat="44.4175" lon="6.94357">
        <ele>2439</ele>
        <time>2013-08-21T10:22:02Z</time>
      </trkpt>
      <trkpt lat="44.41731" lon="6.94357">
        <ele>2435</ele>
        <time>2013-08-21T10:22:23Z</time>
      </trkpt>
      <trkpt lat="44.41718" lon="6.94368">
        <ele>2431</ele>
        <time>2013-08-21T10:22:30Z</time>
      </trkpt>
      <trkpt lat="44.4171" lon="6.94376">
        <ele>2429</ele>
        <time>2013-08-21T10:22:35Z</time>
      </trkpt>
      <trkpt lat="44.41694" lon="6.94387">
        <ele>2428</ele>
        <time>2013-08-21T10:22:41Z</time>
      </trkpt>
      <trkpt lat="44.41661" lon="6.94397">
        <ele>2424</ele>
        <time>2013-08-21T10:22:52Z</time>
      </trkpt>
      <trkpt lat="44.41642" lon="6.94408">
        <ele>2420</ele>
        <time>2013-08-21T10:22:58Z</time>
      </trkpt>
      <trkpt lat="44.41629" lon="6.94411">
        <ele>2418</ele>
        <time>2013-08-21T10:23:05Z</time>
      </trkpt>
      <trkpt lat="44.41612" lon="6.94425">
        <ele>2414</ele>
        <time>2013-08-21T10:23:16Z</time>
      </trkpt>
      <trkpt lat="44.41607" lon="6.9443">
        <ele>2411</ele>
        <time>2013-08-21T10:23:26Z</time>
      </trkpt>
      <trkpt lat="44.41601" lon="6.94439">
        <ele>2411</ele>
        <time>2013-08-21T10:24:39Z</time>
      </trkpt>
      <trkpt lat="44.41591" lon="6.94442">
        <ele>2409</ele>
        <time>2013-08-21T10:24:48Z</time>
      </trkpt>
      <trkpt lat="44.41585" lon="6.94449">
        <ele>2409</ele>
        <time>2013-08-21T10:24:55Z</time>
      </trkpt>
      <trkpt lat="44.41582" lon="6.94449">
        <ele>2409</ele>
        <time>2013-08-21T10:25:12Z</time>
      </trkpt>
      <trkpt lat="44.41574" lon="6.94449">
        <ele>2409</ele>
        <time>2013-08-21T10:25:27Z</time>
      </trkpt>
      <trkpt lat="44.41565" lon="6.94451">
        <ele>2407</ele>
        <time>2013-08-21T10:25:33Z</time>
      </trkpt>
      <trkpt lat="44.41558" lon="6.94459">
        <ele>2405</ele>
        <time>2013-08-21T10:25:40Z</time>
      </trkpt>
      <trkpt lat="44.41558" lon="6.94474">
        <ele>2404</ele>
        <time>2013-08-21T10:26:58Z</time>
      </trkpt>
      <trkpt lat="44.41543" lon="6.94499">
        <ele>2402</ele>
        <time>2013-08-21T10:27:06Z</time>
      </trkpt>
      <trkpt lat="44.41539" lon="6.94508">
        <ele>2399</ele>
        <time>2013-08-21T10:27:25Z</time>
      </trkpt>
      <trkpt lat="44.41534" lon="6.9452">
        <ele>2397</ele>
        <time>2013-08-21T10:27:31Z</time>
      </trkpt>
      <trkpt lat="44.41534" lon="6.94547">
        <ele>2389</ele>
        <time>2013-08-21T10:27:44Z</time>
      </trkpt>
      <trkpt lat="44.41527" lon="6.94559">
        <ele>2385</ele>
        <time>2013-08-21T10:27:52Z</time>
      </trkpt>
      <trkpt lat="44.41526" lon="6.94564">
        <ele>2382</ele>
        <time>2013-08-21T10:27:59Z</time>
      </trkpt>
      <trkpt lat="44.41527" lon="6.94563">
        <ele>2381</ele>
        <time>2013-08-21T10:29:07Z</time>
      </trkpt>
      <trkpt lat="44.41547" lon="6.94568">
        <ele>2381</ele>
        <time>2013-08-21T10:29:21Z</time>
      </trkpt>
      <trkpt lat="44.41557" lon="6.94582">
        <ele>2379</ele>
        <time>2013-08-21T10:29:33Z</time>
      </trkpt>
      <trkpt lat="44.41551" lon="6.94596">
        <ele>2377</ele>
        <time>2013-08-21T10:29:47Z</time>
      </trkpt>
      <trkpt lat="44.41546" lon="6.94591">
        <ele>2374</ele>
        <time>2013-08-21T10:29:51Z</time>
      </trkpt>
      <trkpt lat="44.41531" lon="6.94631">
        <ele>2369</ele>
        <time>2013-08-21T10:29:59Z</time>
      </trkpt>
      <trkpt lat="44.41498" lon="6.94679">
        <ele>2358</ele>
        <time>2013-08-21T10:30:07Z</time>
      </trkpt>
      <trkpt lat="44.4148" lon="6.94669">
        <ele>2355</ele>
        <time>2013-08-21T10:30:13Z</time>
      </trkpt>
      <trkpt lat="44.41479" lon="6.94664">
        <ele>2354</ele>
        <time>2013-08-21T10:30:19Z</time>
      </trkpt>
      <trkpt lat="44.41467" lon="6.9466">
        <ele>2352</ele>
        <time>2013-08-21T10:30:28Z</time>
      </trkpt>
      <trkpt lat="44.41428" lon="6.94646">
        <ele>2343</ele>
        <time>2013-08-21T10:30:37Z</time>
      </trkpt>
      <trkpt lat="44.41403" lon="6.94626">
        <ele>2338</ele>
        <time>2013-08-21T10:30:42Z</time>
      </trkpt>
      <trkpt lat="44.4138" lon="6.94626">
        <ele>2335</ele>
        <time>2013-08-21T10:30:47Z</time>
      </trkpt>
      <trkpt lat="44.41359" lon="6.94638">
        <ele>2335</ele>
        <time>2013-08-21T10:30:57Z</time>
      </trkpt>
      <trkpt lat="44.41331" lon="6.94652">
        <ele>2336</ele>
        <time>2013-08-21T10:31:11Z</time>
      </trkpt>
      <trkpt lat="44.41301" lon="6.94665">
        <ele>2337</ele>
        <time>2013-08-21T10:31:25Z</time>
      </trkpt>
      <trkpt lat="44.41266" lon="6.94675">
        <ele>2337</ele>
        <time>2013-08-21T10:31:38Z</time>
      </trkpt>
      <trkpt lat="44.41237" lon="6.94684">
        <ele>2341</ele>
        <time>2013-08-21T10:31:51Z</time>
      </trkpt>
      <trkpt lat="44.41231" lon="6.94679">
        <ele>2342</ele>
        <time>2013-08-21T10:31:57Z</time>
      </trkpt>
      <trkpt lat="44.41202" lon="6.94702">
        <ele>2341</ele>
        <time>2013-08-21T10:32:24Z</time>
      </trkpt>
      <trkpt lat="44.41186" lon="6.9471">
        <ele>2338</ele>
        <time>2013-08-21T10:32:35Z</time>
      </trkpt>
      <trkpt lat="44.41177" lon="6.94716">
        <ele>2334</ele>
        <time>2013-08-21T10:32:42Z</time>
      </trkpt>
      <trkpt lat="44.4117" lon="6.94715">
        <ele>2331</ele>
        <time>2013-08-21T10:32:52Z</time>
      </trkpt>
      <trkpt lat="44.41158" lon="6.94721">
        <ele>2328</ele>
        <time>2013-08-21T10:33:04Z</time>
      </trkpt>
      <trkpt lat="44.41144" lon="6.94735">
        <ele>2323</ele>
        <time>2013-08-21T10:33:11Z</time>
      </trkpt>
      <trkpt lat="44.41126" lon="6.94758">
        <ele>2318</ele>
        <time>2013-08-21T10:33:18Z</time>
      </trkpt>
      <trkpt lat="44.41102" lon="6.948">
        <ele>2309</ele>
        <time>2013-08-21T10:33:29Z</time>
      </trkpt>
      <trkpt lat="44.41075" lon="6.94809">
        <ele>2301</ele>
        <time>2013-08-21T10:33:37Z</time>
      </trkpt>
      <trkpt lat="44.4107" lon="6.9479">
        <ele>2297</ele>
        <time>2013-08-21T10:33:42Z</time>
      </trkpt>
      <trkpt lat="44.41056" lon="6.94788">
        <ele>2292</ele>
        <time>2013-08-21T10:33:49Z</time>
      </trkpt>
      <trkpt lat="44.41042" lon="6.9478">
        <ele>2285</ele>
        <time>2013-08-21T10:34:00Z</time>
      </trkpt>
      <trkpt lat="44.41033" lon="6.94764">
        <ele>2280</ele>
        <time>2013-08-21T10:34:09Z</time>
      </trkpt>
      <trkpt lat="44.41024" lon="6.9475">
        <ele>2275</ele>
        <time>2013-08-21T10:34:16Z</time>
      </trkpt>
      <trkpt lat="44.41025" lon="6.94721">
        <ele>2267</ele>
        <time>2013-08-21T10:34:25Z</time>
      </trkpt>
      <trkpt lat="44.41039" lon="6.94691">
        <ele>2264</ele>
        <time>2013-08-21T10:34:36Z</time>
      </trkpt>
      <trkpt lat="44.41055" lon="6.94663">
        <ele>2264</ele>
        <time>2013-08-21T10:34:46Z</time>
      </trkpt>
      <trkpt lat="44.41051" lon="6.94657">
        <ele>2261</ele>
        <time>2013-08-21T10:34:51Z</time>
      </trkpt>
      <trkpt lat="44.41043" lon="6.94666">
        <ele>2259</ele>
        <time>2013-08-21T10:34:56Z</time>
      </trkpt>
      <trkpt lat="44.41027" lon="6.94666">
        <ele>2256</ele>
        <time>2013-08-21T10:35:39Z</time>
      </trkpt>
      <trkpt lat="44.41017" lon="6.94651">
        <ele>2251</ele>
        <time>2013-08-21T10:35:46Z</time>
      </trkpt>
      <trkpt lat="44.41038" lon="6.94625">
        <ele>2245</ele>
        <time>2013-08-21T10:35:53Z</time>
      </trkpt>
      <trkpt lat="44.41045" lon="6.94588">
        <ele>2238</ele>
        <time>2013-08-21T10:36:02Z</time>
      </trkpt>
      <trkpt lat="44.41048" lon="6.94571">
        <ele>2230</ele>
        <time>2013-08-21T10:36:11Z</time>
      </trkpt>
      <trkpt lat="44.41048" lon="6.9457">
        <ele>2227</ele>
        <time>2013-08-21T10:37:57Z</time>
      </trkpt>
      <trkpt lat="44.41066" lon="6.94536">
        <ele>2222</ele>
        <time>2013-08-21T10:38:12Z</time>
      </trkpt>
      <trkpt lat="44.4108" lon="6.94522">
        <ele>2220</ele>
        <time>2013-08-21T10:38:20Z</time>
      </trkpt>
      <trkpt lat="44.4109" lon="6.94507">
        <ele>2219</ele>
        <time>2013-08-21T10:38:28Z</time>
      </trkpt>
      <trkpt lat="44.41116" lon="6.94473">
        <ele>2211</ele>
        <time>2013-08-21T10:38:36Z</time>
      </trkpt>
      <trkpt lat="44.41123" lon="6.94451">
        <ele>2206</ele>
        <time>2013-08-21T10:38:43Z</time>
      </trkpt>
      <trkpt lat="44.41111" lon="6.94438">
        <ele>2202</ele>
        <time>2013-08-21T10:38:50Z</time>
      </trkpt>
      <trkpt lat="44.41104" lon="6.94419">
        <ele>2196</ele>
        <time>2013-08-21T10:38:59Z</time>
      </trkpt>
      <trkpt lat="44.41107" lon="6.94395">
        <ele>2192</ele>
        <time>2013-08-21T10:39:05Z</time>
      </trkpt>
      <trkpt lat="44.41109" lon="6.94371">
        <ele>2190</ele>
        <time>2013-08-21T10:39:09Z</time>
      </trkpt>
      <trkpt lat="44.41104" lon="6.94349">
        <ele>2186</ele>
        <time>2013-08-21T10:39:15Z</time>
      </trkpt>
      <trkpt lat="44.411" lon="6.94316">
        <ele>2179</ele>
        <time>2013-08-21T10:39:23Z</time>
      </trkpt>
      <trkpt lat="44.41088" lon="6.94297">
        <ele>2176</ele>
        <time>2013-08-21T10:39:29Z</time>
      </trkpt>
      <trkpt lat="44.41087" lon="6.94292">
        <ele>2173</ele>
        <time>2013-08-21T10:39:39Z</time>
      </trkpt>
      <trkpt lat="44.41094" lon="6.94292">
        <ele>2173</ele>
        <time>2013-08-21T10:40:00Z</time>
      </trkpt>
      <trkpt lat="44.41088" lon="6.94271">
        <ele>2175</ele>
        <time>2013-08-21T10:40:15Z</time>
      </trkpt>
      <trkpt lat="44.41089" lon="6.94269">
        <ele>2176</ele>
        <time>2013-08-21T10:40:23Z</time>
      </trkpt>
      <trkpt lat="44.41086" lon="6.94266">
        <ele>2177</ele>
        <time>2013-08-21T10:41:37Z</time>
      </trkpt>
      <trkpt lat="44.41092" lon="6.94253">
        <ele>2179</ele>
        <time>2013-08-21T10:41:47Z</time>
      </trkpt>
      <trkpt lat="44.41101" lon="6.94229">
        <ele>2179</ele>
        <time>2013-08-21T10:41:59Z</time>
      </trkpt>
      <trkpt lat="44.41101" lon="6.9421">
        <ele>2176</ele>
        <time>2013-08-21T10:42:05Z</time>
      </trkpt>
      <trkpt lat="44.41089" lon="6.94189">
        <ele>2170</ele>
        <time>2013-08-21T10:42:15Z</time>
      </trkpt>
      <trkpt lat="44.41081" lon="6.9414">
        <ele>2163</ele>
        <time>2013-08-21T10:42:24Z</time>
      </trkpt>
      <trkpt lat="44.41083" lon="6.94113">
        <ele>2160</ele>
        <time>2013-08-21T10:42:28Z</time>
      </trkpt>
      <trkpt lat="44.41085" lon="6.94072">
        <ele>2155</ele>
        <time>2013-08-21T10:42:35Z</time>
      </trkpt>
      <trkpt lat="44.41096" lon="6.94031">
        <ele>2151</ele>
        <time>2013-08-21T10:42:43Z</time>
      </trkpt>
      <trkpt lat="44.41102" lon="6.93994">
        <ele>2149</ele>
        <time>2013-08-21T10:42:52Z</time>
      </trkpt>
      <trkpt lat="44.41103" lon="6.9397">
        <ele>2150</ele>
        <time>2013-08-21T10:43:02Z</time>
      </trkpt>
      <trkpt lat="44.41111" lon="6.93938">
        <ele>2151</ele>
        <time>2013-08-21T10:43:15Z</time>
      </trkpt>
      <trkpt lat="44.41113" lon="6.93915">
        <ele>2150</ele>
        <time>2013-08-21T10:43:21Z</time>
      </trkpt>
      <trkpt lat="44.41114" lon="6.93913">
        <ele>2150</ele>
        <time>2013-08-21T10:43:29Z</time>
      </trkpt>
      <trkpt lat="44.41115" lon="6.93894">
        <ele>2152</ele>
        <time>2013-08-21T10:43:51Z</time>
      </trkpt>
      <trkpt lat="44.41114" lon="6.93878">
        <ele>2155</ele>
        <time>2013-08-21T10:44:08Z</time>
      </trkpt>
      <trkpt lat="44.41112" lon="6.93861">
        <ele>2158</ele>
        <time>2013-08-21T10:44:26Z</time>
      </trkpt>
      <trkpt lat="44.41105" lon="6.93849">
        <ele>2160</ele>
        <time>2013-08-21T10:44:42Z</time>
      </trkpt>
      <trkpt lat="44.41094" lon="6.93841">
        <ele>2162</ele>
        <time>2013-08-21T10:44:56Z</time>
      </trkpt>
      <trkpt lat="44.41083" lon="6.93832">
        <ele>2164</ele>
        <time>2013-08-21T10:45:14Z</time>
      </trkpt>
      <trkpt lat="44.41072" lon="6.93817">
        <ele>2168</ele>
        <time>2013-08-21T10:45:33Z</time>
      </trkpt>
      <trkpt lat="44.41065" lon="6.9381">
        <ele>2169</ele>
        <time>2013-08-21T10:45:44Z</time>
      </trkpt>
      <trkpt lat="44.41058" lon="6.93809">
        <ele>2171</ele>
        <time>2013-08-21T10:45:55Z</time>
      </trkpt>
      <trkpt lat="44.41048" lon="6.93813">
        <ele>2173</ele>
        <time>2013-08-21T10:46:11Z</time>
      </trkpt>
      <trkpt lat="44.41045" lon="6.93807">
        <ele>2174</ele>
        <time>2013-08-21T10:46:19Z</time>
      </trkpt>
      <trkpt lat="44.41034" lon="6.93805">
        <ele>2174</ele>
        <time>2013-08-21T10:46:32Z</time>
      </trkpt>
      <trkpt lat="44.41016" lon="6.93808">
        <ele>2176</ele>
        <time>2013-08-21T10:46:46Z</time>
      </trkpt>
      <trkpt lat="44.41006" lon="6.93809">
        <ele>2178</ele>
        <time>2013-08-21T10:46:55Z</time>
      </trkpt>
      <trkpt lat="44.40981" lon="6.93799">
        <ele>2180</ele>
        <time>2013-08-21T10:47:14Z</time>
      </trkpt>
      <trkpt lat="44.40973" lon="6.93795">
        <ele>2181</ele>
        <time>2013-08-21T10:47:23Z</time>
      </trkpt>
      <trkpt lat="44.40961" lon="6.93787">
        <ele>2183</ele>
        <time>2013-08-21T10:47:34Z</time>
      </trkpt>
      <trkpt lat="44.40934" lon="6.93767">
        <ele>2182</ele>
        <time>2013-08-21T10:47:45Z</time>
      </trkpt>
      <trkpt lat="44.40914" lon="6.93754">
        <ele>2181</ele>
        <time>2013-08-21T10:47:51Z</time>
      </trkpt>
      <trkpt lat="44.40881" lon="6.93742">
        <ele>2179</ele>
        <time>2013-08-21T10:48:01Z</time>
      </trkpt>
      <trkpt lat="44.40853" lon="6.93731">
        <ele>2180</ele>
        <time>2013-08-21T10:48:16Z</time>
      </trkpt>
      <trkpt lat="44.4083" lon="6.9373">
        <ele>2181</ele>
        <time>2013-08-21T10:48:29Z</time>
      </trkpt>
      <trkpt lat="44.40806" lon="6.9373">
        <ele>2181</ele>
        <time>2013-08-21T10:48:42Z</time>
      </trkpt>
      <trkpt lat="44.40792" lon="6.93733">
        <ele>2181</ele>
        <time>2013-08-21T10:48:59Z</time>
      </trkpt>
      <trkpt lat="44.4078" lon="6.93735">
        <ele>2182</ele>
        <time>2013-08-21T10:49:07Z</time>
      </trkpt>
      <trkpt lat="44.40768" lon="6.93737">
        <ele>2180</ele>
        <time>2013-08-21T10:50:26Z</time>
      </trkpt>
      <trkpt lat="44.40755" lon="6.93734">
        <ele>2175</ele>
        <time>2013-08-21T10:50:35Z</time>
      </trkpt>
      <trkpt lat="44.40744" lon="6.93751">
        <ele>2171</ele>
        <time>2013-08-21T10:50:42Z</time>
      </trkpt>
      <trkpt lat="44.40731" lon="6.9379">
        <ele>2163</ele>
        <time>2013-08-21T10:50:54Z</time>
      </trkpt>
      <trkpt lat="44.40712" lon="6.93802">
        <ele>2158</ele>
        <time>2013-08-21T10:51:02Z</time>
      </trkpt>
      <trkpt lat="44.40696" lon="6.93822">
        <ele>2151</ele>
        <time>2013-08-21T10:51:11Z</time>
      </trkpt>
      <trkpt lat="44.4068" lon="6.93842">
        <ele>2143</ele>
        <time>2013-08-21T10:51:22Z</time>
      </trkpt>
      <trkpt lat="44.40672" lon="6.93849">
        <ele>2137</ele>
        <time>2013-08-21T10:51:28Z</time>
      </trkpt>
      <trkpt lat="44.4067" lon="6.93853">
        <ele>2134</ele>
        <time>2013-08-21T10:51:38Z</time>
      </trkpt>
      <trkpt lat="44.40668" lon="6.93858">
        <ele>2133</ele>
        <time>2013-08-21T10:51:44Z</time>
      </trkpt>
      <trkpt lat="44.40658" lon="6.93882">
        <ele>2131</ele>
        <time>2013-08-21T10:51:56Z</time>
      </trkpt>
      <trkpt lat="44.40653" lon="6.93898">
        <ele>2125</ele>
        <time>2013-08-21T10:52:02Z</time>
      </trkpt>
      <trkpt lat="44.40646" lon="6.93923">
        <ele>2117</ele>
        <time>2013-08-21T10:52:11Z</time>
      </trkpt>
      <trkpt lat="44.40643" lon="6.93945">
        <ele>2111</ele>
        <time>2013-08-21T10:52:18Z</time>
      </trkpt>
      <trkpt lat="44.40634" lon="6.93967">
        <ele>2104</ele>
        <time>2013-08-21T10:52:26Z</time>
      </trkpt>
      <trkpt lat="44.40625" lon="6.93994">
        <ele>2098</ele>
        <time>2013-08-21T10:52:34Z</time>
      </trkpt>
      <trkpt lat="44.40621" lon="6.94027">
        <ele>2093</ele>
        <time>2013-08-21T10:52:42Z</time>
      </trkpt>
      <trkpt lat="44.40609" lon="6.94045">
        <ele>2087</ele>
        <time>2013-08-21T10:52:51Z</time>
      </trkpt>
      <trkpt lat="44.40604" lon="6.94066">
        <ele>2079</ele>
        <time>2013-08-21T10:53:01Z</time>
      </trkpt>
      <trkpt lat="44.40599" lon="6.94098">
        <ele>2075</ele>
        <time>2013-08-21T10:53:07Z</time>
      </trkpt>
      <trkpt lat="44.40595" lon="6.94131">
        <ele>2068</ele>
        <time>2013-08-21T10:53:13Z</time>
      </trkpt>
      <trkpt lat="44.40574" lon="6.9416">
        <ele>2056</ele>
        <time>2013-08-21T10:53:24Z</time>
      </trkpt>
      <trkpt lat="44.4056" lon="6.94177">
        <ele>2052</ele>
        <time>2013-08-21T10:53:30Z</time>
      </trkpt>
      <trkpt lat="44.4054" lon="6.94205">
        <ele>2047</ele>
        <time>2013-08-21T10:53:36Z</time>
      </trkpt>
      <trkpt lat="44.40518" lon="6.94233">
        <ele>2040</ele>
        <time>2013-08-21T10:53:45Z</time>
      </trkpt>
      <trkpt lat="44.40509" lon="6.9424">
        <ele>2037</ele>
        <time>2013-08-21T10:54:14Z</time>
      </trkpt>
      <trkpt lat="44.4049" lon="6.94248">
        <ele>2037</ele>
        <time>2013-08-21T10:54:21Z</time>
      </trkpt>
      <trkpt lat="44.40461" lon="6.94291">
        <ele>2032</ele>
        <time>2013-08-21T10:54:31Z</time>
      </trkpt>
      <trkpt lat="44.40438" lon="6.94318">
        <ele>2029</ele>
        <time>2013-08-21T10:54:38Z</time>
      </trkpt>
      <trkpt lat="44.40419" lon="6.94322">
        <ele>2027</ele>
        <time>2013-08-21T10:54:44Z</time>
      </trkpt>
      <trkpt lat="44.40396" lon="6.94333">
        <ele>2026</ele>
        <time>2013-08-21T10:54:58Z</time>
      </trkpt>
      <trkpt lat="44.40382" lon="6.94338">
        <ele>2028</ele>
        <time>2013-08-21T10:55:08Z</time>
      </trkpt>
      <trkpt lat="44.40375" lon="6.94344">
        <ele>2028</ele>
        <time>2013-08-21T10:55:45Z</time>
      </trkpt>
      <trkpt lat="44.40363" lon="6.94353">
        <ele>2028</ele>
        <time>2013-08-21T10:55:53Z</time>
      </trkpt>
      <trkpt lat="44.40343" lon="6.94371">
        <ele>2026</ele>
        <time>2013-08-21T10:56:16Z</time>
      </trkpt>
      <trkpt lat="44.40321" lon="6.94387">
        <ele>2025</ele>
        <time>2013-08-21T10:56:24Z</time>
      </trkpt>
      <trkpt lat="44.40315" lon="6.94397">
        <ele>2025</ele>
        <time>2013-08-21T10:56:31Z</time>
      </trkpt>
      <trkpt lat="44.40305" lon="6.94407">
        <ele>2023</ele>
        <time>2013-08-21T10:56:48Z</time>
      </trkpt>
      <trkpt lat="44.40293" lon="6.94416">
        <ele>2024</ele>
        <time>2013-08-21T10:57:00Z</time>
      </trkpt>
      <trkpt lat="44.40264" lon="6.94437">
        <ele>2024</ele>
        <time>2013-08-21T10:57:12Z</time>
      </trkpt>
      <trkpt lat="44.40227" lon="6.94468">
        <ele>2023</ele>
        <time>2013-08-21T10:57:26Z</time>
      </trkpt>
      <trkpt lat="44.40202" lon="6.94497">
        <ele>2022</ele>
        <time>2013-08-21T10:57:36Z</time>
      </trkpt>
      <trkpt lat="44.40185" lon="6.94514">
        <ele>2020</ele>
        <time>2013-08-21T10:57:46Z</time>
      </trkpt>
      <trkpt lat="44.40166" lon="6.94528">
        <ele>2020</ele>
        <time>2013-08-21T10:57:55Z</time>
      </trkpt>
      <trkpt lat="44.40138" lon="6.94548">
        <ele>2020</ele>
        <time>2013-08-21T10:58:07Z</time>
      </trkpt>
      <trkpt lat="44.40114" lon="6.94565">
        <ele>2022</ele>
        <time>2013-08-21T10:58:19Z</time>
      </trkpt>
      <trkpt lat="44.40085" lon="6.94589">
        <ele>2021</ele>
        <time>2013-08-21T10:58:28Z</time>
      </trkpt>
      <trkpt lat="44.40043" lon="6.94634">
        <ele>2018</ele>
        <time>2013-08-21T10:58:41Z</time>
      </trkpt>
      <trkpt lat="44.40015" lon="6.94664">
        <ele>2019</ele>
        <time>2013-08-21T10:58:52Z</time>
      </trkpt>
      <trkpt lat="44.39997" lon="6.94676">
        <ele>2019</ele>
        <time>2013-08-21T10:58:59Z</time>
      </trkpt>
      <trkpt lat="44.39976" lon="6.94685">
        <ele>2023</ele>
        <time>2013-08-21T10:59:14Z</time>
      </trkpt>
      <trkpt lat="44.39964" lon="6.94699">
        <ele>2026</ele>
        <time>2013-08-21T10:59:30Z</time>
      </trkpt>
      <trkpt lat="44.39945" lon="6.94709">
        <ele>2028</ele>
        <time>2013-08-21T10:59:44Z</time>
      </trkpt>
      <trkpt lat="44.39928" lon="6.94716">
        <ele>2030</ele>
        <time>2013-08-21T10:59:55Z</time>
      </trkpt>
      <trkpt lat="44.39907" lon="6.9471">
        <ele>2030</ele>
        <time>2013-08-21T11:00:02Z</time>
      </trkpt>
      <trkpt lat="44.39901" lon="6.94711">
        <ele>2029</ele>
        <time>2013-08-21T11:00:07Z</time>
      </trkpt>
      <trkpt lat="44.39902" lon="6.94705">
        <ele>2028</ele>
        <time>2013-08-21T11:02:10Z</time>
      </trkpt>
      <trkpt lat="44.39904" lon="6.94707">
        <ele>2028</ele>
        <time>2013-08-21T11:02:19Z</time>
      </trkpt>
      <trkpt lat="44.39903" lon="6.94698">
        <ele>2027</ele>
        <time>2013-08-21T11:02:27Z</time>
      </trkpt>
      <trkpt lat="44.399" lon="6.9469">
        <ele>2025</ele>
        <time>2013-08-21T11:02:37Z</time>
      </trkpt>
      <trkpt lat="44.399" lon="6.94687">
        <ele>2023</ele>
        <time>2013-08-21T11:02:55Z</time>
      </trkpt>
      <trkpt lat="44.39896" lon="6.94685">
        <ele>2021</ele>
        <time>2013-08-21T11:03:29Z</time>
      </trkpt>
      <trkpt lat="44.39896" lon="6.9468">
        <ele>2019</ele>
        <time>2013-08-21T11:03:39Z</time>
      </trkpt>
      <trkpt lat="44.39888" lon="6.94683">
        <ele>2017</ele>
        <time>2013-08-21T11:04:11Z</time>
      </trkpt>
      <trkpt lat="44.39885" lon="6.94679">
        <ele>2013</ele>
        <time>2013-08-21T11:04:21Z</time>
      </trkpt>
      <trkpt lat="44.39889" lon="6.9466">
        <ele>2010</ele>
        <time>2013-08-21T11:04:32Z</time>
      </trkpt>
      <trkpt lat="44.39887" lon="6.94655">
        <ele>2007</ele>
        <time>2013-08-21T11:04:39Z</time>
      </trkpt>
      <trkpt lat="44.39884" lon="6.94655">
        <ele>2005</ele>
        <time>2013-08-21T11:04:46Z</time>
      </trkpt>
      <trkpt lat="44.39885" lon="6.94643">
        <ele>2003</ele>
        <time>2013-08-21T11:05:04Z</time>
      </trkpt>
      <trkpt lat="44.39879" lon="6.94637">
        <ele>2000</ele>
        <time>2013-08-21T11:05:10Z</time>
      </trkpt>
      <trkpt lat="44.39864" lon="6.94663">
        <ele>1995</ele>
        <time>2013-08-21T11:05:19Z</time>
      </trkpt>
      <trkpt lat="44.39851" lon="6.94666">
        <ele>1989</ele>
        <time>2013-08-21T11:05:29Z</time>
      </trkpt>
      <trkpt lat="44.39852" lon="6.94648">
        <ele>1984</ele>
        <time>2013-08-21T11:05:39Z</time>
      </trkpt>
      <trkpt lat="44.39852" lon="6.94642">
        <ele>1983</ele>
        <time>2013-08-21T11:05:46Z</time>
      </trkpt>
      <trkpt lat="44.39846" lon="6.94647">
        <ele>1981</ele>
        <time>2013-08-21T11:05:58Z</time>
      </trkpt>
      <trkpt lat="44.39845" lon="6.94645">
        <ele>1980</ele>
        <time>2013-08-21T11:06:05Z</time>
      </trkpt>
      <trkpt lat="44.39836" lon="6.94652">
        <ele>1978</ele>
        <time>2013-08-21T11:07:07Z</time>
      </trkpt>
      <trkpt lat="44.39834" lon="6.94653">
        <ele>1976</ele>
        <time>2013-08-21T11:07:13Z</time>
      </trkpt>
      <trkpt lat="44.39837" lon="6.94647">
        <ele>1973</ele>
        <time>2013-08-21T11:07:22Z</time>
      </trkpt>
      <trkpt lat="44.39836" lon="6.94623">
        <ele>1970</ele>
        <time>2013-08-21T11:07:32Z</time>
      </trkpt>
      <trkpt lat="44.39835" lon="6.94612">
        <ele>1966</ele>
        <time>2013-08-21T11:07:38Z</time>
      </trkpt>
      <trkpt lat="44.39834" lon="6.94611">
        <ele>1962</ele>
        <time>2013-08-21T11:07:47Z</time>
      </trkpt>
      <trkpt lat="44.39835" lon="6.94607">
        <ele>1961</ele>
        <time>2013-08-21T11:07:54Z</time>
      </trkpt>
      <trkpt lat="44.39832" lon="6.94598">
        <ele>1959</ele>
        <time>2013-08-21T11:08:06Z</time>
      </trkpt>
      <trkpt lat="44.39827" lon="6.94584">
        <ele>1956</ele>
        <time>2013-08-21T11:08:18Z</time>
      </trkpt>
      <trkpt lat="44.39821" lon="6.94566">
        <ele>1952</ele>
        <time>2013-08-21T11:08:27Z</time>
      </trkpt>
      <trkpt lat="44.39818" lon="6.94564">
        <ele>1947</ele>
        <time>2013-08-21T11:08:36Z</time>
      </trkpt>
      <trkpt lat="44.39814" lon="6.94554">
        <ele>1943</ele>
        <time>2013-08-21T11:08:44Z</time>
      </trkpt>
      <trkpt lat="44.3981" lon="6.94511">
        <ele>1937</ele>
        <time>2013-08-21T11:09:50Z</time>
      </trkpt>
      <trkpt lat="44.39807" lon="6.94495">
        <ele>1933</ele>
        <time>2013-08-21T11:09:56Z</time>
      </trkpt>
      <trkpt lat="44.39803" lon="6.945">
        <ele>1929</ele>
        <time>2013-08-21T11:10:04Z</time>
      </trkpt>
      <trkpt lat="44.39798" lon="6.94471">
        <ele>1925</ele>
        <time>2013-08-21T11:10:13Z</time>
      </trkpt>
      <trkpt lat="44.39796" lon="6.94459">
        <ele>1923</ele>
        <time>2013-08-21T11:10:16Z</time>
      </trkpt>
      <trkpt lat="44.39792" lon="6.9442">
        <ele>1919</ele>
        <time>2013-08-21T11:10:23Z</time>
      </trkpt>
      <trkpt lat="44.39783" lon="6.94384">
        <ele>1913</ele>
        <time>2013-08-21T11:10:30Z</time>
      </trkpt>
      <trkpt lat="44.39786" lon="6.94357">
        <ele>1905</ele>
        <time>2013-08-21T11:10:38Z</time>
      </trkpt>
      <trkpt lat="44.39785" lon="6.94315">
        <ele>1897</ele>
        <time>2013-08-21T11:10:47Z</time>
      </trkpt>
      <trkpt lat="44.39784" lon="6.94287">
        <ele>1891</ele>
        <time>2013-08-21T11:10:53Z</time>
      </trkpt>
      <trkpt lat="44.39782" lon="6.94267">
        <ele>1885</ele>
        <time>2013-08-21T11:10:59Z</time>
      </trkpt>
      <trkpt lat="44.39779" lon="6.94251">
        <ele>1879</ele>
        <time>2013-08-21T11:11:05Z</time>
      </trkpt>
      <trkpt lat="44.39777" lon="6.94247">
        <ele>1877</ele>
        <time>2013-08-21T11:11:12Z</time>
      </trkpt>
      <trkpt lat="44.39776" lon="6.94243">
        <ele>1875</ele>
        <time>2013-08-21T11:11:21Z</time>
      </trkpt>
      <trkpt lat="44.39773" lon="6.94242">
        <ele>1872</ele>
        <time>2013-08-21T11:11:31Z</time>
      </trkpt>
      <trkpt lat="44.39772" lon="6.94236">
        <ele>1871</ele>
        <time>2013-08-21T11:11:41Z</time>
      </trkpt>
      <trkpt lat="44.39768" lon="6.94226">
        <ele>1867</ele>
        <time>2013-08-21T11:11:50Z</time>
      </trkpt>
      <trkpt lat="44.39767" lon="6.94217">
        <ele>1862</ele>
        <time>2013-08-21T11:12:01Z</time>
      </trkpt>
      <trkpt lat="44.39766" lon="6.9422">
        <ele>1861</ele>
        <time>2013-08-21T11:12:09Z</time>
      </trkpt>
      <trkpt lat="44.39754" lon="6.94235">
        <ele>1859</ele>
        <time>2013-08-21T11:13:00Z</time>
      </trkpt>
      <trkpt lat="44.39749" lon="6.94235">
        <ele>1855</ele>
        <time>2013-08-21T11:13:08Z</time>
      </trkpt>
      <trkpt lat="44.39746" lon="6.94239">
        <ele>1853</ele>
        <time>2013-08-21T11:13:13Z</time>
      </trkpt>
      <trkpt lat="44.39746" lon="6.94235">
        <ele>1851</ele>
        <time>2013-08-21T11:13:20Z</time>
      </trkpt>
      <trkpt lat="44.39751" lon="6.942">
        <ele>1847</ele>
        <time>2013-08-21T11:13:38Z</time>
      </trkpt>
      <trkpt lat="44.39749" lon="6.94169">
        <ele>1840</ele>
        <time>2013-08-21T11:13:50Z</time>
      </trkpt>
      <trkpt lat="44.3975" lon="6.94162">
        <ele>1838</ele>
        <time>2013-08-21T11:14:01Z</time>
      </trkpt>
      <trkpt lat="44.39744" lon="6.94146">
        <ele>1835</ele>
        <time>2013-08-21T11:14:39Z</time>
      </trkpt>
      <trkpt lat="44.39742" lon="6.94113">
        <ele>1832</ele>
        <time>2013-08-21T11:14:46Z</time>
      </trkpt>
      <trkpt lat="44.3974" lon="6.94098">
        <ele>1831</ele>
        <time>2013-08-21T11:14:51Z</time>
      </trkpt>
      <trkpt lat="44.39732" lon="6.94079">
        <ele>1828</ele>
        <time>2013-08-21T11:15:00Z</time>
      </trkpt>
      <trkpt lat="44.39725" lon="6.94063">
        <ele>1824</ele>
        <time>2013-08-21T11:15:08Z</time>
      </trkpt>
      <trkpt lat="44.39721" lon="6.94054">
        <ele>1820</ele>
        <time>2013-08-21T11:15:15Z</time>
      </trkpt>
      <trkpt lat="44.39713" lon="6.94058">
        <ele>1818</ele>
        <time>2013-08-21T11:15:24Z</time>
      </trkpt>
      <trkpt lat="44.39707" lon="6.94058">
        <ele>1817</ele>
        <time>2013-08-21T11:15:28Z</time>
      </trkpt>
      <trkpt lat="44.39689" lon="6.94063">
        <ele>1811</ele>
        <time>2013-08-21T11:15:36Z</time>
      </trkpt>
      <trkpt lat="44.39686" lon="6.94065">
        <ele>1808</ele>
        <time>2013-08-21T11:18:20Z</time>
      </trkpt>
      <trkpt lat="44.39694" lon="6.94071">
        <ele>1808</ele>
        <time>2013-08-21T11:18:28Z</time>
      </trkpt>
      <trkpt lat="44.39699" lon="6.94084">
        <ele>1808</ele>
        <time>2013-08-21T11:18:35Z</time>
      </trkpt>
      <trkpt lat="44.39693" lon="6.94109">
        <ele>1802</ele>
        <time>2013-08-21T11:18:43Z</time>
      </trkpt>
      <trkpt lat="44.39686" lon="6.9413">
        <ele>1797</ele>
        <time>2013-08-21T11:18:49Z</time>
      </trkpt>
      <trkpt lat="44.39672" lon="6.94152">
        <ele>1791</ele>
        <time>2013-08-21T11:18:56Z</time>
      </trkpt>
      <trkpt lat="44.39653" lon="6.94169">
        <ele>1784</ele>
        <time>2013-08-21T11:19:02Z</time>
      </trkpt>
      <trkpt lat="44.39648" lon="6.9416">
        <ele>1779</ele>
        <time>2013-08-21T11:19:06Z</time>
      </trkpt>
      <trkpt lat="44.39647" lon="6.94122">
        <ele>1771</ele>
        <time>2013-08-21T11:19:15Z</time>
      </trkpt>
      <trkpt lat="44.39649" lon="6.94109">
        <ele>1765</ele>
        <time>2013-08-21T11:19:21Z</time>
      </trkpt>
      <trkpt lat="44.39654" lon="6.94092">
        <ele>1762</ele>
        <time>2013-08-21T11:19:43Z</time>
      </trkpt>
      <trkpt lat="44.39646" lon="6.94083">
        <ele>1758</ele>
        <time>2013-08-21T11:19:50Z</time>
      </trkpt>
      <trkpt lat="44.39647" lon="6.94058">
        <ele>1752</ele>
        <time>2013-08-21T11:19:58Z</time>
      </trkpt>
      <trkpt lat="44.39653" lon="6.94018">
        <ele>1748</ele>
        <time>2013-08-21T11:20:07Z</time>
      </trkpt>
      <trkpt lat="44.39654" lon="6.93988">
        <ele>1742</ele>
        <time>2013-08-21T11:20:16Z</time>
      </trkpt>
      <trkpt lat="44.39653" lon="6.93939">
        <ele>1735</ele>
        <time>2013-08-21T11:20:27Z</time>
      </trkpt>
      <trkpt lat="44.39649" lon="6.93919">
        <ele>1732</ele>
        <time>2013-08-21T11:20:31Z</time>
      </trkpt>
      <trkpt lat="44.39652" lon="6.93875">
        <ele>1726</ele>
        <time>2013-08-21T11:20:39Z</time>
      </trkpt>
      <trkpt lat="44.39652" lon="6.93856">
        <ele>1723</ele>
        <time>2013-08-21T11:20:46Z</time>
      </trkpt>
      <trkpt lat="44.39666" lon="6.93825">
        <ele>1719</ele>
        <time>2013-08-21T11:20:55Z</time>
      </trkpt>
      <trkpt lat="44.39657" lon="6.93813">
        <ele>1716</ele>
        <time>2013-08-21T11:21:01Z</time>
      </trkpt>
      <trkpt lat="44.3965" lon="6.9381">
        <ele>1712</ele>
        <time>2013-08-21T11:21:09Z</time>
      </trkpt>
      <trkpt lat="44.3965" lon="6.93801">
        <ele>1710</ele>
        <time>2013-08-21T11:21:13Z</time>
      </trkpt>
      <trkpt lat="44.39655" lon="6.93785">
        <ele>1706</ele>
        <time>2013-08-21T11:21:22Z</time>
      </trkpt>
      <trkpt lat="44.39643" lon="6.93781">
        <ele>1704</ele>
        <time>2013-08-21T11:21:32Z</time>
      </trkpt>
      <trkpt lat="44.39648" lon="6.93778">
        <ele>1703</ele>
        <time>2013-08-21T11:21:43Z</time>
      </trkpt>
      <trkpt lat="44.39607" lon="6.93795">
        <ele>1701</ele>
        <time>2013-08-21T11:22:03Z</time>
      </trkpt>
      <trkpt lat="44.39589" lon="6.93816">
        <ele>1701</ele>
        <time>2013-08-21T11:22:12Z</time>
      </trkpt>
      <trkpt lat="44.3959" lon="6.93796">
        <ele>1700</ele>
        <time>2013-08-21T11:22:30Z</time>
      </trkpt>
      <trkpt lat="44.39587" lon="6.93762">
        <ele>1701</ele>
        <time>2013-08-21T11:22:41Z</time>
      </trkpt>
      <trkpt lat="44.39597" lon="6.93721">
        <ele>1702</ele>
        <time>2013-08-21T11:22:56Z</time>
      </trkpt>
      <trkpt lat="44.39631" lon="6.93721">
        <ele>1703</ele>
        <time>2013-08-21T11:23:05Z</time>
      </trkpt>
      <trkpt lat="44.3963" lon="6.93713">
        <ele>1700</ele>
        <time>2013-08-21T11:29:58Z</time>
      </trkpt>
      <trkpt lat="44.39641" lon="6.93693">
        <ele>1701</ele>
        <time>2013-08-21T11:30:11Z</time>
      </trkpt>
      <trkpt lat="44.39653" lon="6.93663">
        <ele>1702</ele>
        <time>2013-08-21T11:30:26Z</time>
      </trkpt>
      <trkpt lat="44.39661" lon="6.93639">
        <ele>1704</ele>
        <time>2013-08-21T11:30:39Z</time>
      </trkpt>
      <trkpt lat="44.39675" lon="6.93618">
        <ele>1705</ele>
        <time>2013-08-21T11:30:59Z</time>
      </trkpt>
      <trkpt lat="44.39693" lon="6.93573">
        <ele>1708</ele>
        <time>2013-08-21T11:31:18Z</time>
      </trkpt>
      <trkpt lat="44.39697" lon="6.93536">
        <ele>1709</ele>
        <time>2013-08-21T11:31:32Z</time>
      </trkpt>
      <trkpt lat="44.39705" lon="6.93482">
        <ele>1712</ele>
        <time>2013-08-21T11:31:52Z</time>
      </trkpt>
      <trkpt lat="44.39721" lon="6.9343">
        <ele>1715</ele>
        <time>2013-08-21T11:32:13Z</time>
      </trkpt>
      <trkpt lat="44.39737" lon="6.93378">
        <ele>1717</ele>
        <time>2013-08-21T11:32:34Z</time>
      </trkpt>
      <trkpt lat="44.39747" lon="6.93336">
        <ele>1719</ele>
        <time>2013-08-21T11:32:52Z</time>
      </trkpt>
      <trkpt lat="44.39755" lon="6.93293">
        <ele>1722</ele>
        <time>2013-08-21T11:33:10Z</time>
      </trkpt>
      <trkpt lat="44.3977" lon="6.93247">
        <ele>1724</ele>
        <time>2013-08-21T11:33:29Z</time>
      </trkpt>
      <trkpt lat="44.39776" lon="6.93222">
        <ele>1725</ele>
        <time>2013-08-21T11:33:41Z</time>
      </trkpt>
      <trkpt lat="44.3978" lon="6.93185">
        <ele>1727</ele>
        <time>2013-08-21T11:34:04Z</time>
      </trkpt>
      <trkpt lat="44.39781" lon="6.93114">
        <ele>1730</ele>
        <time>2013-08-21T11:34:21Z</time>
      </trkpt>
      <trkpt lat="44.39776" lon="6.93052">
        <ele>1733</ele>
        <time>2013-08-21T11:34:34Z</time>
      </trkpt>
      <trkpt lat="44.39791" lon="6.92998">
        <ele>1736</ele>
        <time>2013-08-21T11:34:49Z</time>
      </trkpt>
      <trkpt lat="44.398" lon="6.92949">
        <ele>1739</ele>
        <time>2013-08-21T11:35:04Z</time>
      </trkpt>
      <trkpt lat="44.398" lon="6.92892">
        <ele>1741</ele>
        <time>2013-08-21T11:35:22Z</time>
      </trkpt>
      <trkpt lat="44.39799" lon="6.92844">
        <ele>1744</ele>
        <time>2013-08-21T11:35:37Z</time>
      </trkpt>
      <trkpt lat="44.39816" lon="6.92791">
        <ele>1747</ele>
        <time>2013-08-21T11:35:55Z</time>
      </trkpt>
      <trkpt lat="44.39836" lon="6.92737">
        <ele>1750</ele>
        <time>2013-08-21T11:36:14Z</time>
      </trkpt>
      <trkpt lat="44.39858" lon="6.92676">
        <ele>1753</ele>
        <time>2013-08-21T11:36:33Z</time>
      </trkpt>
      <trkpt lat="44.39876" lon="6.92662">
        <ele>1754</ele>
        <time>2013-08-21T11:36:41Z</time>
      </trkpt>
      <trkpt lat="44.39882" lon="6.92684">
        <ele>1755</ele>
        <time>2013-08-21T11:36:46Z</time>
      </trkpt>
      <trkpt lat="44.39872" lon="6.92752">
        <ele>1759</ele>
        <time>2013-08-21T11:37:04Z</time>
      </trkpt>
      <trkpt lat="44.39877" lon="6.92815">
        <ele>1762</ele>
        <time>2013-08-21T11:37:21Z</time>
      </trkpt>
      <trkpt lat="44.39895" lon="6.92888">
        <ele>1765</ele>
        <time>2013-08-21T11:37:42Z</time>
      </trkpt>
      <trkpt lat="44.39919" lon="6.92903">
        <ele>1767</ele>
        <time>2013-08-21T11:37:52Z</time>
      </trkpt>
      <trkpt lat="44.39925" lon="6.92854">
        <ele>1767</ele>
        <time>2013-08-21T11:38:02Z</time>
      </trkpt>
      <trkpt lat="44.39924" lon="6.92757">
        <ele>1770</ele>
        <time>2013-08-21T11:38:21Z</time>
      </trkpt>
      <trkpt lat="44.39944" lon="6.92675">
        <ele>1773</ele>
        <time>2013-08-21T11:38:38Z</time>
      </trkpt>
      <trkpt lat="44.3996" lon="6.92654">
        <ele>1774</ele>
        <time>2013-08-21T11:38:44Z</time>
      </trkpt>
      <trkpt lat="44.3997" lon="6.92683">
        <ele>1776</ele>
        <time>2013-08-21T11:38:51Z</time>
      </trkpt>
      <trkpt lat="44.39965" lon="6.92792">
        <ele>1781</ele>
        <time>2013-08-21T11:39:12Z</time>
      </trkpt>
      <trkpt lat="44.39972" lon="6.92862">
        <ele>1784</ele>
        <time>2013-08-21T11:39:27Z</time>
      </trkpt>
      <trkpt lat="44.39985" lon="6.9291">
        <ele>1786</ele>
        <time>2013-08-21T11:39:40Z</time>
      </trkpt>
      <trkpt lat="44.40003" lon="6.92897">
        <ele>1787</ele>
        <time>2013-08-21T11:39:48Z</time>
      </trkpt>
      <trkpt lat="44.40004" lon="6.92833">
        <ele>1788</ele>
        <time>2013-08-21T11:40:03Z</time>
      </trkpt>
      <trkpt lat="44.40013" lon="6.92768">
        <ele>1792</ele>
        <time>2013-08-21T11:40:21Z</time>
      </trkpt>
      <trkpt lat="44.40034" lon="6.92699">
        <ele>1795</ele>
        <time>2013-08-21T11:40:42Z</time>
      </trkpt>
      <trkpt lat="44.40055" lon="6.92706">
        <ele>1797</ele>
        <time>2013-08-21T11:40:52Z</time>
      </trkpt>
      <trkpt lat="44.40052" lon="6.92754">
        <ele>1800</ele>
        <time>2013-08-21T11:41:05Z</time>
      </trkpt>
      <trkpt lat="44.40047" lon="6.92832">
        <ele>1804</ele>
        <time>2013-08-21T11:41:27Z</time>
      </trkpt>
      <trkpt lat="44.40062" lon="6.92867">
        <ele>1806</ele>
        <time>2013-08-21T11:41:39Z</time>
      </trkpt>
      <trkpt lat="44.40077" lon="6.92838">
        <ele>1807</ele>
        <time>2013-08-21T11:41:48Z</time>
      </trkpt>
      <trkpt lat="44.40083" lon="6.92759">
        <ele>1809</ele>
        <time>2013-08-21T11:42:06Z</time>
      </trkpt>
      <trkpt lat="44.40086" lon="6.9267">
        <ele>1814</ele>
        <time>2013-08-21T11:42:27Z</time>
      </trkpt>
      <trkpt lat="44.40081" lon="6.92577">
        <ele>1819</ele>
        <time>2013-08-21T11:42:50Z</time>
      </trkpt>
      <trkpt lat="44.40079" lon="6.92516">
        <ele>1822</ele>
        <time>2013-08-21T11:43:06Z</time>
      </trkpt>
      <trkpt lat="44.40098" lon="6.92494">
        <ele>1823</ele>
        <time>2013-08-21T11:43:16Z</time>
      </trkpt>
      <trkpt lat="44.40114" lon="6.92528">
        <ele>1825</ele>
        <time>2013-08-21T11:43:27Z</time>
      </trkpt>
      <trkpt lat="44.40127" lon="6.92605">
        <ele>1829</ele>
        <time>2013-08-21T11:43:49Z</time>
      </trkpt>
      <trkpt lat="44.40145" lon="6.92667">
        <ele>1832</ele>
        <time>2013-08-21T11:44:05Z</time>
      </trkpt>
      <trkpt lat="44.40166" lon="6.92736">
        <ele>1835</ele>
        <time>2013-08-21T11:44:23Z</time>
      </trkpt>
      <trkpt lat="44.402" lon="6.9276">
        <ele>1836</ele>
        <time>2013-08-21T11:44:35Z</time>
      </trkpt>
      <trkpt lat="44.40211" lon="6.92714">
        <ele>1837</ele>
        <time>2013-08-21T11:44:45Z</time>
      </trkpt>
      <trkpt lat="44.40213" lon="6.92629">
        <ele>1840</ele>
        <time>2013-08-21T11:45:03Z</time>
      </trkpt>
      <trkpt lat="44.40195" lon="6.92552">
        <ele>1845</ele>
        <time>2013-08-21T11:45:22Z</time>
      </trkpt>
      <trkpt lat="44.4016" lon="6.92498">
        <ele>1848</ele>
        <time>2013-08-21T11:45:40Z</time>
      </trkpt>
      <trkpt lat="44.40158" lon="6.92461">
        <ele>1850</ele>
        <time>2013-08-21T11:45:50Z</time>
      </trkpt>
      <trkpt lat="44.40186" lon="6.92472">
        <ele>1852</ele>
        <time>2013-08-21T11:46:01Z</time>
      </trkpt>
      <trkpt lat="44.40219" lon="6.92508">
        <ele>1855</ele>
        <time>2013-08-21T11:46:18Z</time>
      </trkpt>
      <trkpt lat="44.40237" lon="6.92552">
        <ele>1859</ele>
        <time>2013-08-21T11:46:32Z</time>
      </trkpt>
      <trkpt lat="44.4024" lon="6.92625">
        <ele>1862</ele>
        <time>2013-08-21T11:46:50Z</time>
      </trkpt>
      <trkpt lat="44.40255" lon="6.92658">
        <ele>1864</ele>
        <time>2013-08-21T11:47:00Z</time>
      </trkpt>
      <trkpt lat="44.40277" lon="6.92636">
        <ele>1865</ele>
        <time>2013-08-21T11:47:10Z</time>
      </trkpt>
      <trkpt lat="44.40271" lon="6.92564">
        <ele>1865</ele>
        <time>2013-08-21T11:47:24Z</time>
      </trkpt>
      <trkpt lat="44.40283" lon="6.92491">
        <ele>1869</ele>
        <time>2013-08-21T11:47:39Z</time>
      </trkpt>
      <trkpt lat="44.40331" lon="6.92447">
        <ele>1873</ele>
        <time>2013-08-21T11:47:55Z</time>
      </trkpt>
      <trkpt lat="44.40392" lon="6.9242">
        <ele>1876</ele>
        <time>2013-08-21T11:48:13Z</time>
      </trkpt>
      <trkpt lat="44.40433" lon="6.92364">
        <ele>1879</ele>
        <time>2013-08-21T11:48:30Z</time>
      </trkpt>
      <trkpt lat="44.40482" lon="6.92322">
        <ele>1884</ele>
        <time>2013-08-21T11:48:50Z</time>
      </trkpt>
      <trkpt lat="44.40526" lon="6.92266">
        <ele>1887</ele>
        <time>2013-08-21T11:49:10Z</time>
      </trkpt>
      <trkpt lat="44.40547" lon="6.92215">
        <ele>1890</ele>
        <time>2013-08-21T11:49:25Z</time>
      </trkpt>
      <trkpt lat="44.4056" lon="6.92157">
        <ele>1894</ele>
        <time>2013-08-21T11:49:42Z</time>
      </trkpt>
      <trkpt lat="44.40576" lon="6.92146">
        <ele>1897</ele>
        <time>2013-08-21T11:49:53Z</time>
      </trkpt>
      <trkpt lat="44.40562" lon="6.92188">
        <ele>1899</ele>
        <time>2013-08-21T11:50:05Z</time>
      </trkpt>
      <trkpt lat="44.40566" lon="6.92225">
        <ele>1901</ele>
        <time>2013-08-21T11:50:16Z</time>
      </trkpt>
      <trkpt lat="44.40579" lon="6.92216">
        <ele>1902</ele>
        <time>2013-08-21T11:50:22Z</time>
      </trkpt>
      <trkpt lat="44.40602" lon="6.92151">
        <ele>1904</ele>
        <time>2013-08-21T11:50:42Z</time>
      </trkpt>
      <trkpt lat="44.40628" lon="6.92091">
        <ele>1907</ele>
        <time>2013-08-21T11:51:02Z</time>
      </trkpt>
      <trkpt lat="44.40638" lon="6.92038">
        <ele>1912</ele>
        <time>2013-08-21T11:51:19Z</time>
      </trkpt>
      <trkpt lat="44.40652" lon="6.92008">
        <ele>1913</ele>
        <time>2013-08-21T11:51:29Z</time>
      </trkpt>
      <trkpt lat="44.40661" lon="6.92022">
        <ele>1915</ele>
        <time>2013-08-21T11:51:37Z</time>
      </trkpt>
      <trkpt lat="44.40654" lon="6.92052">
        <ele>1917</ele>
        <time>2013-08-21T11:51:45Z</time>
      </trkpt>
      <trkpt lat="44.40668" lon="6.92055">
        <ele>1918</ele>
        <time>2013-08-21T11:51:51Z</time>
      </trkpt>
      <trkpt lat="44.40692" lon="6.92012">
        <ele>1920</ele>
        <time>2013-08-21T11:52:05Z</time>
      </trkpt>
      <trkpt lat="44.40736" lon="6.91988">
        <ele>1923</ele>
        <time>2013-08-21T11:52:22Z</time>
      </trkpt>
      <trkpt lat="44.4076" lon="6.91933">
        <ele>1926</ele>
        <time>2013-08-21T11:52:38Z</time>
      </trkpt>
      <trkpt lat="44.40764" lon="6.91854">
        <ele>1931</ele>
        <time>2013-08-21T11:52:58Z</time>
      </trkpt>
      <trkpt lat="44.40797" lon="6.91797">
        <ele>1935</ele>
        <time>2013-08-21T11:53:19Z</time>
      </trkpt>
      <trkpt lat="44.40828" lon="6.91744">
        <ele>1939</ele>
        <time>2013-08-21T11:53:38Z</time>
      </trkpt>
      <trkpt lat="44.40866" lon="6.9167">
        <ele>1943</ele>
        <time>2013-08-21T11:54:00Z</time>
      </trkpt>
      <trkpt lat="44.4091" lon="6.91616">
        <ele>1947</ele>
        <time>2013-08-21T11:54:19Z</time>
      </trkpt>
      <trkpt lat="44.40967" lon="6.91575">
        <ele>1951</ele>
        <time>2013-08-21T11:54:39Z</time>
      </trkpt>
      <trkpt lat="44.41027" lon="6.91546">
        <ele>1952</ele>
        <time>2013-08-21T11:54:55Z</time>
      </trkpt>
      <trkpt lat="44.41096" lon="6.91489">
        <ele>1953</ele>
        <time>2013-08-21T11:55:10Z</time>
      </trkpt>
      <trkpt lat="44.41197" lon="6.91381">
        <ele>1953</ele>
        <time>2013-08-21T11:55:29Z</time>
      </trkpt>
      <trkpt lat="44.41255" lon="6.91284">
        <ele>1955</ele>
        <time>2013-08-21T11:55:43Z</time>
      </trkpt>
      <trkpt lat="44.41297" lon="6.91163">
        <ele>1959</ele>
        <time>2013-08-21T11:56:01Z</time>
      </trkpt>
      <trkpt lat="44.41356" lon="6.9104">
        <ele>1962</ele>
        <time>2013-08-21T11:56:21Z</time>
      </trkpt>
      <trkpt lat="44.41418" lon="6.90926">
        <ele>1964</ele>
        <time>2013-08-21T11:56:42Z</time>
      </trkpt>
      <trkpt lat="44.41482" lon="6.90829">
        <ele>1964</ele>
        <time>2013-08-21T11:56:57Z</time>
      </trkpt>
      <trkpt lat="44.41559" lon="6.90666">
        <ele>1966</ele>
        <time>2013-08-21T11:57:18Z</time>
      </trkpt>
      <trkpt lat="44.41621" lon="6.90591">
        <ele>1966</ele>
        <time>2013-08-21T11:57:31Z</time>
      </trkpt>
      <trkpt lat="44.41707" lon="6.90565">
        <ele>1966</ele>
        <time>2013-08-21T11:57:48Z</time>
      </trkpt>
      <trkpt lat="44.41774" lon="6.90558">
        <ele>1967</ele>
        <time>2013-08-21T11:58:05Z</time>
      </trkpt>
      <trkpt lat="44.41803" lon="6.90558">
        <ele>1967</ele>
        <time>2013-08-21T11:58:18Z</time>
      </trkpt>
      <trkpt lat="44.41803" lon="6.90562">
        <ele>1970</ele>
        <time>2013-08-21T12:02:56Z</time>
      </trkpt>
      <trkpt lat="44.41823" lon="6.90538">
        <ele>1970</ele>
        <time>2013-08-21T12:03:08Z</time>
      </trkpt>
      <trkpt lat="44.41851" lon="6.90448">
        <ele>1971</ele>
        <time>2013-08-21T12:03:23Z</time>
      </trkpt>
      <trkpt lat="44.41872" lon="6.90334">
        <ele>1971</ele>
        <time>2013-08-21T12:03:40Z</time>
      </trkpt>
      <trkpt lat="44.419" lon="6.90228">
        <ele>1973</ele>
        <time>2013-08-21T12:03:57Z</time>
      </trkpt>
      <trkpt lat="44.41945" lon="6.90116">
        <ele>1977</ele>
        <time>2013-08-21T12:04:16Z</time>
      </trkpt>
      <trkpt lat="44.4197" lon="6.90073">
        <ele>1979</ele>
        <time>2013-08-21T12:04:24Z</time>
      </trkpt>
      <trkpt lat="44.42029" lon="6.90045">
        <ele>1981</ele>
        <time>2013-08-21T12:04:39Z</time>
      </trkpt>
      <trkpt lat="44.42078" lon="6.89994">
        <ele>1983</ele>
        <time>2013-08-21T12:04:55Z</time>
      </trkpt>
      <trkpt lat="44.42127" lon="6.89932">
        <ele>1987</ele>
        <time>2013-08-21T12:05:14Z</time>
      </trkpt>
      <trkpt lat="44.42154" lon="6.89886">
        <ele>1989</ele>
        <time>2013-08-21T12:05:30Z</time>
      </trkpt>
      <trkpt lat="44.4218" lon="6.89842">
        <ele>1991</ele>
        <time>2013-08-21T12:05:44Z</time>
      </trkpt>
      <trkpt lat="44.42215" lon="6.8979">
        <ele>1990</ele>
        <time>2013-08-21T12:05:57Z</time>
      </trkpt>
      <trkpt lat="44.42269" lon="6.8971">
        <ele>1988</ele>
        <time>2013-08-21T12:06:10Z</time>
      </trkpt>
      <trkpt lat="44.42291" lon="6.8968">
        <ele>1986</ele>
        <time>2013-08-21T12:06:19Z</time>
      </trkpt>
      <trkpt lat="44.42306" lon="6.89649">
        <ele>1985</ele>
        <time>2013-08-21T12:06:25Z</time>
      </trkpt>
      <trkpt lat="44.42331" lon="6.89615">
        <ele>1983</ele>
        <time>2013-08-21T12:06:31Z</time>
      </trkpt>
      <trkpt lat="44.42354" lon="6.8957">
        <ele>1980</ele>
        <time>2013-08-21T12:06:43Z</time>
      </trkpt>
      <trkpt lat="44.42369" lon="6.8954">
        <ele>1982</ele>
        <time>2013-08-21T12:06:54Z</time>
      </trkpt>
      <trkpt lat="44.42382" lon="6.89507">
        <ele>1985</ele>
        <time>2013-08-21T12:07:08Z</time>
      </trkpt>
      <trkpt lat="44.42402" lon="6.89477">
        <ele>1989</ele>
        <time>2013-08-21T12:07:23Z</time>
      </trkpt>
      <trkpt lat="44.42414" lon="6.89429">
        <ele>1990</ele>
        <time>2013-08-21T12:07:38Z</time>
      </trkpt>
      <trkpt lat="44.42422" lon="6.894">
        <ele>1990</ele>
        <time>2013-08-21T12:07:46Z</time>
      </trkpt>
      <trkpt lat="44.42434" lon="6.89355">
        <ele>1990</ele>
        <time>2013-08-21T12:07:58Z</time>
      </trkpt>
      <trkpt lat="44.42453" lon="6.89328">
        <ele>1989</ele>
        <time>2013-08-21T12:08:05Z</time>
      </trkpt>
      <trkpt lat="44.42461" lon="6.893">
        <ele>1989</ele>
        <time>2013-08-21T12:08:13Z</time>
      </trkpt>
      <trkpt lat="44.42462" lon="6.89297">
        <ele>1988</ele>
        <time>2013-08-21T12:09:10Z</time>
      </trkpt>
      <trkpt lat="44.42467" lon="6.89267">
        <ele>1987</ele>
        <time>2013-08-21T12:09:15Z</time>
      </trkpt>
      <trkpt lat="44.42477" lon="6.89226">
        <ele>1982</ele>
        <time>2013-08-21T12:09:21Z</time>
      </trkpt>
      <trkpt lat="44.4249" lon="6.89164">
        <ele>1976</ele>
        <time>2013-08-21T12:09:28Z</time>
      </trkpt>
      <trkpt lat="44.42498" lon="6.89101">
        <ele>1969</ele>
        <time>2013-08-21T12:09:34Z</time>
      </trkpt>
      <trkpt lat="44.4251" lon="6.89053">
        <ele>1966</ele>
        <time>2013-08-21T12:09:38Z</time>
      </trkpt>
      <trkpt lat="44.42536" lon="6.88976">
        <ele>1958</ele>
        <time>2013-08-21T12:09:45Z</time>
      </trkpt>
      <trkpt lat="44.42558" lon="6.88953">
        <ele>1953</ele>
        <time>2013-08-21T12:09:51Z</time>
      </trkpt>
      <trkpt lat="44.42578" lon="6.88916">
        <ele>1948</ele>
        <time>2013-08-21T12:10:00Z</time>
      </trkpt>
      <trkpt lat="44.42596" lon="6.88903">
        <ele>1945</ele>
        <time>2013-08-21T12:10:06Z</time>
      </trkpt>
      <trkpt lat="44.42628" lon="6.88935">
        <ele>1944</ele>
        <time>2013-08-21T12:10:18Z</time>
      </trkpt>
      <trkpt lat="44.42653" lon="6.8899">
        <ele>1943</ele>
        <time>2013-08-21T12:10:30Z</time>
      </trkpt>
      <trkpt lat="44.42668" lon="6.89015">
        <ele>1943</ele>
        <time>2013-08-21T12:10:35Z</time>
      </trkpt>
      <trkpt lat="44.42695" lon="6.89044">
        <ele>1941</ele>
        <time>2013-08-21T12:10:42Z</time>
      </trkpt>
      <trkpt lat="44.4273" lon="6.89102">
        <ele>1937</ele>
        <time>2013-08-21T12:10:53Z</time>
      </trkpt>
      <trkpt lat="44.42733" lon="6.89127">
        <ele>1937</ele>
        <time>2013-08-21T12:11:03Z</time>
      </trkpt>
      <trkpt lat="44.42729" lon="6.89149">
        <ele>1939</ele>
        <time>2013-08-21T12:11:14Z</time>
      </trkpt>
      <trkpt lat="44.42737" lon="6.89142">
        <ele>1941</ele>
        <time>2013-08-21T12:11:23Z</time>
      </trkpt>
      <trkpt lat="44.4275" lon="6.89096">
        <ele>1942</ele>
        <time>2013-08-21T12:11:43Z</time>
      </trkpt>
      <trkpt lat="44.42749" lon="6.89057">
        <ele>1943</ele>
        <time>2013-08-21T12:11:58Z</time>
      </trkpt>
      <trkpt lat="44.42752" lon="6.89035">
        <ele>1945</ele>
        <time>2013-08-21T12:12:08Z</time>
      </trkpt>
      <trkpt lat="44.42755" lon="6.89002">
        <ele>1945</ele>
        <time>2013-08-21T12:12:18Z</time>
      </trkpt>
      <trkpt lat="44.42755" lon="6.88968">
        <ele>1945</ele>
        <time>2013-08-21T12:12:25Z</time>
      </trkpt>
      <trkpt lat="44.42759" lon="6.88949">
        <ele>1946</ele>
        <time>2013-08-21T12:12:34Z</time>
      </trkpt>
      <trkpt lat="44.42778" lon="6.88949">
        <ele>1948</ele>
        <time>2013-08-21T12:12:47Z</time>
      </trkpt>
      <trkpt lat="44.42787" lon="6.88946">
        <ele>1950</ele>
        <time>2013-08-21T12:12:54Z</time>
      </trkpt>
      <trkpt lat="44.428" lon="6.88931">
        <ele>1951</ele>
        <time>2013-08-21T12:13:07Z</time>
      </trkpt>
      <trkpt lat="44.42813" lon="6.88928">
        <ele>1953</ele>
        <time>2013-08-21T12:13:18Z</time>
      </trkpt>
      <trkpt lat="44.42823" lon="6.88899">
        <ele>1956</ele>
        <time>2013-08-21T12:13:34Z</time>
      </trkpt>
      <trkpt lat="44.42827" lon="6.88892">
        <ele>1957</ele>
        <time>2013-08-21T12:13:41Z</time>
      </trkpt>
      <trkpt lat="44.42842" lon="6.88895">
        <ele>1959</ele>
        <time>2013-08-21T12:18:27Z</time>
      </trkpt>
      <trkpt lat="44.42855" lon="6.8889">
        <ele>1961</ele>
        <time>2013-08-21T12:18:38Z</time>
      </trkpt>
      <trkpt lat="44.4287" lon="6.88887">
        <ele>1962</ele>
        <time>2013-08-21T12:18:51Z</time>
      </trkpt>
      <trkpt lat="44.42893" lon="6.88883">
        <ele>1965</ele>
        <time>2013-08-21T12:19:10Z</time>
      </trkpt>
      <trkpt lat="44.42914" lon="6.8887">
        <ele>1968</ele>
        <time>2013-08-21T12:19:29Z</time>
      </trkpt>
      <trkpt lat="44.42932" lon="6.8887">
        <ele>1970</ele>
        <time>2013-08-21T12:19:44Z</time>
      </trkpt>
      <trkpt lat="44.42939" lon="6.88863">
        <ele>1971</ele>
        <time>2013-08-21T12:19:51Z</time>
      </trkpt>
      <trkpt lat="44.42946" lon="6.88832">
        <ele>1973</ele>
        <time>2013-08-21T12:20:08Z</time>
      </trkpt>
      <trkpt lat="44.42958" lon="6.88806">
        <ele>1976</ele>
        <time>2013-08-21T12:20:25Z</time>
      </trkpt>
      <trkpt lat="44.42982" lon="6.8878">
        <ele>1980</ele>
        <time>2013-08-21T12:20:48Z</time>
      </trkpt>
      <trkpt lat="44.42997" lon="6.88756">
        <ele>1983</ele>
        <time>2013-08-21T12:21:06Z</time>
      </trkpt>
      <trkpt lat="44.43015" lon="6.88724">
        <ele>1985</ele>
        <time>2013-08-21T12:21:26Z</time>
      </trkpt>
      <trkpt lat="44.43037" lon="6.88705">
        <ele>1988</ele>
        <time>2013-08-21T12:21:45Z</time>
      </trkpt>
      <trkpt lat="44.43057" lon="6.88683">
        <ele>1991</ele>
        <time>2013-08-21T12:22:03Z</time>
      </trkpt>
      <trkpt lat="44.4308" lon="6.88662">
        <ele>1994</ele>
        <time>2013-08-21T12:22:23Z</time>
      </trkpt>
      <trkpt lat="44.43101" lon="6.88642">
        <ele>1997</ele>
        <time>2013-08-21T12:22:41Z</time>
      </trkpt>
      <trkpt lat="44.43128" lon="6.88633">
        <ele>1999</ele>
        <time>2013-08-21T12:23:00Z</time>
      </trkpt>
      <trkpt lat="44.43149" lon="6.88628">
        <ele>2002</ele>
        <time>2013-08-21T12:23:15Z</time>
      </trkpt>
      <trkpt lat="44.43172" lon="6.88609">
        <ele>2006</ele>
        <time>2013-08-21T12:23:34Z</time>
      </trkpt>
      <trkpt lat="44.43192" lon="6.88584">
        <ele>2008</ele>
        <time>2013-08-21T12:23:53Z</time>
      </trkpt>
      <trkpt lat="44.43214" lon="6.88552">
        <ele>2014</ele>
        <time>2013-08-21T12:24:15Z</time>
      </trkpt>
      <trkpt lat="44.43236" lon="6.88535">
        <ele>2016</ele>
        <time>2013-08-21T12:24:34Z</time>
      </trkpt>
      <trkpt lat="44.43258" lon="6.88507">
        <ele>2019</ele>
        <time>2013-08-21T12:24:53Z</time>
      </trkpt>
      <trkpt lat="44.4328" lon="6.88478">
        <ele>2022</ele>
        <time>2013-08-21T12:25:12Z</time>
      </trkpt>
      <trkpt lat="44.433" lon="6.8846">
        <ele>2025</ele>
        <time>2013-08-21T12:25:28Z</time>
      </trkpt>
      <trkpt lat="44.43324" lon="6.88458">
        <ele>2028</ele>
        <time>2013-08-21T12:25:45Z</time>
      </trkpt>
      <trkpt lat="44.43355" lon="6.88467">
        <ele>2031</ele>
        <time>2013-08-21T12:26:04Z</time>
      </trkpt>
      <trkpt lat="44.43373" lon="6.88461">
        <ele>2031</ele>
        <time>2013-08-21T12:26:15Z</time>
      </trkpt>
      <trkpt lat="44.434" lon="6.88451">
        <ele>2034</ele>
        <time>2013-08-21T12:26:36Z</time>
      </trkpt>
      <trkpt lat="44.4342" lon="6.88436">
        <ele>2037</ele>
        <time>2013-08-21T12:26:50Z</time>
      </trkpt>
      <trkpt lat="44.43443" lon="6.88416">
        <ele>2038</ele>
        <time>2013-08-21T12:27:06Z</time>
      </trkpt>
      <trkpt lat="44.43465" lon="6.8841">
        <ele>2039</ele>
        <time>2013-08-21T12:27:19Z</time>
      </trkpt>
      <trkpt lat="44.43481" lon="6.88382">
        <ele>2041</ele>
        <time>2013-08-21T12:27:33Z</time>
      </trkpt>
      <trkpt lat="44.43496" lon="6.88337">
        <ele>2044</ele>
        <time>2013-08-21T12:27:50Z</time>
      </trkpt>
      <trkpt lat="44.43511" lon="6.88315">
        <ele>2047</ele>
        <time>2013-08-21T12:28:03Z</time>
      </trkpt>
      <trkpt lat="44.43521" lon="6.88285">
        <ele>2050</ele>
        <time>2013-08-21T12:28:19Z</time>
      </trkpt>
      <trkpt lat="44.43546" lon="6.88266">
        <ele>2053</ele>
        <time>2013-08-21T12:28:39Z</time>
      </trkpt>
      <trkpt lat="44.43568" lon="6.88245">
        <ele>2055</ele>
        <time>2013-08-21T12:28:57Z</time>
      </trkpt>
      <trkpt lat="44.43589" lon="6.88223">
        <ele>2059</ele>
        <time>2013-08-21T12:29:14Z</time>
      </trkpt>
      <trkpt lat="44.43616" lon="6.88212">
        <ele>2063</ele>
        <time>2013-08-21T12:29:33Z</time>
      </trkpt>
      <trkpt lat="44.43637" lon="6.88205">
        <ele>2065</ele>
        <time>2013-08-21T12:29:49Z</time>
      </trkpt>
      <trkpt lat="44.4366" lon="6.88212">
        <ele>2067</ele>
        <time>2013-08-21T12:30:05Z</time>
      </trkpt>
      <trkpt lat="44.43687" lon="6.88216">
        <ele>2069</ele>
        <time>2013-08-21T12:30:23Z</time>
      </trkpt>
      <trkpt lat="44.43712" lon="6.88204">
        <ele>2073</ele>
        <time>2013-08-21T12:30:40Z</time>
      </trkpt>
      <trkpt lat="44.43741" lon="6.88202">
        <ele>2076</ele>
        <time>2013-08-21T12:30:59Z</time>
      </trkpt>
      <trkpt lat="44.43766" lon="6.88187">
        <ele>2079</ele>
        <time>2013-08-21T12:31:16Z</time>
      </trkpt>
      <trkpt lat="44.43791" lon="6.88165">
        <ele>2082</ele>
        <time>2013-08-21T12:31:34Z</time>
      </trkpt>
      <trkpt lat="44.43813" lon="6.88124">
        <ele>2086</ele>
        <time>2013-08-21T12:31:54Z</time>
      </trkpt>
      <trkpt lat="44.43838" lon="6.88107">
        <ele>2089</ele>
        <time>2013-08-21T12:32:12Z</time>
      </trkpt>
      <trkpt lat="44.43869" lon="6.88099">
        <ele>2092</ele>
        <time>2013-08-21T12:32:33Z</time>
      </trkpt>
      <trkpt lat="44.43899" lon="6.88081">
        <ele>2096</ele>
        <time>2013-08-21T12:32:55Z</time>
      </trkpt>
      <trkpt lat="44.43924" lon="6.88066">
        <ele>2099</ele>
        <time>2013-08-21T12:33:12Z</time>
      </trkpt>
      <trkpt lat="44.43954" lon="6.88049">
        <ele>2102</ele>
        <time>2013-08-21T12:33:34Z</time>
      </trkpt>
      <trkpt lat="44.4398" lon="6.88027">
        <ele>2105</ele>
        <time>2013-08-21T12:33:53Z</time>
      </trkpt>
      <trkpt lat="44.44006" lon="6.88006">
        <ele>2108</ele>
        <time>2013-08-21T12:34:11Z</time>
      </trkpt>
      <trkpt lat="44.44029" lon="6.87993">
        <ele>2111</ele>
        <time>2013-08-21T12:34:27Z</time>
      </trkpt>
      <trkpt lat="44.44052" lon="6.87968">
        <ele>2115</ele>
        <time>2013-08-21T12:34:46Z</time>
      </trkpt>
      <trkpt lat="44.44073" lon="6.87941">
        <ele>2117</ele>
        <time>2013-08-21T12:35:02Z</time>
      </trkpt>
      <trkpt lat="44.44094" lon="6.87914">
        <ele>2119</ele>
        <time>2013-08-21T12:35:19Z</time>
      </trkpt>
      <trkpt lat="44.44105" lon="6.87903">
        <ele>2120</ele>
        <time>2013-08-21T12:35:28Z</time>
      </trkpt>
      <trkpt lat="44.44106" lon="6.87918">
        <ele>2123</ele>
        <time>2013-08-21T12:35:38Z</time>
      </trkpt>
      <trkpt lat="44.44088" lon="6.87939">
        <ele>2125</ele>
        <time>2013-08-21T12:35:49Z</time>
      </trkpt>
      <trkpt lat="44.44066" lon="6.87987">
        <ele>2125</ele>
        <time>2013-08-21T12:36:09Z</time>
      </trkpt>
      <trkpt lat="44.44053" lon="6.88016">
        <ele>2128</ele>
        <time>2013-08-21T12:36:23Z</time>
      </trkpt>
      <trkpt lat="44.44034" lon="6.88052">
        <ele>2130</ele>
        <time>2013-08-21T12:36:39Z</time>
      </trkpt>
      <trkpt lat="44.44016" lon="6.88085">
        <ele>2134</ele>
        <time>2013-08-21T12:36:56Z</time>
      </trkpt>
      <trkpt lat="44.43998" lon="6.88122">
        <ele>2137</ele>
        <time>2013-08-21T12:37:15Z</time>
      </trkpt>
      <trkpt lat="44.43982" lon="6.88151">
        <ele>2140</ele>
        <time>2013-08-21T12:37:33Z</time>
      </trkpt>
      <trkpt lat="44.43965" lon="6.8818">
        <ele>2143</ele>
        <time>2013-08-21T12:37:52Z</time>
      </trkpt>
      <trkpt lat="44.43948" lon="6.88212">
        <ele>2146</ele>
        <time>2013-08-21T12:38:11Z</time>
      </trkpt>
      <trkpt lat="44.43935" lon="6.8824">
        <ele>2148</ele>
        <time>2013-08-21T12:38:27Z</time>
      </trkpt>
      <trkpt lat="44.43918" lon="6.88271">
        <ele>2151</ele>
        <time>2013-08-21T12:38:45Z</time>
      </trkpt>
      <trkpt lat="44.43902" lon="6.88301">
        <ele>2154</ele>
        <time>2013-08-21T12:39:04Z</time>
      </trkpt>
      <trkpt lat="44.43894" lon="6.88334">
        <ele>2156</ele>
        <time>2013-08-21T12:39:21Z</time>
      </trkpt>
      <trkpt lat="44.43881" lon="6.88358">
        <ele>2159</ele>
        <time>2013-08-21T12:39:36Z</time>
      </trkpt>
      <trkpt lat="44.4387" lon="6.8838">
        <ele>2161</ele>
        <time>2013-08-21T12:39:51Z</time>
      </trkpt>
      <trkpt lat="44.43855" lon="6.88401">
        <ele>2164</ele>
        <time>2013-08-21T12:40:07Z</time>
      </trkpt>
      <trkpt lat="44.43844" lon="6.88429">
        <ele>2166</ele>
        <time>2013-08-21T12:40:24Z</time>
      </trkpt>
      <trkpt lat="44.43841" lon="6.88443">
        <ele>2167</ele>
        <time>2013-08-21T12:40:32Z</time>
      </trkpt>
      <trkpt lat="44.43827" lon="6.88474">
        <ele>2169</ele>
        <time>2013-08-21T12:40:50Z</time>
      </trkpt>
      <trkpt lat="44.43806" lon="6.88496">
        <ele>2172</ele>
        <time>2013-08-21T12:41:07Z</time>
      </trkpt>
      <trkpt lat="44.43787" lon="6.88531">
        <ele>2175</ele>
        <time>2013-08-21T12:41:28Z</time>
      </trkpt>
      <trkpt lat="44.43772" lon="6.88562">
        <ele>2177</ele>
        <time>2013-08-21T12:41:46Z</time>
      </trkpt>
      <trkpt lat="44.43754" lon="6.88595">
        <ele>2180</ele>
        <time>2013-08-21T12:42:05Z</time>
      </trkpt>
      <trkpt lat="44.4374" lon="6.88623">
        <ele>2183</ele>
        <time>2013-08-21T12:42:22Z</time>
      </trkpt>
      <trkpt lat="44.43725" lon="6.88649">
        <ele>2186</ele>
        <time>2013-08-21T12:42:40Z</time>
      </trkpt>
      <trkpt lat="44.43707" lon="6.88684">
        <ele>2189</ele>
        <time>2013-08-21T12:43:00Z</time>
      </trkpt>
      <trkpt lat="44.4369" lon="6.8871">
        <ele>2191</ele>
        <time>2013-08-21T12:43:17Z</time>
      </trkpt>
      <trkpt lat="44.43671" lon="6.88738">
        <ele>2195</ele>
        <time>2013-08-21T12:43:36Z</time>
      </trkpt>
      <trkpt lat="44.43677" lon="6.88753">
        <ele>2196</ele>
        <time>2013-08-21T12:43:48Z</time>
      </trkpt>
      <trkpt lat="44.43703" lon="6.88732">
        <ele>2197</ele>
        <time>2013-08-21T12:44:03Z</time>
      </trkpt>
      <trkpt lat="44.43743" lon="6.88705">
        <ele>2199</ele>
        <time>2013-08-21T12:44:23Z</time>
      </trkpt>
      <trkpt lat="44.43773" lon="6.88686">
        <ele>2202</ele>
        <time>2013-08-21T12:44:42Z</time>
      </trkpt>
      <trkpt lat="44.43803" lon="6.88667">
        <ele>2205</ele>
        <time>2013-08-21T12:45:03Z</time>
      </trkpt>
      <trkpt lat="44.43822" lon="6.88645">
        <ele>2208</ele>
        <time>2013-08-21T12:45:19Z</time>
      </trkpt>
      <trkpt lat="44.43838" lon="6.88627">
        <ele>2211</ele>
        <time>2013-08-21T12:45:34Z</time>
      </trkpt>
      <trkpt lat="44.4386" lon="6.88607">
        <ele>2213</ele>
        <time>2013-08-21T12:45:52Z</time>
      </trkpt>
      <trkpt lat="44.43878" lon="6.88585">
        <ele>2216</ele>
        <time>2013-08-21T12:46:09Z</time>
      </trkpt>
      <trkpt lat="44.4389" lon="6.88575">
        <ele>2218</ele>
        <time>2013-08-21T12:46:19Z</time>
      </trkpt>
      <trkpt lat="44.43906" lon="6.88563">
        <ele>2220</ele>
        <time>2013-08-21T12:46:34Z</time>
      </trkpt>
      <trkpt lat="44.43928" lon="6.88549">
        <ele>2223</ele>
        <time>2013-08-21T12:46:53Z</time>
      </trkpt>
      <trkpt lat="44.43944" lon="6.88538">
        <ele>2225</ele>
        <time>2013-08-21T12:47:09Z</time>
      </trkpt>
      <trkpt lat="44.43965" lon="6.88515">
        <ele>2227</ele>
        <time>2013-08-21T12:47:54Z</time>
      </trkpt>
      <trkpt lat="44.4398" lon="6.88472">
        <ele>2231</ele>
        <time>2013-08-21T12:48:15Z</time>
      </trkpt>
      <trkpt lat="44.43997" lon="6.88446">
        <ele>2235</ele>
        <time>2013-08-21T12:48:30Z</time>
      </trkpt>
      <trkpt lat="44.44024" lon="6.88431">
        <ele>2237</ele>
        <time>2013-08-21T12:48:48Z</time>
      </trkpt>
      <trkpt lat="44.44037" lon="6.88436">
        <ele>2239</ele>
        <time>2013-08-21T12:48:57Z</time>
      </trkpt>
      <trkpt lat="44.44051" lon="6.88439">
        <ele>2240</ele>
        <time>2013-08-21T12:49:08Z</time>
      </trkpt>
      <trkpt lat="44.44067" lon="6.88411">
        <ele>2243</ele>
        <time>2013-08-21T12:49:26Z</time>
      </trkpt>
      <trkpt lat="44.44093" lon="6.88402">
        <ele>2246</ele>
        <time>2013-08-21T12:49:44Z</time>
      </trkpt>
      <trkpt lat="44.4412" lon="6.88396">
        <ele>2249</ele>
        <time>2013-08-21T12:50:03Z</time>
      </trkpt>
      <trkpt lat="44.44136" lon="6.88366">
        <ele>2251</ele>
        <time>2013-08-21T12:50:21Z</time>
      </trkpt>
      <trkpt lat="44.44156" lon="6.88334">
        <ele>2254</ele>
        <time>2013-08-21T12:50:40Z</time>
      </trkpt>
      <trkpt lat="44.44178" lon="6.88298">
        <ele>2258</ele>
        <time>2013-08-21T12:51:01Z</time>
      </trkpt>
      <trkpt lat="44.44196" lon="6.88268">
        <ele>2262</ele>
        <time>2013-08-21T12:51:20Z</time>
      </trkpt>
      <trkpt lat="44.44212" lon="6.88244">
        <ele>2265</ele>
        <time>2013-08-21T12:51:36Z</time>
      </trkpt>
      <trkpt lat="44.44231" lon="6.88227">
        <ele>2267</ele>
        <time>2013-08-21T12:51:54Z</time>
      </trkpt>
      <trkpt lat="44.44255" lon="6.88219">
        <ele>2270</ele>
        <time>2013-08-21T12:52:13Z</time>
      </trkpt>
      <trkpt lat="44.44277" lon="6.88216">
        <ele>2272</ele>
        <time>2013-08-21T12:52:28Z</time>
      </trkpt>
      <trkpt lat="44.443" lon="6.88214">
        <ele>2274</ele>
        <time>2013-08-21T12:52:44Z</time>
      </trkpt>
      <trkpt lat="44.44316" lon="6.88211">
        <ele>2276</ele>
        <time>2013-08-21T12:52:56Z</time>
      </trkpt>
      <trkpt lat="44.44334" lon="6.88211">
        <ele>2278</ele>
        <time>2013-08-21T12:53:09Z</time>
      </trkpt>
      <trkpt lat="44.44354" lon="6.8822">
        <ele>2280</ele>
        <time>2013-08-21T12:53:24Z</time>
      </trkpt>
      <trkpt lat="44.44369" lon="6.88204">
        <ele>2283</ele>
        <time>2013-08-21T12:53:38Z</time>
      </trkpt>
      <trkpt lat="44.4439" lon="6.88189">
        <ele>2285</ele>
        <time>2013-08-21T12:53:55Z</time>
      </trkpt>
      <trkpt lat="44.4441" lon="6.88197">
        <ele>2287</ele>
        <time>2013-08-21T12:54:08Z</time>
      </trkpt>
      <trkpt lat="44.4443" lon="6.88205">
        <ele>2289</ele>
        <time>2013-08-21T12:54:23Z</time>
      </trkpt>
      <trkpt lat="44.44448" lon="6.88222">
        <ele>2292</ele>
        <time>2013-08-21T12:54:39Z</time>
      </trkpt>
      <trkpt lat="44.44459" lon="6.88255">
        <ele>2295</ele>
        <time>2013-08-21T12:54:58Z</time>
      </trkpt>
      <trkpt lat="44.44468" lon="6.88282">
        <ele>2298</ele>
        <time>2013-08-21T12:55:14Z</time>
      </trkpt>
      <trkpt lat="44.4448" lon="6.88292">
        <ele>2300</ele>
        <time>2013-08-21T12:55:27Z</time>
      </trkpt>
      <trkpt lat="44.44502" lon="6.88293">
        <ele>2303</ele>
        <time>2013-08-21T12:55:46Z</time>
      </trkpt>
      <trkpt lat="44.44525" lon="6.88295">
        <ele>2306</ele>
        <time>2013-08-21T12:56:05Z</time>
      </trkpt>
      <trkpt lat="44.44544" lon="6.88289">
        <ele>2308</ele>
        <time>2013-08-21T12:56:18Z</time>
      </trkpt>
      <trkpt lat="44.44545" lon="6.8827">
        <ele>2308</ele>
        <time>2013-08-21T12:56:25Z</time>
      </trkpt>
      <trkpt lat="44.44537" lon="6.88244">
        <ele>2308</ele>
        <time>2013-08-21T12:56:50Z</time>
      </trkpt>
      <trkpt lat="44.4454" lon="6.88216">
        <ele>2308</ele>
        <time>2013-08-21T12:57:00Z</time>
      </trkpt>
      <trkpt lat="44.44552" lon="6.88211">
        <ele>2309</ele>
        <time>2013-08-21T12:57:08Z</time>
      </trkpt>
      <trkpt lat="44.44575" lon="6.88209">
        <ele>2311</ele>
        <time>2013-08-21T12:57:23Z</time>
      </trkpt>
      <trkpt lat="44.44603" lon="6.88206">
        <ele>2314</ele>
        <time>2013-08-21T12:57:42Z</time>
      </trkpt>
      <trkpt lat="44.44628" lon="6.88212">
        <ele>2316</ele>
        <time>2013-08-21T12:57:57Z</time>
      </trkpt>
      <trkpt lat="44.44655" lon="6.88203">
        <ele>2319</ele>
        <time>2013-08-21T12:58:13Z</time>
      </trkpt>
      <trkpt lat="44.44684" lon="6.88181">
        <ele>2323</ele>
        <time>2013-08-21T12:58:33Z</time>
      </trkpt>
      <trkpt lat="44.44709" lon="6.88161">
        <ele>2326</ele>
        <time>2013-08-21T12:58:51Z</time>
      </trkpt>
      <trkpt lat="44.4473" lon="6.88147">
        <ele>2328</ele>
        <time>2013-08-21T12:59:04Z</time>
      </trkpt>
      <trkpt lat="44.44742" lon="6.88113">
        <ele>2331</ele>
        <time>2013-08-21T12:59:21Z</time>
      </trkpt>
      <trkpt lat="44.44754" lon="6.88098">
        <ele>2332</ele>
        <time>2013-08-21T12:59:30Z</time>
      </trkpt>
      <trkpt lat="44.44752" lon="6.88076">
        <ele>2333</ele>
        <time>2013-08-21T12:59:39Z</time>
      </trkpt>
      <trkpt lat="44.44742" lon="6.88028">
        <ele>2336</ele>
        <time>2013-08-21T12:59:59Z</time>
      </trkpt>
      <trkpt lat="44.44728" lon="6.87993">
        <ele>2340</ele>
        <time>2013-08-21T13:00:18Z</time>
      </trkpt>
      <trkpt lat="44.44715" lon="6.8795">
        <ele>2343</ele>
        <time>2013-08-21T13:00:38Z</time>
      </trkpt>
      <trkpt lat="44.44708" lon="6.87905">
        <ele>2346</ele>
        <time>2013-08-21T13:00:57Z</time>
      </trkpt>
      <trkpt lat="44.44704" lon="6.87864">
        <ele>2349</ele>
        <time>2013-08-21T13:01:13Z</time>
      </trkpt>
      <trkpt lat="44.44688" lon="6.8782">
        <ele>2352</ele>
        <time>2013-08-21T13:01:33Z</time>
      </trkpt>
      <trkpt lat="44.44677" lon="6.87782">
        <ele>2355</ele>
        <time>2013-08-21T13:01:53Z</time>
      </trkpt>
      <trkpt lat="44.44678" lon="6.8778">
        <ele>2364</ele>
        <time>2013-08-21T13:16:06Z</time>
      </trkpt>
      <trkpt lat="44.44677" lon="6.8777">
        <ele>2364</ele>
        <time>2013-08-21T13:16:36Z</time>
      </trkpt>
      <trkpt lat="44.44687" lon="6.87724">
        <ele>2363</ele>
        <time>2013-08-21T13:16:49Z</time>
      </trkpt>
      <trkpt lat="44.44718" lon="6.87644">
        <ele>2360</ele>
        <time>2013-08-21T13:17:01Z</time>
      </trkpt>
      <trkpt lat="44.4478" lon="6.87551">
        <ele>2356</ele>
        <time>2013-08-21T13:17:13Z</time>
      </trkpt>
      <trkpt lat="44.44808" lon="6.87529">
        <ele>2354</ele>
        <time>2013-08-21T13:17:18Z</time>
      </trkpt>
      <trkpt lat="44.4482" lon="6.87523">
        <ele>2352</ele>
        <time>2013-08-21T13:17:24Z</time>
      </trkpt>
      <trkpt lat="44.44842" lon="6.8751">
        <ele>2350</ele>
        <time>2013-08-21T13:17:39Z</time>
      </trkpt>
      <trkpt lat="44.44876" lon="6.87507">
        <ele>2350</ele>
        <time>2013-08-21T13:17:50Z</time>
      </trkpt>
      <trkpt lat="44.44904" lon="6.87504">
        <ele>2350</ele>
        <time>2013-08-21T13:17:57Z</time>
      </trkpt>
      <trkpt lat="44.44938" lon="6.87469">
        <ele>2349</ele>
        <time>2013-08-21T13:18:05Z</time>
      </trkpt>
      <trkpt lat="44.44972" lon="6.87339">
        <ele>2343</ele>
        <time>2013-08-21T13:18:18Z</time>
      </trkpt>
      <trkpt lat="44.44999" lon="6.8727">
        <ele>2340</ele>
        <time>2013-08-21T13:18:25Z</time>
      </trkpt>
      <trkpt lat="44.45044" lon="6.87193">
        <ele>2336</ele>
        <time>2013-08-21T13:18:34Z</time>
      </trkpt>
      <trkpt lat="44.45061" lon="6.87168">
        <ele>2332</ele>
        <time>2013-08-21T13:18:40Z</time>
      </trkpt>
      <trkpt lat="44.45068" lon="6.87161">
        <ele>2328</ele>
        <time>2013-08-21T13:19:05Z</time>
      </trkpt>
      <trkpt lat="44.45071" lon="6.87154">
        <ele>2327</ele>
        <time>2013-08-21T13:19:11Z</time>
      </trkpt>
      <trkpt lat="44.45063" lon="6.87164">
        <ele>2327</ele>
        <time>2013-08-21T13:19:23Z</time>
      </trkpt>
      <trkpt lat="44.45059" lon="6.87168">
        <ele>2328</ele>
        <time>2013-08-21T13:19:31Z</time>
      </trkpt>
      <trkpt lat="44.45052" lon="6.8718">
        <ele>2329</ele>
        <time>2013-08-21T13:19:44Z</time>
      </trkpt>
      <trkpt lat="44.45037" lon="6.87203">
        <ele>2332</ele>
        <time>2013-08-21T13:20:05Z</time>
      </trkpt>
      <trkpt lat="44.45025" lon="6.87222">
        <ele>2334</ele>
        <time>2013-08-21T13:20:23Z</time>
      </trkpt>
      <trkpt lat="44.45028" lon="6.87202">
        <ele>2333</ele>
        <time>2013-08-21T13:21:43Z</time>
      </trkpt>
      <trkpt lat="44.45041" lon="6.87167">
        <ele>2327</ele>
        <time>2013-08-21T13:21:55Z</time>
      </trkpt>
      <trkpt lat="44.45057" lon="6.87139">
        <ele>2322</ele>
        <time>2013-08-21T13:22:05Z</time>
      </trkpt>
      <trkpt lat="44.45062" lon="6.87131">
        <ele>2318</ele>
        <time>2013-08-21T13:22:14Z</time>
      </trkpt>
      <trkpt lat="44.45074" lon="6.87111">
        <ele>2316</ele>
        <time>2013-08-21T13:23:18Z</time>
      </trkpt>
      <trkpt lat="44.45093" lon="6.87074">
        <ele>2308</ele>
        <time>2013-08-21T13:23:27Z</time>
      </trkpt>
      <trkpt lat="44.45107" lon="6.87055">
        <ele>2303</ele>
        <time>2013-08-21T13:23:35Z</time>
      </trkpt>
      <trkpt lat="44.45108" lon="6.87044">
        <ele>2300</ele>
        <time>2013-08-21T13:23:44Z</time>
      </trkpt>
      <trkpt lat="44.45128" lon="6.87018">
        <ele>2297</ele>
        <time>2013-08-21T13:23:52Z</time>
      </trkpt>
      <trkpt lat="44.45137" lon="6.87002">
        <ele>2295</ele>
        <time>2013-08-21T13:23:57Z</time>
      </trkpt>
      <trkpt lat="44.45154" lon="6.86958">
        <ele>2290</ele>
        <time>2013-08-21T13:24:05Z</time>
      </trkpt>
      <trkpt lat="44.4517" lon="6.86914">
        <ele>2284</ele>
        <time>2013-08-21T13:24:13Z</time>
      </trkpt>
      <trkpt lat="44.45186" lon="6.86857">
        <ele>2279</ele>
        <time>2013-08-21T13:24:23Z</time>
      </trkpt>
      <trkpt lat="44.45191" lon="6.86792">
        <ele>2273</ele>
        <time>2013-08-21T13:24:35Z</time>
      </trkpt>
      <trkpt lat="44.452" lon="6.86746">
        <ele>2268</ele>
        <time>2013-08-21T13:24:45Z</time>
      </trkpt>
      <trkpt lat="44.45219" lon="6.86705">
        <ele>2265</ele>
        <time>2013-08-21T13:24:55Z</time>
      </trkpt>
      <trkpt lat="44.45237" lon="6.86662">
        <ele>2259</ele>
        <time>2013-08-21T13:25:05Z</time>
      </trkpt>
      <trkpt lat="44.45259" lon="6.86616">
        <ele>2251</ele>
        <time>2013-08-21T13:25:17Z</time>
      </trkpt>
      <trkpt lat="44.45265" lon="6.86603">
        <ele>2245</ele>
        <time>2013-08-21T13:25:55Z</time>
      </trkpt>
      <trkpt lat="44.45282" lon="6.8658">
        <ele>2242</ele>
        <time>2013-08-21T13:26:07Z</time>
      </trkpt>
      <trkpt lat="44.45282" lon="6.8657">
        <ele>2238</ele>
        <time>2013-08-21T13:26:16Z</time>
      </trkpt>
      <trkpt lat="44.45267" lon="6.86572">
        <ele>2234</ele>
        <time>2013-08-21T13:26:27Z</time>
      </trkpt>
      <trkpt lat="44.45262" lon="6.86573">
        <ele>2233</ele>
        <time>2013-08-21T13:26:33Z</time>
      </trkpt>
      <trkpt lat="44.45261" lon="6.86572">
        <ele>2232</ele>
        <time>2013-08-21T13:26:46Z</time>
      </trkpt>
      <trkpt lat="44.45259" lon="6.8657">
        <ele>2229</ele>
        <time>2013-08-21T13:27:02Z</time>
      </trkpt>
      <trkpt lat="44.45266" lon="6.86562">
        <ele>2228</ele>
        <time>2013-08-21T13:27:17Z</time>
      </trkpt>
      <trkpt lat="44.45286" lon="6.86541">
        <ele>2223</ele>
        <time>2013-08-21T13:27:27Z</time>
      </trkpt>
      <trkpt lat="44.45299" lon="6.86537">
        <ele>2220</ele>
        <time>2013-08-21T13:27:33Z</time>
      </trkpt>
      <trkpt lat="44.45288" lon="6.8653">
        <ele>2217</ele>
        <time>2013-08-21T13:27:40Z</time>
      </trkpt>
      <trkpt lat="44.45265" lon="6.8653">
        <ele>2213</ele>
        <time>2013-08-21T13:27:51Z</time>
      </trkpt>
      <trkpt lat="44.45248" lon="6.86534">
        <ele>2209</ele>
        <time>2013-08-21T13:28:02Z</time>
      </trkpt>
      <trkpt lat="44.45244" lon="6.86534">
        <ele>2207</ele>
        <time>2013-08-21T13:28:11Z</time>
      </trkpt>
      <trkpt lat="44.45237" lon="6.86535">
        <ele>2205</ele>
        <time>2013-08-21T13:28:34Z</time>
      </trkpt>
      <trkpt lat="44.45234" lon="6.86536">
        <ele>2204</ele>
        <time>2013-08-21T13:28:47Z</time>
      </trkpt>
      <trkpt lat="44.45238" lon="6.86527">
        <ele>2202</ele>
        <time>2013-08-21T13:28:57Z</time>
      </trkpt>
      <trkpt lat="44.45258" lon="6.865">
        <ele>2198</ele>
        <time>2013-08-21T13:29:08Z</time>
      </trkpt>
      <trkpt lat="44.45272" lon="6.86484">
        <ele>2194</ele>
        <time>2013-08-21T13:29:15Z</time>
      </trkpt>
      <trkpt lat="44.45268" lon="6.86478">
        <ele>2190</ele>
        <time>2013-08-21T13:29:22Z</time>
      </trkpt>
      <trkpt lat="44.45238" lon="6.86478">
        <ele>2184</ele>
        <time>2013-08-21T13:29:32Z</time>
      </trkpt>
      <trkpt lat="44.45224" lon="6.86475">
        <ele>2177</ele>
        <time>2013-08-21T13:29:40Z</time>
      </trkpt>
      <trkpt lat="44.45236" lon="6.86456">
        <ele>2173</ele>
        <time>2013-08-21T13:29:47Z</time>
      </trkpt>
      <trkpt lat="44.45245" lon="6.86439">
        <ele>2170</ele>
        <time>2013-08-21T13:29:53Z</time>
      </trkpt>
      <trkpt lat="44.45244" lon="6.86433">
        <ele>2167</ele>
        <time>2013-08-21T13:29:58Z</time>
      </trkpt>
      <trkpt lat="44.45223" lon="6.86435">
        <ele>2163</ele>
        <time>2013-08-21T13:30:05Z</time>
      </trkpt>
      <trkpt lat="44.45208" lon="6.8644">
        <ele>2159</ele>
        <time>2013-08-21T13:30:12Z</time>
      </trkpt>
      <trkpt lat="44.45211" lon="6.86421">
        <ele>2154</ele>
        <time>2013-08-21T13:30:20Z</time>
      </trkpt>
      <trkpt lat="44.45229" lon="6.86392">
        <ele>2148</ele>
        <time>2013-08-21T13:30:29Z</time>
      </trkpt>
      <trkpt lat="44.45208" lon="6.8639">
        <ele>2143</ele>
        <time>2013-08-21T13:30:37Z</time>
      </trkpt>
      <trkpt lat="44.45195" lon="6.86399">
        <ele>2140</ele>
        <time>2013-08-21T13:30:42Z</time>
      </trkpt>
      <trkpt lat="44.45201" lon="6.86364">
        <ele>2134</ele>
        <time>2013-08-21T13:30:52Z</time>
      </trkpt>
      <trkpt lat="44.4521" lon="6.86353">
        <ele>2130</ele>
        <time>2013-08-21T13:30:57Z</time>
      </trkpt>
      <trkpt lat="44.45191" lon="6.86359">
        <ele>2126</ele>
        <time>2013-08-21T13:31:06Z</time>
      </trkpt>
      <trkpt lat="44.45187" lon="6.86357">
        <ele>2123</ele>
        <time>2013-08-21T13:31:11Z</time>
      </trkpt>
      <trkpt lat="44.45187" lon="6.8634">
        <ele>2119</ele>
        <time>2013-08-21T13:32:03Z</time>
      </trkpt>
      <trkpt lat="44.452" lon="6.86316">
        <ele>2115</ele>
        <time>2013-08-21T13:32:11Z</time>
      </trkpt>
      <trkpt lat="44.45185" lon="6.86317">
        <ele>2113</ele>
        <time>2013-08-21T13:32:16Z</time>
      </trkpt>
      <trkpt lat="44.45174" lon="6.86316">
        <ele>2109</ele>
        <time>2013-08-21T13:32:22Z</time>
      </trkpt>
      <trkpt lat="44.45193" lon="6.86291">
        <ele>2103</ele>
        <time>2013-08-21T13:32:31Z</time>
      </trkpt>
      <trkpt lat="44.45167" lon="6.86296">
        <ele>2098</ele>
        <time>2013-08-21T13:32:41Z</time>
      </trkpt>
      <trkpt lat="44.45162" lon="6.8629">
        <ele>2094</ele>
        <time>2013-08-21T13:32:47Z</time>
      </trkpt>
      <trkpt lat="44.45176" lon="6.86269">
        <ele>2090</ele>
        <time>2013-08-21T13:32:55Z</time>
      </trkpt>
      <trkpt lat="44.45185" lon="6.86259">
        <ele>2088</ele>
        <time>2013-08-21T13:33:00Z</time>
      </trkpt>
      <trkpt lat="44.45171" lon="6.86261">
        <ele>2085</ele>
        <time>2013-08-21T13:33:08Z</time>
      </trkpt>
      <trkpt lat="44.45183" lon="6.86247">
        <ele>2083</ele>
        <time>2013-08-21T13:33:14Z</time>
      </trkpt>
      <trkpt lat="44.45166" lon="6.86249">
        <ele>2079</ele>
        <time>2013-08-21T13:33:22Z</time>
      </trkpt>
      <trkpt lat="44.45176" lon="6.86234">
        <ele>2075</ele>
        <time>2013-08-21T13:33:29Z</time>
      </trkpt>
      <trkpt lat="44.45171" lon="6.86223">
        <ele>2071</ele>
        <time>2013-08-21T13:33:37Z</time>
      </trkpt>
      <trkpt lat="44.4516" lon="6.86218">
        <ele>2066</ele>
        <time>2013-08-21T13:33:45Z</time>
      </trkpt>
      <trkpt lat="44.45178" lon="6.86201">
        <ele>2062</ele>
        <time>2013-08-21T13:33:52Z</time>
      </trkpt>
      <trkpt lat="44.4517" lon="6.86196">
        <ele>2058</ele>
        <time>2013-08-21T13:33:58Z</time>
      </trkpt>
      <trkpt lat="44.45152" lon="6.86197">
        <ele>2053</ele>
        <time>2013-08-21T13:34:07Z</time>
      </trkpt>
      <trkpt lat="44.45167" lon="6.8618">
        <ele>2049</ele>
        <time>2013-08-21T13:34:15Z</time>
      </trkpt>
      <trkpt lat="44.45148" lon="6.86182">
        <ele>2046</ele>
        <time>2013-08-21T13:34:21Z</time>
      </trkpt>
      <trkpt lat="44.4515" lon="6.86172">
        <ele>2043</ele>
        <time>2013-08-21T13:34:26Z</time>
      </trkpt>
      <trkpt lat="44.45172" lon="6.86151">
        <ele>2037</ele>
        <time>2013-08-21T13:34:35Z</time>
      </trkpt>
      <trkpt lat="44.45154" lon="6.86146">
        <ele>2033</ele>
        <time>2013-08-21T13:34:41Z</time>
      </trkpt>
      <trkpt lat="44.45148" lon="6.86135">
        <ele>2025</ele>
        <time>2013-08-21T13:34:50Z</time>
      </trkpt>
      <trkpt lat="44.45164" lon="6.86121">
        <ele>2021</ele>
        <time>2013-08-21T13:34:56Z</time>
      </trkpt>
      <trkpt lat="44.45193" lon="6.86112">
        <ele>2014</ele>
        <time>2013-08-21T13:35:06Z</time>
      </trkpt>
      <trkpt lat="44.45177" lon="6.86097">
        <ele>2009</ele>
        <time>2013-08-21T13:35:12Z</time>
      </trkpt>
      <trkpt lat="44.45151" lon="6.86076">
        <ele>2004</ele>
        <time>2013-08-21T13:35:19Z</time>
      </trkpt>
      <trkpt lat="44.45158" lon="6.86063">
        <ele>1998</ele>
        <time>2013-08-21T13:35:26Z</time>
      </trkpt>
      <trkpt lat="44.45159" lon="6.86043">
        <ele>1992</ele>
        <time>2013-08-21T13:35:35Z</time>
      </trkpt>
      <trkpt lat="44.45159" lon="6.86019">
        <ele>1987</ele>
        <time>2013-08-21T13:37:22Z</time>
      </trkpt>
      <trkpt lat="44.45184" lon="6.8603">
        <ele>1987</ele>
        <time>2013-08-21T13:37:33Z</time>
      </trkpt>
      <trkpt lat="44.45208" lon="6.86033">
        <ele>1988</ele>
        <time>2013-08-21T13:37:40Z</time>
      </trkpt>
      <trkpt lat="44.45248" lon="6.85992">
        <ele>1985</ele>
        <time>2013-08-21T13:37:52Z</time>
      </trkpt>
      <trkpt lat="44.4528" lon="6.85925">
        <ele>1978</ele>
        <time>2013-08-21T13:38:04Z</time>
      </trkpt>
      <trkpt lat="44.45312" lon="6.85907">
        <ele>1974</ele>
        <time>2013-08-21T13:38:12Z</time>
      </trkpt>
      <trkpt lat="44.45335" lon="6.85928">
        <ele>1968</ele>
        <time>2013-08-21T13:38:20Z</time>
      </trkpt>
      <trkpt lat="44.45358" lon="6.85906">
        <ele>1960</ele>
        <time>2013-08-21T13:38:29Z</time>
      </trkpt>
      <trkpt lat="44.4536" lon="6.85889">
        <ele>1951</ele>
        <time>2013-08-21T13:38:39Z</time>
      </trkpt>
      <trkpt lat="44.45341" lon="6.8588">
        <ele>1949</ele>
        <time>2013-08-21T13:38:48Z</time>
      </trkpt>
      <trkpt lat="44.4535" lon="6.85869">
        <ele>1946</ele>
        <time>2013-08-21T13:39:37Z</time>
      </trkpt>
      <trkpt lat="44.45337" lon="6.85852">
        <ele>1944</ele>
        <time>2013-08-21T13:39:47Z</time>
      </trkpt>
      <trkpt lat="44.45337" lon="6.8585">
        <ele>1942</ele>
        <time>2013-08-21T13:39:54Z</time>
      </trkpt>
      <trkpt lat="44.45358" lon="6.85861">
        <ele>1940</ele>
        <time>2013-08-21T13:40:09Z</time>
      </trkpt>
      <trkpt lat="44.45362" lon="6.8586">
        <ele>1939</ele>
        <time>2013-08-21T13:40:14Z</time>
      </trkpt>
      <trkpt lat="44.45355" lon="6.85845">
        <ele>1937</ele>
        <time>2013-08-21T13:40:21Z</time>
      </trkpt>
      <trkpt lat="44.45343" lon="6.8583">
        <ele>1936</ele>
        <time>2013-08-21T13:40:26Z</time>
      </trkpt>
      <trkpt lat="44.45327" lon="6.85814">
        <ele>1932</ele>
        <time>2013-08-21T13:40:35Z</time>
      </trkpt>
      <trkpt lat="44.45343" lon="6.85808">
        <ele>1931</ele>
        <time>2013-08-21T13:41:25Z</time>
      </trkpt>
      <trkpt lat="44.45364" lon="6.85808">
        <ele>1928</ele>
        <time>2013-08-21T13:41:33Z</time>
      </trkpt>
      <trkpt lat="44.45352" lon="6.85793">
        <ele>1926</ele>
        <time>2013-08-21T13:41:42Z</time>
      </trkpt>
      <trkpt lat="44.45334" lon="6.85792">
        <ele>1924</ele>
        <time>2013-08-21T13:42:18Z</time>
      </trkpt>
      <trkpt lat="44.45321" lon="6.85776">
        <ele>1922</ele>
        <time>2013-08-21T13:42:26Z</time>
      </trkpt>
      <trkpt lat="44.45307" lon="6.8575">
        <ele>1918</ele>
        <time>2013-08-21T13:42:36Z</time>
      </trkpt>
      <trkpt lat="44.45304" lon="6.85744">
        <ele>1917</ele>
        <time>2013-08-21T13:42:43Z</time>
      </trkpt>
      <trkpt lat="44.4531" lon="6.85752">
        <ele>1915</ele>
        <time>2013-08-21T13:42:53Z</time>
      </trkpt>
      <trkpt lat="44.4533" lon="6.8577">
        <ele>1913</ele>
        <time>2013-08-21T13:43:03Z</time>
      </trkpt>
      <trkpt lat="44.45349" lon="6.85772">
        <ele>1911</ele>
        <time>2013-08-21T13:43:10Z</time>
      </trkpt>
      <trkpt lat="44.45337" lon="6.85764">
        <ele>1908</ele>
        <time>2013-08-21T13:43:17Z</time>
      </trkpt>
      <trkpt lat="44.45327" lon="6.8575">
        <ele>1906</ele>
        <time>2013-08-21T13:43:23Z</time>
      </trkpt>
      <trkpt lat="44.45329" lon="6.85749">
        <ele>1904</ele>
        <time>2013-08-21T13:43:30Z</time>
      </trkpt>
      <trkpt lat="44.45329" lon="6.8575">
        <ele>1904</ele>
        <time>2013-08-21T13:43:35Z</time>
      </trkpt>
      <trkpt lat="44.45335" lon="6.85753">
        <ele>1903</ele>
        <time>2013-08-21T13:43:44Z</time>
      </trkpt>
      <trkpt lat="44.45349" lon="6.85746">
        <ele>1902</ele>
        <time>2013-08-21T13:43:57Z</time>
      </trkpt>
      <trkpt lat="44.45344" lon="6.8574">
        <ele>1900</ele>
        <time>2013-08-21T13:44:02Z</time>
      </trkpt>
      <trkpt lat="44.4534" lon="6.85727">
        <ele>1898</ele>
        <time>2013-08-21T13:45:03Z</time>
      </trkpt>
      <trkpt lat="44.45352" lon="6.85712">
        <ele>1895</ele>
        <time>2013-08-21T13:45:11Z</time>
      </trkpt>
      <trkpt lat="44.45337" lon="6.8571">
        <ele>1893</ele>
        <time>2013-08-21T13:45:16Z</time>
      </trkpt>
      <trkpt lat="44.45339" lon="6.85696">
        <ele>1890</ele>
        <time>2013-08-21T13:45:23Z</time>
      </trkpt>
      <trkpt lat="44.45332" lon="6.85691">
        <ele>1889</ele>
        <time>2013-08-21T13:45:27Z</time>
      </trkpt>
      <trkpt lat="44.45343" lon="6.85676">
        <ele>1886</ele>
        <time>2013-08-21T13:45:34Z</time>
      </trkpt>
      <trkpt lat="44.45332" lon="6.85673">
        <ele>1884</ele>
        <time>2013-08-21T13:45:39Z</time>
      </trkpt>
      <trkpt lat="44.45326" lon="6.85665">
        <ele>1882</ele>
        <time>2013-08-21T13:45:45Z</time>
      </trkpt>
      <trkpt lat="44.45333" lon="6.85648">
        <ele>1879</ele>
        <time>2013-08-21T13:45:53Z</time>
      </trkpt>
      <trkpt lat="44.45322" lon="6.85648">
        <ele>1876</ele>
        <time>2013-08-21T13:45:59Z</time>
      </trkpt>
      <trkpt lat="44.4531" lon="6.85639">
        <ele>1874</ele>
        <time>2013-08-21T13:46:16Z</time>
      </trkpt>
      <trkpt lat="44.45282" lon="6.85641">
        <ele>1871</ele>
        <time>2013-08-21T13:46:26Z</time>
      </trkpt>
      <trkpt lat="44.45282" lon="6.85631">
        <ele>1868</ele>
        <time>2013-08-21T13:46:36Z</time>
      </trkpt>
      <trkpt lat="44.45309" lon="6.85586">
        <ele>1865</ele>
        <time>2013-08-21T13:46:44Z</time>
      </trkpt>
      <trkpt lat="44.45331" lon="6.85531">
        <ele>1857</ele>
        <time>2013-08-21T13:46:54Z</time>
      </trkpt>
      <trkpt lat="44.45326" lon="6.85509">
        <ele>1852</ele>
        <time>2013-08-21T13:47:00Z</time>
      </trkpt>
      <trkpt lat="44.45315" lon="6.8548">
        <ele>1845</ele>
        <time>2013-08-21T13:47:06Z</time>
      </trkpt>
      <trkpt lat="44.45311" lon="6.85442">
        <ele>1839</ele>
        <time>2013-08-21T13:47:13Z</time>
      </trkpt>
      <trkpt lat="44.45311" lon="6.8543">
        <ele>1835</ele>
        <time>2013-08-21T13:47:17Z</time>
      </trkpt>
      <trkpt lat="44.45299" lon="6.85359">
        <ele>1824</ele>
        <time>2013-08-21T13:47:27Z</time>
      </trkpt>
      <trkpt lat="44.45291" lon="6.85329">
        <ele>1817</ele>
        <time>2013-08-21T13:47:33Z</time>
      </trkpt>
      <trkpt lat="44.45287" lon="6.85306">
        <ele>1811</ele>
        <time>2013-08-21T13:47:39Z</time>
      </trkpt>
      <trkpt lat="44.45278" lon="6.85265">
        <ele>1805</ele>
        <time>2013-08-21T13:47:45Z</time>
      </trkpt>
      <trkpt lat="44.45275" lon="6.85222">
        <ele>1794</ele>
        <time>2013-08-21T13:47:55Z</time>
      </trkpt>
      <trkpt lat="44.45273" lon="6.85214">
        <ele>1791</ele>
        <time>2013-08-21T13:47:59Z</time>
      </trkpt>
      <trkpt lat="44.4528" lon="6.85206">
        <ele>1789</ele>
        <time>2013-08-21T13:48:06Z</time>
      </trkpt>
      <trkpt lat="44.45284" lon="6.85201">
        <ele>1787</ele>
        <time>2013-08-21T13:48:29Z</time>
      </trkpt>
      <trkpt lat="44.45274" lon="6.8517">
        <ele>1785</ele>
        <time>2013-08-21T13:48:35Z</time>
      </trkpt>
      <trkpt lat="44.45259" lon="6.85134">
        <ele>1778</ele>
        <time>2013-08-21T13:48:42Z</time>
      </trkpt>
      <trkpt lat="44.45252" lon="6.85125">
        <ele>1775</ele>
        <time>2013-08-21T13:48:45Z</time>
      </trkpt>
      <trkpt lat="44.45203" lon="6.8509">
        <ele>1769</ele>
        <time>2013-08-21T13:48:56Z</time>
      </trkpt>
      <trkpt lat="44.45181" lon="6.85006">
        <ele>1757</ele>
        <time>2013-08-21T13:49:07Z</time>
      </trkpt>
      <trkpt lat="44.45161" lon="6.84931">
        <ele>1748</ele>
        <time>2013-08-21T13:49:15Z</time>
      </trkpt>
      <trkpt lat="44.45126" lon="6.84866">
        <ele>1738</ele>
        <time>2013-08-21T13:49:23Z</time>
      </trkpt>
      <trkpt lat="44.45097" lon="6.84795">
        <ele>1728</ele>
        <time>2013-08-21T13:49:31Z</time>
      </trkpt>
      <trkpt lat="44.45081" lon="6.84738">
        <ele>1720</ele>
        <time>2013-08-21T13:49:39Z</time>
      </trkpt>
      <trkpt lat="44.45061" lon="6.84719">
        <ele>1718</ele>
        <time>2013-08-21T13:49:44Z</time>
      </trkpt>
      <trkpt lat="44.45084" lon="6.84662">
        <ele>1716</ele>
        <time>2013-08-21T13:49:56Z</time>
      </trkpt>
      <trkpt lat="44.45109" lon="6.84624">
        <ele>1715</ele>
        <time>2013-08-21T13:50:07Z</time>
      </trkpt>
      <trkpt lat="44.45108" lon="6.84617">
        <ele>1715</ele>
        <time>2013-08-21T13:50:17Z</time>
      </trkpt>
      <trkpt lat="44.45104" lon="6.8462">
        <ele>1715</ele>
        <time>2013-08-21T13:50:23Z</time>
      </trkpt>
      <trkpt lat="44.45098" lon="6.84621">
        <ele>1715</ele>
        <time>2013-08-21T13:50:33Z</time>
      </trkpt>
    </trkseg>
  </trk>
</gpx>